     2.11           OBSERVATION DATA    G (GPS)             RINEX VERSION / TYPE
teqc 2010Oct21 OPUS Account 20111025 18:18:58UTC            PGM / RUN BY / DATE
B 1521                                                      MARKER NAME
1115                                                        MARKER NUMBER
CSMIDDLETON NGS                                             OBSERVER / AGENCY
4613K00970 TRIMBLE NETR5 4.17                               REC # / TYPE / VERS
60125046 TRM41249.00 NONE                                   ANT # / TYPE
  -738285.7819 -5466451.4756  3191620.1934                  APPROX POSITION XYZ
        2.0040        0.0000        0.0000                  ANTENNA: DELTA H/E/N
     1     1                                                WAVELENGTH FACT L1/2
     5    L1    L2    C1    P1    P2                        # / TYPES OF OBSERV
    15                                                      LEAP SECONDS
  2011     7    26     0     0    0.0000000     GPS         TIME OF FIRST OBS
                                                            END OF HEADER
 11  7 26  0  0  0.0000000  0  9G10G17G28G09G04G20G02G27G01
 125525828.863 6  97812405.98843  23886770.680                    23886783.348
 111780765.921 7  87101990.45946  21271148.625                    21271156.801
 113855068.218 8  88718317.33245  21665888.516                    21665896.605
 117091974.253 7  91240474.54344  22281841.883                    22281851.590
 105024213.315 8  81837174.37246  19985419.672                    19985427.551
 126656509.646 6  98693466.48142  24101935.102                    24101942.527
 118846513.012 7  92607802.21445  22615731.273                    22615739.070
 118044447.026 7  91982754.53845  22463112.883                    22463122.184
 119783180.967 7                  22793976.258
 11  7 26  0  0 30.0000000  0  9G10G17G28G09G04G20G02G27G01
 125431520.271 6  97738919.03343  23868824.469                    23868837.508
 111810200.859 8  87124926.76346  21276749.883                    21276758.133
 113899638.115 8  88753047.06945  21674369.625                    21674377.207
 117053773.527 7  91210707.76244  22274572.781                    22274581.785
 104999129.899 8  81817628.87346  19980646.281                    19980654.391
 126682142.105 6  98713439.80343  24106813.000                    24106821.004
 118761702.867 7  92541716.50545  22599592.250                    22599599.844
 118025753.543 7  91968188.18945  22459555.164                    22459564.832
 119694557.151 7                  22777111.758
 11  7 26  0  1  0.0000000  0  9G10G17G28G09G04G20G02G27G01
 125337201.384 6  97665424.05443  23850875.953                    23850889.133
 111839740.693 7  87147944.80546  21282371.156                    21282379.277
 113944577.713 7  88788064.88745  21682921.523                    21682929.531
 117016193.545 7  91181424.67144  22267421.648                    22267430.984
 104974621.216 8  81798531.21846  19975982.508                    19975990.996
 126708278.405 6  98733805.78242  24111785.953                    24111795.242
 118677158.068 7  92475837.54845  22583503.516                    22583511.707
 118007551.094 7  91954004.46645  22456091.953                    22456100.637
 119606226.051 7                  22760302.391
 11  7 26  0  1 30.0000000  0  9G10G17G28G09G04G20G02G27G01
 125242873.989 6  97591922.46943  23832925.992                    23832938.145
 111869383.308 7  87171042.93446  21288012.414                    21288020.500
 113989885.819 7  88823369.84145  21691543.953                    21691551.305
 116979234.436 7  91152625.38844  22260387.992                    22260397.363
 104950686.123 8  81779880.51746  19971427.711                    19971436.027
 126734917.449 6  98754563.43842  24116855.406                    24116864.801
 118592878.792 7  92410165.49945  22567465.664                    22567473.781
 117989838.805 7  91940202.66545  22452721.133                    22452730.199
 119518188.099 7                  22743549.742
 11  7 26  0  2  0.0000000  0  9G10G17G28G09G04G20G02G27G01
 125148541.839 6  97518417.16343  23814974.148                    23814987.359
 111899128.893 7  87194221.31046  21293672.711                    21293680.363
 114035563.949 7  88858963.14245  21700235.703                    21700243.219
 116942897.555 7  91124310.94944  22253473.461                    22253482.754
 104927325.109 8  81761677.14446  19966982.625                    19966990.773
 126762059.223 6  98775712.84343  24122020.398                    24122029.277
 118508866.889 7  92344701.81245  22551479.266                    22551486.430
 117972617.286 7  91926783.29545  22449444.367                    22449453.328
 119430445.545 7                  22726852.164
 11  7 26  0  2 30.0000000  0  9G10G17G28G09G04G20G02G27G01
 125054207.913 6  97444910.45943  23797022.867                    23797035.641
 111928977.176 7  87217479.71846  21299352.547                    21299360.391
 114081611.252 7  88894844.11445  21708998.086                    21709005.922
 116907184.234 7  91096482.40744  22246677.547                    22246686.934
 104904538.592 8  81743921.43546  19962646.000                    19962654.523
 126789703.513 5  98797253.85743  24127281.375                    24127289.555
 118425124.255 7  92279447.91745  22535542.406                    22535550.680
 117955887.237 7  91913746.89945  22446260.664                    22446269.719
 119343000.092 7                  22710212.852
 11  7 26  0  3  0.0000000  0  9G10G17G28G09G04G20G02G27G01
 124959875.081 6  97371404.63843  23779072.266                    23779084.938
 111958927.557 7  87240817.67346  21305051.984                    21305060.031
 114128028.056 8  88931013.00145  21717830.805                    21717839.105
 116872095.356 7  91069140.44244  22240000.703                    22240009.758
 104882326.534 8  81726613.35646  19958418.914                    19958427.648
 126817850.084 6  98819186.21642  24132636.586                    24132645.629
 118341652.025 7  92214404.75045  22519658.680                    22519666.016
 117939648.514 7  91901093.34945  22443170.570                    22443179.621
 119255853.122 7                  22693628.781
 11  7 26  0  3 30.0000000  0  9G10G17G28G09G04G20G02G27G01
 124865546.522 6  97297902.09343  23761121.469                    23761134.023
 111988979.345 8  87264234.65246  21310770.508                    21310778.402
 114174814.689 7  88967470.06245  21726734.008                    21726742.453
 116837631.688 7  91042285.67244  22233442.133                    22233450.988
 104860688.616 8  81709752.64546  19954301.594                    19954310.418
 126846498.555 6  98841509.74443  24138088.367                    24138098.004
 118258451.679 7  92149573.42945  22503826.453                    22503833.859
 117923901.294 7  91888822.79145  22440173.531                    22440182.734
 119169006.722 7                  22677101.805
 11  7 26  0  4  0.0000000  0  9G10G17G28G09G04G20G02G27G01
 124771224.927 6  97224404.98743  23743172.719                    23743184.832
 112019132.148 8  87287730.34146  21316508.984                    21316516.410
 114221971.436 7  89004215.52845  21735708.258                    21735716.137
 116803794.199 7  91015918.81644  22227002.891                    22227011.891
 104839624.926 8  81693339.38446  19950292.977                    19950301.672
 126875648.378 6  98864223.92543  24143635.273                    24143644.973
 118175524.708 7  92084955.13245  22488044.867                    22488053.305
 117908645.600 7  91876935.21745  22437270.703                    22437279.594
 119082462.088 7                  22660633.633
 11  7 26  0  4 30.0000000  0  9G10G17G28G09G04G20G02G27G01
 124676913.749 6  97150915.99443  23725225.359                    23725238.113
 112049385.796 8  87311304.61446  21322265.367                    21322273.504
 114269498.529 7  89041249.57245  21744752.359                    21744760.488
 116770584.141 7  90990040.88244  22220683.563                    22220692.367
 104819135.874 8  81677373.89946  19946394.469                    19946403.168
 126905299.244 6  98887328.47343  24149277.953                    24149287.410
 118092872.782 7  92020551.16245  22472316.664                    22472325.094
 117893881.931 7  91865431.04245  22434461.055                    22434470.773
 118996221.128 7                  22644221.633
 11  7 26  0  5  0.0000000  0  9G10G17G28G09G04G20G02G27G01
 124582616.213 6  97077437.65243  23707280.813                    23707293.797
 112079739.857 7  87334957.12646  21328042.297                    21328050.109
 114317396.834 8  89078572.88545  21753867.297                    21753874.625
 116738002.772 7  90964652.81344  22214483.352                    22214492.703
 104799221.531 8  81661856.24146  19942604.688                    19942613.434
 126935451.145 6  98910823.45942  24155015.703                    24155024.598
 118010497.369 7  91956362.64645  22456641.820                    22456649.973
 117879610.685 7  91854310.57445  22431745.328                    22431754.289
 118910285.609 7                  22627868.430
 11  7 26  0  5 30.0000000  0  9G10G17G28G09G04G20G02G27G01
 124488335.121 6  97003972.09943  23689339.953                    23689352.523
 112110194.064 7  87358687.68746  21333836.945                    21333844.871
 114365665.817 8  89116185.04845  21763052.461                    21763059.930
 116706050.515 7  90939754.98244  22208403.492                    22208411.746
 104779881.611 8  81646786.19646  19938924.445                    19938932.957
 126966103.227 6  98934708.16643  24160848.313                    24160857.047
 117928399.796 7  91892390.63445  22441018.641                    22441026.379
 117865831.817 7  91843573.77145  22429123.320                    22429132.453
 118824657.234 7                  22611573.633
 11  7 26  0  6  0.0000000  0  9G10G17G28G09G04G20G02G27G01
 124394073.343 6  96930521.57643  23671403.406                    23671415.121
 112140747.259 7  87382495.36446  21339651.008                    21339658.926
 114414305.564 7  89154086.10245  21772307.953                    21772315.844
 116674728.173 7  90915347.99345  22202442.539                    22202452.113
 104761115.933 8  81632163.61446  19935353.516                    19935361.984
 126997255.024 6  98958982.26343  24166776.672                    24166785.746
 117846581.449 7  91828636.17345  22425449.836                    22425456.609
 117852545.069 7  91833220.44045  22426595.273                    22426604.801
 118739337.298 7                  22595338.141
 11  7 26  0  6 30.0000000  0  9G10G17G28G09G04G20G02G27G01
 124299834.355 6  96857088.85443  23653469.594                    23653481.605
 112171399.237 8  87406380.00846  21345484.367                    21345492.223
 114463316.280 7  89192276.24545  21781634.508                    21781642.711
 116644036.647 7  90891432.54244  22196602.031                    22196611.305
 104742924.205 8  81617988.26946  19931891.508                    19931900.535
 127028906.308 6  98983645.65242  24172799.594                    24172808.359
 117765043.627 7  91765100.31045  22409933.508                    22409940.926
 117839750.867 7  91823250.90445  22424160.156                    22424169.582
 118654327.702 7                  22579161.297
 11  7 26  0  7  0.0000000  0  9G10G17G28G09G04G20G02G27G01
 124205621.022 6  96783676.07643  23635541.453                    23635552.758
 112202150.050 8  87430341.65446  21351335.664                    21351343.527
 114512698.398 8  89230755.77145  21791031.555                    21791039.570
 116613977.068 7  90868009.53345  22190882.250                    22190891.078
 104725306.822 8  81604260.47046  19928539.281                    19928547.770
 127061056.556 6  99008697.83643  24178917.242                    24178926.469
 117683788.039 7  91701784.37345  22394470.820                    22394478.352
 117827449.360 7  91813665.29945  22421819.898                    22421828.375
 118569629.759 7                  22563043.984
 11  7 26  0  7 30.0000000  0  9G10G17G28G09G04G20G02G27G01
 124111436.287 6  96710285.60543  23617617.773                    23617629.984
 112232998.795 7  87454379.62946  21357205.867                    21357214.016
 114562451.366 8  89269524.28145  21800499.375                    21800507.828
 116584549.578 7  90845079.04245  22185282.664                    22185290.883
 104708263.122 8  81590979.68346  19925296.094                    19925304.441
 127093704.665 5  99034137.89243  24185130.172                    24185139.387
 117602815.717 7  91638689.14645  22379062.039                    22379069.281
 117815640.133 7  91804463.28545  22419572.711                    22419581.797
 118485244.824 7                  22546985.664
 11  7 26  0  8  0.0000000  0  9G10G17G28G09G04G20G02G27G01
 124017283.605 7  96636920.06644  23599700.859                    23599713.105
 112263945.582 8  87478493.99346  21363094.945                    21363103.348
 114612575.894 7  89308582.31245  21810037.875                    21810046.148
 116555755.641 7  90822642.24645  22179803.016                    22179811.445
 104691793.512 8  81578146.24646  19922162.195                    19922170.492
 127126851.044 6  99059966.23442  24191438.594                    24191447.004
 117522128.512 7  91575816.09445  22363707.711                    22363714.906
 117804323.775 7  91795645.31745  22417419.102                    22417428.551
 118401175.038 7                  22530987.914
 11  7 26  0  8 30.0000000  0  9G10G17G28G09G04G20G02G27G01
 123923166.165 7  96563581.97544  23581790.914                    23581802.805
 112294990.110 8  87502684.50946  21369002.500                    21369010.480
 114663071.959 7  89347929.86145  21819646.680                    21819654.797
 116527595.908 7  90800699.60444  22174443.820                    22174453.188
 104675897.759 8  81565759.97446  19919137.047                    19919145.320
 127160494.933 6  99086182.20443  24197840.063                    24197849.918
 117441727.937 7  91513166.38945  22348408.000                    22348415.574
 117793500.369 7  91787211.45845  22415359.703                    22415368.828
 118317422.073 7                  22515050.344
 11  7 26  0  9  0.0000000  0  9G10G17G28G09G04G20G02G27G01
 123829086.657 7  96490273.44943  23563888.016                    23563900.203
 112326131.301 7  87526950.35846  21374928.523                    21374936.645
 114713939.175 7  89387566.59745  21829326.313                    21829334.352
 116500070.481 7  90779251.22844  22169206.070                    22169215.113
 104660575.079 8  81553820.23446  19916221.117                    19916229.813
 127194635.298 6  99112785.11643  24204336.461                    24204346.047
 117361614.697 7  91450740.55945  22333163.203                    22333170.027
 117783169.377 7  91779161.32045  22413393.609                    22413402.398
 118233986.869 8                  22499172.938
 11  7 26  0  9 30.0000000  0  9G10G17G28G09G04G20G02G27G01
 123735048.571 7  96416997.20443  23545992.914                    23546004.480
 112357369.505 8  87551291.79646  21380873.211                    21380881.121
 114765178.332 7  89427493.16445  21839077.336                    21839085.141
 116473180.766 7  90758298.22345  22164089.258                    22164098.066
 104645825.959 8  81542327.43546  19913414.586                    19913423.078
 127229272.189 6  99139774.88043  24210927.867                    24210937.234
 117281790.872 7  91388540.25545  22317972.531                    22317979.820
 117773331.458 7  91771495.40045  22411521.281                    22411530.426
 118150871.789 7                  22483356.406
 11  7 26  0 10  0.0000000  0  9G10G17G28G09G04G20G02G27G01
 123641054.828 6  96343755.46043  23528106.656                    23528118.469
 112388703.639 7  87575707.98346  21386835.961                    21386843.699
 114816788.710 7  89467709.00145  21848898.047                    21848906.563
 116446926.709 7  90737840.51444  22159093.539                    22159102.215
 104631649.387 8  81531280.77846  19910716.898                    19910725.598
 127264404.350 6  99167150.57943  24217613.047                    24217621.781
 117202257.153 8  91326566.02145  22302838.109                    22302845.297
 117763985.716 7  91764212.96745  22409743.359                    22409752.141
 118068077.609 8                  22467601.750
 11  7 26  0 10 30.0000000  0  9G10G17G28G09G04G20G02G27G01
 123547108.477 6  96270550.72243  23510228.781                    23510240.629
 112420133.872 7  87600199.04446  21392816.680                    21392824.648
 114868770.726 7  89508214.42145  21858790.250                    21858798.094
 116421309.302 7  90717878.89244  22154218.977                    22154227.039
 104618045.384 8  81520680.27346  19908128.273                    19908136.555
 127300031.220 6  99194911.78442  24224393.852                    24224401.656
 117123015.351 8  91264819.25045  22287758.563                    22287766.051
 117755132.572 7  91757314.40445  22408058.336                    22408067.664
 117985605.613 7                  22451907.445
 11  7 26  0 11  0.0000000  0  9G10G17G28G09G04G20G02G27G01
 123453212.691 6  96197385.38443  23492361.234                    23492372.672
 112451659.480 8  87624764.43146  21398816.195                    21398823.816
 114921124.162 7  89549009.26545  21868752.898                    21868760.879
 116396328.789 7  90698413.56044  22149464.969                    22149473.898
 104605013.611 8  81510525.66246  19905648.391                    19905656.750
 127336152.298 6  99223058.03842  24231267.906                    24231275.504
 117044066.607 8  91203300.82845  22272735.477                    22272742.809
 117746772.036 7  91750799.68545  22406467.383                    22406476.676
 117903458.042 7                  22436274.984
 11  7 26  0 11 30.0000000  0  9G10G17G28G09G04G20G02G27G01
 123359370.765 6  96124261.99643  23474503.508                    23474514.770
 112483280.341 8  87649404.04146  21404832.867                    21404840.945
 114973849.083 7  89590093.54645  21878786.055                    21878794.023
 116371985.913 7  90679445.05744  22144833.086                    22144841.129
 104592553.598 8  81500816.56746  19903277.148                    19903285.531
 127372766.591 6  99251588.64443  24238234.180                    24238243.547
 116965412.132 7  91142011.71945  22257767.336                    22257775.016
 117738903.862 7  91744668.63445  22404970.570                    22404978.680
 117821635.994 7                  22420704.969
 11  7 26  0 12  0.0000000  0  9G10G17G28G09G04G20G02G27G01
 123265586.139 6  96051183.29043  23456656.227                    23456668.172
 112514996.147 8  87674117.63346  21410868.547                    21410876.629
 115026945.654 7  89631467.44145  21888889.984                    21888898.094
 116348281.510 7  90660974.08545  22140321.664                    22140330.672
 104580665.558 8  81491553.16346  19901014.680                    19901023.066
 127409874.067 6  99280503.54542  24245295.211                    24245305.066
 116887053.771 7  91080953.34745  22242856.625                    22242864.246
 117731528.097 7  91738921.28345  22403566.516                    22403575.383
 117740141.315 7                  22405196.906
 11  7 26  0 12 30.0000000  0  9G10G17G28G09G04G20G02G27G01
 123171861.400 6  95978151.21043  23438821.031                    23438832.609
 112546806.449 8  87698904.86046  21416921.711                    21416929.551
 115080413.406 7  89673130.56745  21899064.570                    21899072.211
 116325215.478 7  90643000.53244  22135932.516                    22135941.160
 104569348.403 8  81482734.60646  19898861.008                    19898869.484
 127447473.616 6  99309801.85343  24252449.430                    24252460.496
 116808992.234 7  91020126.25345  22228002.023                    22228009.035
 117724644.073 7  91733557.11144  22402256.672                    22402265.438
 117658974.946 8                  22389751.172
 11  7 26  0 13  0.0000000  0  9G10G17G28G09G04G20G02G27G01
 123078200.160 6  95905168.62643  23420997.031                    23421009.348
 112578710.850 7  87723765.40246  21422993.164                    21423001.133
 115134252.479 7  89715083.01845  21909309.320                    21909317.473
 116302788.556 7  90625524.97345  22131664.797                    22131673.848
 104558601.998 8  81474360.79746  19896816.391                    19896824.660
 127485564.306 6  99339482.85943  24259699.055                    24259708.730
 116731228.931 7  90959531.54945  22213203.750                    22213211.281
 117718251.735 7  91728576.07344  22401040.328                    22401049.340
 117578138.859 7                  22374368.727
 11  7 26  0 13 30.0000000  0  9G10G17G28G09G04G20G02G27G01
 122984605.860 6  95832238.18043  23403186.688                    23403198.852
 112610709.884 8  87748699.67946  21429082.359                    21429090.188
 115188463.577 7  89757325.36645  21919626.070                    21919634.012
 116281001.978 7  90608548.39845  22127519.094                    22127528.004
 104548426.676 8  81466431.98546  19894880.016                    19894888.410
 127524146.024 6  99369546.54743  24267040.500                    24267049.684
 116653765.772 7  90899170.71945  22198463.070                    22198470.629
 117712351.611 7  91723978.57845  22399917.586                    22399926.320
 117497634.901 7                  22359049.156
 11  7 26  0 14  0.0000000  0  9G10G17G28G09G04G20G02G27G01
 122891080.944 6  95759361.79343  23385390.344                    23385401.086
 112642802.455 8  87773706.84545  21435189.281                    21435197.410
 115243045.657 7  89799856.79845  21930012.773                    21930020.875
 116259854.935 7  90592070.15144  22123494.695                    22123503.969
 104538820.993 8  81458947.05346  19893052.016                    19893060.422
 127563217.595 6  99399991.89543  24274475.523                    24274484.844
 116576603.239 7  90839044.13645  22183779.047                    22183786.973
 117706942.562 7  91719763.75645  22398888.461                    22398896.730
 117417463.671 7                  22343792.930
 11  7 26  0 14 30.0000000  0  9G10G17G28G09G04G20G02G27G01
 122797629.097 6  95686542.35243  23367606.484                    23367617.805
 112674988.526 8  87798786.87946  21441314.383                    21441322.105
 115297998.939 7  89842677.48445  21940469.945                    21940477.684
 116239348.617 7  90576091.18744  22119592.570                    22119601.793
 104529784.841 8  81451905.91346  19891332.406                    19891340.875
 127602777.962 6  99430818.15643  24282003.742                    24282013.145
 116499743.108 7  90779153.21845  22169153.508                    22169160.887
 117702024.757 7  91715931.71845  22397952.328                    22397961.355
 117337627.192 7                  22328601.047
 11  7 26  0 15  0.0000000  0  9G10G17G28G09G04G20G02G27G01
 122704253.033 6  95613781.96044  23349837.961                    23349849.270
 112707267.521 7  87823939.32246  21447456.313                    21447464.652
 115353323.086 7  89885787.14945  21950998.047                    21951005.945
 116219482.578 7  90560611.12045  22115812.242                    22115821.336
 104521317.229 8  81445307.79546  19889721.047                    19889729.148
 127642826.397 6  99462024.69443  24289624.938                    24289634.852
 116423186.348 7  90719498.67545  22154585.039                    22154592.449
 117697597.706 7  91712482.07345  22397109.547                    22397118.922
 117258126.394 7                  22313471.969
 11  7 26  0 15 30.0000000  0  9G10G17G28G09G04G20G02G27G01
 122610956.202 6  95541083.28544  23332084.094                    23332094.922
 112739639.435 7  87849164.17046  21453616.828                    21453624.914
 115409017.835 7  89929185.60645  21961596.180                    21961604.273
 116200257.522 7  90545630.54145  22112153.703                    22112163.195
 104513418.225 8  81439152.74246  19888218.328                    19888226.621
 127683362.285 6  99493611.09243  24297338.594                    24297347.945
 116346934.476 7  90660081.70345  22140074.625                    22140082.230
 117693661.370 7  91709414.80945  22396361.508                    22396370.281
 117178962.721 7                  22298407.430
 11  7 26  0 16  0.0000000  0  9G10G17G28G09G04G20G02G27G01
 122517742.165 6  95468449.12044  23314345.719                    23314357.207
 112772104.238 8  87874461.40146  21459794.602                    21459802.883
 115465083.800 7  89972873.30545  21972265.367                    21972273.090
 116181674.315 7  90531150.10244  22108617.281                    22108626.375
 104506087.600 8  81433440.58846  19886822.789                    19886831.809
 127724384.843 6  99525576.70743  24305144.773                    24305154.445
 116270988.954 7  90600903.44745  22125622.570                    22125630.055
 117690215.642 7  91706729.84245  22395705.219                    22395714.352
 117100138.154 7                  22283407.758
 11  7 26  0 16 30.0000000  0  9G10G17G28G09G04G20G02G27G01
 122424613.764 6  95395881.70544  23296623.695                    23296634.625
 112804661.377 7  87899830.56945  21465989.945                    21465998.016
 115521520.398 7  90016849.81345  21983005.070                    21983013.113
 116163732.694 7  90517169.59144  22105203.367                    22105212.570
 104499324.144 8  81428170.37246  19885535.742                    19885544.051
 127765892.890 6  99557920.59543  24313043.563                    24313052.633
 116195350.450 7  90541964.42045  22111228.641                    22111236.098
 117687259.594 7  91704426.43445  22395142.586                    22395151.730
 117021653.628 7                  22268472.602
 11  7 26  0 17  0.0000000  0  9G10G17G28G09G04G20G02G27G01
 122331574.378 6  95323383.61244  23278919.289                    23278930.184
 112837310.466 8  87925271.38746  21472203.430                    21472211.074
 115578327.516 7  90061115.03745  21993815.031                    21993823.363
 116146433.027 7  90503689.32845  22101911.711                    22101920.422
 104493127.550 8  81423341.87646  19884356.695                    19884365.250
 127807885.546 6  99590642.12143  24321034.555                    24321043.930
 116120020.429 7  90483265.77445  22096894.148                    22096901.391
 117684793.226 7  91702504.61645  22394672.922                    22394682.129
 116943510.622 7                  22253602.055
 11  7 26  0 17 30.0000000  0  9G10G17G28G09G04G20G02G27G01
 122238626.922 6  95250957.16843  23261231.813                    23261242.832
 112870051.289 7  87950783.68546  21478433.297                    21478441.262
 115635504.530 7  90105668.51545  22004695.352                    22004704.012
 116129775.251 7  90490709.24644  22098741.813                    22098750.613
 104487496.898 8  81418954.36546  19883285.391                    19883293.770
 127850361.912 6  99623740.56043  24329117.664                    24329127.293
 116044999.837 7  90424808.24545  22082618.531                    22082625.793
 117682816.127 7  91700964.03045  22394297.820                    22394306.336
 116865710.418 8                  22238797.625
 11  7 26  0 18  0.0000000  0  9G10G17G28G09G04G20G02G27G01
 122145774.780 6  95178604.96543  23243562.211                    23243572.566
 112902883.686 7  87976367.35846  21484681.672                    21484689.641
 115693051.388 7  90150510.16845  22015646.156                    22015655.000
 116113759.229 7  90478229.23844  22095693.445                    22095703.086
 104482431.670 8  81415007.44646  19882321.406                    19882329.691
 127893321.051 6  99657215.21943  24337292.891                    24337301.910
 115970290.043 8  90366592.88845  22068401.500                    22068408.578
 117681327.940 7  91699804.42045  22394013.695                    22394023.102
 116788254.309 8                  22224057.891
 11  7 26  0 18 30.0000000  0  9G10G17G28G09G04G20G02G27G01
 122053021.813 6  95106330.06443  23225911.234                    23225922.340
 112935808.051 8  88002022.68346  21490946.156                    21490954.379
 115750968.526 7  90195640.36045  22026667.414                    22026676.137
 116098385.809 7  90466249.96845  22092767.852                    22092777.609
 104477931.658 8  81411500.94546  19881465.508                    19881473.465
 127936762.501 6  99691065.64743  24345559.109                    24345568.559
 115895892.620 8  90308620.94945  22054244.352                    22054251.164
 117680328.866 7  91699025.91345  22393823.102                    22393832.609
 116711144.165 8                  22209384.422
 11  7 26  0 19  0.0000000  0  9G10G17G28G09G04G20G02G27G01
 121960370.180 6  95034134.08043  23208280.680                    23208290.980
 112968823.159 7  88027748.71946  21497229.172                    21497237.289
 115809254.846 7  90241058.22845  22037759.023                    22037767.281
 116083654.187 7  90454770.82245  22089964.414                    22089973.660
 104473995.059 8  81408433.47446  19880715.867                    19880724.188
 127980684.041 6  99725290.25343  24353917.570                    24353925.543
 115821807.979 8  90250892.71845  22040146.383                    22040153.320
 117679817.280 7  91698627.28245  22393726.078                    22393735.332
 116634380.349 8                  22194776.555
 11  7 26  0 19 30.0000000  0  9G10G17G28G09G04G20G02G27G01
 121867823.954 6  94962020.27643  23190669.008                    23190680.375
 113001929.413 7  88053545.77646  21503529.492                    21503537.352
 115867910.813 7  90286764.13645  22048920.992                    22048929.258
 116069565.402 7  90443792.59145  22087283.750                    22087293.031
 104470622.356 8  81405805.38846  19880074.422                    19880082.758
 128025085.561 6  99759888.82543  24362366.320                    24362375.504
 115748038.021 7  90193409.70745  22026108.078                    22026115.680
 117679793.685 7  91698608.90145  22393722.070                    22393730.402
 116557965.041 7                  22180235.313
 11  7 26  0 20  0.0000000  0  9G10G17G28G09G04G20G02G27G01
 121775385.967 6  94889990.78644  23173078.406                    23173090.258
 113035126.209 7  88079413.39546  21509845.852                    21509854.555
 115926935.543 7  90332757.37345  22060152.938                    22060161.547
 116056118.914 7  90433314.85345  22084725.320                    22084734.230
 104467812.086 8  81403615.57546  19879539.484                    19879547.891
 128069966.019 6  99794860.61443  24370906.203                    24370916.160
 115674583.385 8  90136172.39645  22012130.219                    22012137.359
 117680257.116 7  91698970.01245  22393810.297                    22393818.578
 116481899.032 8                  22165760.031
 11  7 26  0 20 30.0000000  0 10G10G17G28G12G09G04G20G02G27G01
 121683059.512 6  94818048.22344  23155509.836                    23155520.563
 113068413.342 8  88105351.39146  21516181.039                    21516188.688
 115986329.026 7  90379037.97045  22071455.617                    22071463.559
 129565320.78816 100960056.06852  24655468.484                    24655477.262
 116043314.762 7  90423337.63645  22082288.180                    22082297.992
 104465563.770 8  81401863.62346  19879111.531                    19879119.805
 128115324.181 6  99830204.59043  24379538.430                    24379548.020
 115601445.376 8  90079181.80545  21998212.023                    21998219.473
 117681207.226 7  91699710.33945  22393990.609                    22393999.887
 116406183.606 8                  22151352.344
 11  7 26  0 21  0.0000000  0 10G10G17G28G12G09G04G20G02G27G01
 121590849.264 6  94746196.23444  23137963.094                    23137973.785
 113101792.366 7  88131361.02045  21522532.367                    21522540.074
 116046092.153 7  90425606.59245  22082827.539                    22082836.113
 129468443.735 6 100884567.50643  24637032.813                    24637042.844
 116031154.215 7  90413861.93245  22079974.406                    22079983.828
 104463877.771 8  81400549.85746  19878790.867                    19878798.957
 128161160.050 6  99865920.86143  24388261.211                    24388270.016
 115528626.357 8  90022439.78045  21984355.523                    21984362.305
 117682644.659 7  91700830.41445  22394264.266                    22394273.656
 116330821.409 8                  22137011.141
 11  7 26  0 21 30.0000000  0 10G10G17G28G12G09G04G20G02G27G01
 121498756.960 6  94674436.12044  23120438.086                    23120449.207
 113135261.317 7  88157440.69746  21528901.477                    21528909.152
 116106223.376 7  90472462.02745  22094270.695                    22094278.906
 129371544.797 6 100809061.74042  24618593.469                    24618602.539
 116019635.773 7  90404886.58145  22077782.367                    22077791.910
 104462751.901 8  81399672.54246  19878576.828                    19878585.070
 128207471.207 6  99902007.45442  24397074.086                    24397083.477
 115456126.311 7  89965946.30345  21970559.102                    21970565.715
 117684567.482 7  91702328.69645  22394630.609                    22394639.285
 116255812.470 8                  22122737.266
 11  7 26  0 22  0.0000000  0 10G10G17G28G12G09G04G20G02G27G01
 121406786.584 6  94602771.01044  23102937.055                    23102947.813
 113168820.897 7  88183591.00346  21535287.586                    21535295.348
 116166722.965 7  90519604.50645  22105783.414                    22105791.898
 129274625.906 6 100733540.57543  24600151.234                    24600160.355
 116008760.163 7  90396412.11845  22075712.695                    22075721.938
 104462186.335 8  81399231.83546  19878469.133                    19878477.363
 128254257.618 6  99938464.35042  24405976.383                    24405986.141
 115383946.712 7  89909702.51645  21956823.875                    21956830.836
 117686976.027 7  91704205.48445  22395088.734                    22395097.801
 116181158.663 8                  22108531.320
 11  7 26  0 22 30.0000000  0 10G10G17G28G12G09G04G20G02G27G01
 121314940.311 6  94531202.59544  23085459.234                    23085470.250
 113202469.703 7  88209810.84346  21541690.922                    21541698.703
 116227589.278 7  90567032.74845  22117366.109                    22117374.129
 129177687.834 6 100658004.42443  24581704.594                    24581713.957
 115998526.337 7  90388437.74845  22073765.164                    22073774.516
 104462178.788 8  81399225.94446  19878467.383                    19878475.973
 128301516.936 6  99975289.77942  24414970.305                    24414979.316
 115312087.693 8  89853708.53545  21943148.938                    21943156.379
 117689868.493 7  91706459.33245  22395638.828                    22395648.055
 116106860.140 8                  22094392.836
 11  7 26  0 23  0.0000000  0 10G10G17G28G12G09G04G20G02G27G01
 121223221.694 6  94459733.67044  23068005.742                    23068016.082
 113236207.829 7  88236100.28446  21548111.563                    21548119.035
 116288822.476 7  90614746.84845  22129018.359                    22129026.422
 129080732.823 7 100582455.12443  24563254.445                    24563263.711
 115988933.989 7  90380963.23545  22071940.281                    22071948.906
 104462728.641 8  81399654.39846  19878572.523                    19878580.332
 128349247.728 6 100012482.60742  24424053.078                    24424061.953
 115240550.469 8  89797965.31545  21929535.945                    21929543.293
 117693244.253 7  91709089.77245  22396281.500                    22396290.785
 116032918.279 8                  22080321.414
 11  7 26  0 23 30.0000000  0 10G10G17G28G12G09G04G20G02G27G01
 121131634.482 6  94388367.14344  23050576.484                    23050587.422
 113270035.864 7  88262459.78246  21554548.109                    21554556.391
 116350422.765 7  90662747.00545  22140740.688                    22140748.895
 128983762.775 6 100506894.08143  24544801.031                    24544811.020
 115979983.967 7  90373989.20645  22070236.602                    22070245.977
 104463836.003 8  81400517.27446  19878783.172                    19878791.238
 128397449.855 6 100050042.72142  24433225.617                    24433234.324
 115169336.909 8  89742474.28045  21915984.656                    21915991.496
 117697103.639 7  91712097.05244  22397015.547                    22397024.844
 115959334.988 8                  22066319.750
 11  7 26  0 24  0.0000000  0 10G10G17G28G12G09G04G20G02G27G01
 121040181.582 6  94317105.26344  23033172.625                    23033184.926
 113303953.315 7  88288888.95546  21561002.047                    21561010.746
 116412389.235 7  90711032.49445  22152532.578                    22152540.066
 128886778.893 6 100431322.27843  24526345.594                    24526355.605
 115971675.363 7  90367514.97645  22068656.109                    22068664.934
 104465499.308 8  81401813.35646  19879099.367                    19879107.891
 128446122.079 6 100087969.13842  24442486.477                    24442496.453
 115098447.531 8  89687235.84645  21902494.852                    21902501.859
 117701445.602 7  91715480.37745  22397841.859                    22397851.430
 115886111.261 8                  22052385.602
 11  7 26  0 24 30.0000000  0 10G10G17G28G12G09G04G20G02G27G01
 120948866.745 6  94245950.96544  23015796.563                    23015807.285
 113337960.263 7  88315387.86546  21567474.109                    21567481.809
 116474721.903 7  90759603.33244  22164393.820                    22164401.867
 128789783.245 6 100355741.29343  24507888.273                    24507898.371
 115964008.048 7  90361540.45345  22067196.273                    22067205.730
 104467717.908 8  81403542.13946  19879521.555                    19879530.172
 128495263.118 6 100126260.86742  24451837.617                    24451848.074
 115027883.846 8  89632251.21545  21889066.922                    21889073.609
 117706269.533 7  91719239.25145  22398760.211                    22398769.277
 115813248.231 8                  22038520.023
 11  7 26  0 25  0.0000000  0 10G10G17G28G12G09G04G20G02G27G01
 120857692.752 6  94174906.39644  22998447.523                    22998457.836
 113372055.565 7  88341955.63045  21573962.031                    21573969.855
 116537419.448 7  90808458.48844  22176325.242                    22176333.047
 128692776.980 6 100280152.06643  24489429.430                    24489438.137
 115956981.076 7  90356064.91045  22065859.578                    22065868.422
 104470489.866 8  81405702.11946  19880048.992                    19880057.418
 128544871.043 6 100164916.35042  24461279.398                    24461288.133
 114957646.078 7  89577520.52445  21875701.000                    21875708.578
 117711574.143 7  91723372.67745  22399769.961                    22399778.793
 115740746.567 7                  22024723.156
 11  7 26  0 25 30.0000000  0 10G10G17G28G12G09G04G20G02G27G01
 120766663.382 7  94103974.54144  22981124.977                    22981134.988
 113406240.179 7  88368592.97746  21580466.828                    21580475.160
 116600482.120 7  90857598.13844  22188325.148                    22188333.324
 128595762.616 6 100204556.54443  24470966.781                    24470977.254
 115950595.061 7  90351088.80245  22064644.375                    22064653.289
 104473815.482 8  81408293.51546  19880682.055                    19880690.270
 128594945.212 5 100203935.17542  24470807.398                    24470816.852
 114887735.866 8  89523045.09645  21862397.273                    21862404.918
 117717359.472 7  91727880.70245  22400870.531                    22400879.426
 115668608.072 8                  22010995.672
 11  7 26  0 26  0.0000000  0 10G10G17G28G12G09G04G20G02G27G01
 120675781.528 7  94033157.58043  22963830.484                    22963840.613
 113440513.633 7  88395299.56345  21586988.969                    21586997.555
 116663909.453 7  90907021.94945  22200395.258                    22200403.656
 128498741.010 6 100128955.40043  24452504.773                    24452514.301
 115944849.591 7  90346611.79845  22063550.859                    22063560.074
 104477693.001 8  81411314.97246  19881419.578                    19881427.840
 128645484.255 6 100243316.23442  24480424.117                    24480434.531
 114818154.188 8  89468825.65645  21849156.672                    21849163.555
 117723624.617 7  91732762.60645  22402062.578                    22402072.043
 115596833.659 8                  21997337.711
 11  7 26  0 26 30.0000000  0 10G10G17G28G12G09G04G20G02G27G01
 120585050.348 7  93962458.04744  22946564.461                    22946574.703
 113474875.676 7  88422075.16746  21593527.953                    21593536.711
 116727700.835 7  90956729.43744  22212533.836                    22212542.496
 128401713.909 6 100053349.94343  24434040.875                    24434050.406
 115939743.897 7  90342633.33245  22062579.305                    22062588.238
 104482121.623 8  81414765.85846  19882262.750                    19882270.816
 128696486.887 6 100283058.57642  24490129.766                    24490139.059
 114748901.560 8  89414862.61145  21835978.219                    21835984.758
 117730368.535 7  91738017.57445  22403346.242                    22403355.246
 115525424.335 8                  21983748.633
 11  7 26  0 27  0.0000000  0 10G10G17G28G12G09G04G20G02G27G01
 120494473.938 7  93891879.12344  22929328.523                    22929338.922
 113509326.696 7  88448920.12946  21600083.867                    21600092.332
 116791856.039 7  91006720.41244  22224742.367                    22224751.125
 128304683.491 6  99977741.96143  24415576.945                    24415586.125
 115935277.957 7  90339153.38344  22061729.367                    22061738.512
 104487100.529 8  81418645.54146  19883210.063                    19883217.922
 128747952.085 6 100323161.27343  24499924.563                    24499932.758
 114679979.609 7  89361157.24045  21822862.531                    21822869.160
 117737590.775 7  91743645.27345  22404720.141                    22404730.133
 115454381.427 8                  21970229.453
 11  7 26  0 27 30.0000000  0 10G10G17G28G12G09G04G20G02G27G01
 120404055.016 7  93821422.90444  22912122.258                    22912132.223
 113543866.141 7  88475833.97146  21606656.500                    21606664.863
 116856374.405 7  91056994.37845  22237020.336                    22237028.535
 128207651.492 6  99902132.71543  24397111.000                    24397121.301
 115931450.959 7  90336171.30545  22061001.078                    22061009.973
 104492628.419 8  81422953.00646  19884262.227                    19884270.500
 128799878.080 6 100363623.10043  24509805.688                    24509813.672
 114611389.281 7  89307710.28245  21809810.164                    21809817.082
 117745290.442 7  91749644.98445  22406185.531                    22406194.613
 115383706.132 7                  21956780.484
 11  7 26  0 28  0.0000000  0 10G10G17G28G12G09G04G20G02G27G01
 120313796.997 7  93751092.07544  22894946.766                    22894956.699
 113578493.887 7  88502816.62145  21613246.141                    21613253.875
 116921255.397 7  91107550.92145  22249367.313                    22249376.313
 128110619.381 6  99826523.36843  24378647.055                    24378657.156
 115928262.369 7  90333686.68245  22060394.508                    22060403.809
 104498704.271 8  81427687.45046  19885417.766                    19885425.977
 128852263.670 6 100404443.04843  24519773.859                    24519782.570
 114543131.368 8  89254522.35345  21796821.156                    21796828.266
 117753466.832 7  91756016.17545  22407741.445                    22407750.922
 115313399.287 8                  21943401.539
 11  7 26  0 28 30.0000000  0 10G10G17G28G12G09G04G20G02G27G01
 120223703.357 7  93680889.33944  22877802.148                    22877812.543
 113613210.458 7  88529868.48846  21619852.227                    21619860.406
 116986498.844 7  91158389.89344  22261782.172                    22261790.965
 128013589.589 6  99750915.80743  24360183.367                    24360192.500
 115925712.330 7  90331699.62745  22059909.305                    22059918.602
 104505327.417 8  81432848.36146  19886677.992                    19886686.633
 128905107.922 6 100445620.34043  24529828.805                    24529838.852
 114475206.948 8  89201594.29645  21783895.383                    21783902.711
 117762119.345 7  91762758.37745  22409388.039                    22409397.301
 115243462.287 8                  21930092.625
 11  7 26  0 29  0.0000000  0 10G10G17G28G12G09G04G20G02G27G01
 120133777.035 7  93610816.98344  22860689.430                    22860700.504
 113648015.107 7  88556988.97246  21626475.789                    21626483.406
 117052103.618 7  91209510.43245  22274266.672                    22274275.082
 127916563.059 6  99675310.82443  24341719.094                    24341728.926
 115923799.810 7  90330209.32845  22059545.563                    22059554.793
 104512495.860 8  81438434.17846  19888042.578                    19888050.313
 128958408.864 6 100487153.56642  24539971.977                    24539981.867
 114407616.604 7  89148926.55745  21771033.523                    21771040.609
 117771246.511 7  91769870.43145  22411125.328                    22411134.313
 115173895.733 8                  21916854.703
 11  7 26  0 29 30.0000000  0 10G10G17G28G12G09G04G20G02G27G01
 120044021.843 7  93540877.99144  22843609.695                    22843620.379
 113682908.189 7  88584178.35246  21633115.172                    21633123.266
 117118069.575 7  91260912.41745  22286819.180                    22286827.484
 127819541.996 6  99599710.07043  24323256.180                    24323266.570
 115922524.588 7  90329215.63545  22059302.859                    22059311.961
 104520209.164 8  81444444.56146  19889510.141                    19889518.316
 129012165.552 6 100529041.86843  24550201.750                    24550210.918
 114340361.744 7  89096520.23545  21758235.031                    21758242.141
 117780847.969 7  91777352.08145  22412952.055                    22412961.320
 115104701.331 8                  21903687.578
 11  7 26  0 30  0.0000000  0 10G10G17G28G12G09G04G20G02G27G01
 119954440.758 6  93471074.68644  22826562.492                    22826573.637
 113717889.429 7  88611436.44945  21639772.297                    21639779.750
 117184395.861 7  91312595.17845  22299441.055                    22299449.234
 127722527.984 6  99524114.85043  24304795.195                    24304804.910
 115921885.951 7  90328717.98045  22059180.914                    22059190.430
 104528465.856 8  81450878.38646  19891081.375                    19891089.785
 129066376.359 6 100571284.04743  24560517.758                    24560526.844
 114273443.008 7  89044375.82146  21745501.414                    21745508.039
 117790922.583 6  91785202.41945  22414869.430                    22414878.086
 115035879.594 7                  21890590.914
 11  7 26  0 30 30.0000000  0 10G10G17G28G12G09G04G20G02G27G01
 119865037.436 7  93401409.87944  22809549.695                    22809560.828
 113752958.962 7  88638763.34745  21646445.563                    21646453.871
 117251082.412 7  91364558.64844  22312131.305                    22312139.910
 127625523.079 6  99448526.63443  24286336.398                    24286345.141
 115921883.527 7  90328716.07645  22059180.531                    22059189.809
 104537265.095 8  81457734.95146  19892756.047                    19892764.027
 129121039.894 6 100613879.02943  24570919.680                    24570928.566
 114206861.352 8  88992494.07545  21732831.023                    21732837.816
 117801469.618 7  91793420.86945  22416876.680                    22416885.680
 114967431.924 8                  21877565.859
 11  7 26  0 31  0.0000000  0 10G10G17G28G12G09G04G20G02G27G01
 119775815.914 6  93331886.72744  22792571.891                    22792581.879
 113788117.963 7  88666159.94446  21653136.180                    21653144.090
 117318129.448 7  91416803.04844  22324889.844                    22324898.051
 127528529.819 6  99372947.48143  24267878.563                    24267887.875
 115922517.443 7  90329210.02945  22059301.297                    22059310.734
 104546606.577 8  81465014.05146  19894533.461                    19894541.621
 129176155.901 6 100656826.56743  24581407.977                    24581417.438
 114140619.027 7  88940876.72845  21720225.305                    21720232.105
 117812489.045 7  91802007.43845  22418973.156                    22418982.027
 114899360.340 7                  21864611.922
 11  7 26  0 31 30.0000000  0  9G10G17G28G12G09G04G02G27G01
 119686778.821 7  93262507.27444  22775627.766                    22775638.680
 113823365.286 7  88693625.36945  21659843.813                    21659851.527
 117385535.289 7  91469327.02844  22337716.844                    22337725.305
 127431549.411 6  99297378.32243  24249423.461                    24249433.227
 115923786.203 7  90330198.66645  22059542.555                    22059552.008
 104556488.076 8  81472713.94046  19896413.945                    19896421.816
 114074715.807 7  88889523.63346  21707684.508                    21707691.336
 117823979.116 7  91810960.73445  22421159.492                    22421169.074
 114831664.924 8                  21851730.188
 11  7 26  0 32  0.0000000  0  9G10G17G28G12G09G04G02G27G01
 119597929.434 7  93193274.08644  22758720.867                    22758731.301
 113858700.974 7  88721159.64146  21666567.359                    21666575.816
 117453299.547 7  91522130.29944  22350611.969                    22350620.797
 127334583.601 6  99221820.53743  24230971.703                    24230982.207
 115925689.061 7  90331681.40645  22059904.672                    22059914.133
 104566908.479 8  81480833.75246  19898396.648                    19898404.559
 114009152.406 7  88838435.32645  21695208.063                    21695215.129
 117835938.871 7  91820280.02245  22423435.781                    22423444.527
 114764346.445 8                  21838919.719
 11  7 26  0 32 30.0000000  0  9G10G17G28G12G09G04G02G27G01
 119509270.672 6  93124189.44044  22741849.539                    22741860.133
 113894124.449 7  88748762.32145  21673308.398                    21673316.828
 117521421.114 7  91575211.98944  22363574.844                    22363583.586
 127237633.802 6  99146275.19643  24212522.836                    24212532.789
 115928224.843 7  90333657.32245  22060387.555                    22060396.449
 104577866.018 8  81489372.11046  19900481.719                    19900489.953
 113943929.455 8  88787612.31445  21682796.469                    21682803.059
 117848366.942 7  91829964.23745  22425800.609                    22425809.898
 114697405.838 8                  21826181.102
 11  7 26  0 33  0.0000000  0  9G10G17G28G12G09G04G02G27G01
 119420805.472 6  93055255.61444  22725014.836                    22725025.711
 113929635.798 7  88776433.47045  21680066.469                    21680074.590
 117589899.184 7  91628571.46544  22376605.891                    22376614.320
 127140701.702 6  99070743.69343  24194078.133                    24194087.363
 115931392.789 7  90336125.85545  22060990.242                    22060999.742
 104589359.210 8  81498327.86846  19902669.148                    19902677.270
 113879047.753 8  88737055.20646  21670450.109                    21670456.777
 117861262.134 7  91840012.42745  22428254.617                    22428264.223
 114630843.680 8                  21813514.859
 11  7 26  0 33 30.0000000  0  9G10G17G28G12G09G04G02G27G01
 119332537.507 7  92986475.45444  22708218.539                    22708228.711
 113965234.933 7  88804173.03345  21686840.883                    21686848.324
 117658733.186 7  91682208.31044  22389704.438                    22389713.164
 127043789.708 6  98995227.83343  24175636.219                    24175644.789
 115935192.180 7  90339086.40045  22061713.156                    22061722.508
 104601387.120 8  81507700.26946  19904957.531                    19904965.863
 113814508.178 8  88686764.69246  21658168.586                    21658175.105
 117874623.555 7  91850423.92745  22430796.781                    22430806.852
 114564661.180 8                  21800920.938
 11  7 26  0 34  0.0000000  0  9G10G17G28G12G09G04G02G27G01
 119244470.648 7  92917851.99444  22691459.633                    22691469.344
 114000922.103 8  88831981.19145  21693631.914                    21693639.730
 117727922.677 7  91736122.15144  22402870.781                    22402878.973
 126946899.483 6  98919728.93443  24157198.688                    24157207.797
 115939622.356 7  90342538.49245  22062556.273                    22062565.352
 104613948.607 8  81517488.46446  19907347.922                    19907356.090
 113750311.751 8  88636741.57445  21645952.672                    21645958.938
 117888450.340 7  91861198.03545  22433428.000                    22433437.285
 114498859.493 8                  21788399.180
 11  7 26  0 34 30.0000000  0  9G10G17G28G12G09G04G02G27G01
 119156607.640 7  92849387.39844  22674740.047                    22674749.867
 114036697.585 8  88859858.16545  21700439.867                    21700447.391
 117797466.535 7  91790312.12544  22416104.883                    22416112.816
 126850032.696 6  98844248.34944  24138765.492                    24138775.102
 115944682.294 7  90346481.30745  22063519.469                    22063528.563
 104627042.147 8  81527691.23046  19909839.992                    19909847.965
 113686459.337 8  88586986.51845  21633801.656                    21633807.969
 117902741.281 7  91872333.81445  22436147.578                    22436156.707
 114433439.225 8                  21775950.398
 11  7 26  0 35  0.0000000  0  9G10G17G28G12G09G04G02G27G01
 119068952.253 7  92781084.58144  22658059.719                    22658070.000
 114072560.870 7  88887803.56845  21707263.945                    21707272.453
 117867364.306 7  91844777.88544  22429405.813                    22429414.121
 126753191.439 6  98768787.70044  24120336.977                    24120346.703
 115950371.050 7  90350914.09845  22064601.555                    22064611.461
 104640666.251 8  81538307.44346  19912432.078                    19912440.363
 113622951.384 7  88537499.86345  21621716.086                    21621722.227
 117917495.367 7  91883830.49145  22438955.188                    22438964.555
 114368401.236 7                  21763573.508
 11  7 26  0 35 30.0000000  0  9G10G17G28G12G09G04G02G27G01
 118981507.671 7  92712946.03744  22641419.086                    22641428.660
 114108512.067 7  88915817.47145  21714105.273                    21714113.668
 117937615.402 7  91899518.94844  22442773.914                    22442783.031
 126656377.688 6  98693348.45744  24101914.125                    24101923.344
 115956687.748 7  90355836.19445  22065804.070                    22065812.930
 104654819.533 8  81549335.98846  19915125.820                    19915133.684
 113559788.992 8  88488282.48345  21609696.719                    21609703.602
 117932711.503 7  91895687.20445  22441850.844                    22441859.945
 114303746.697 8                  21751270.391
 11  7 26  0 36  0.0000000  0  9G10G17G28G12G09G04G02G27G01
 118894276.965 7  92644974.13244  22624819.828                    22624830.016
 114144551.192 7  88943899.88945  21720963.352                    21720971.566
 118008219.003 7  91954534.68544  22456209.500                    22456218.145
 126559592.851 6  98617931.78644  24083496.969                    24083506.355
 115963631.362 7  90361246.83345  22067125.250                    22067134.215
 104669500.631 8  81560775.82646  19917919.297                    19917927.246
 113496972.375 8  88439334.53645  21597742.797                    21597749.961
 117948388.260 7  91907902.83245  22444834.438                    22444843.641
 114239476.015 8                  21739040.055
 11  7 26  0 36 30.0000000  0  9G10G17G28G12G09G04G02G27G01
 118807263.659 7  92577171.63744  22608261.500                    22608271.871
 114180678.581 7  88972051.08845  21727838.820                    21727846.309
 118079174.304 7  92009824.48544  22469711.406                    22469720.695
 126462839.422 6  98542539.59444  24065085.172                    24065094.340
 115971201.478 7  90367145.62645  22068565.711                    22068574.543
 104684708.345 8  81572626.00346  19920813.141                    19920821.141
 113434502.987 7  88390657.15746  21585855.508                    21585862.137
 117964524.816 7  91920476.75445  22447904.836                    22447913.770
 114175590.974 8                  21726882.969
 11  7 26  0 37  0.0000000  0  9G10G17G28G12G09G04G02G27G01
 118720471.444 7  92509541.42344  22591745.078                    22591755.781
 114216894.429 7  89000271.21545  21734730.172                    21734737.711
 118150480.461 7  92065387.66744  22483281.406                    22483290.277
 126366119.571 6  98467173.62244  24046679.313                    24046689.195
 115979397.067 7  90373531.80645  22070124.891                    22070134.531
 104700441.504 8  81584885.61946  19923806.930                    19923815.066
 113372381.882 7  88342251.16745  21574034.211                    21574040.898
 117981120.049 7  91933408.10345  22451063.094                    22451072.391
 114112091.915 7                  21714799.469
 11  7 26  0 37 30.0000000  0  9G10G17G28G12G09G04G02G27G01
 118633903.400 7  92442085.88044  22575271.953                    22575282.188
 114253198.585 8  89028560.15245  21741638.305                    21741646.242
 118222136.896 7  92121223.77845  22496917.211                    22496926.164
 126269434.717 6  98391834.88844  24028281.008                    24028290.207
 115988216.529 7  90380404.13045  22071803.695                    22071812.707
 104716698.129 8  81597553.12146  19926900.227                    19926908.602
 113310609.222 7  88294116.69145  21562279.148                    21562285.871
 117998172.501 7  91946695.68545  22454307.891                    22454317.434
 114048979.659 8                  21702789.273
 11  7 26  0 38  0.0000000  0  9G10G17G28G12G09G04G02G27G01
 118547563.244 7  92374807.92744  22558842.578                    22558852.301
 114289591.017 7  89056917.87745  21748563.453                    21748572.277
 118294142.695 7  92177332.11544  22510619.750                    22510628.160
 126172786.938 6  98316525.04943  24009889.453                    24009898.879
 115997659.099 7  90387761.99445  22073600.367                    22073609.488
 104733477.017 8  81610627.58746  19930093.750                    19930102.035
 113249186.109 8  88246254.58646  21550590.578                    21550597.430
 118015681.239 7  91960338.83945  22457639.930                    22457649.047
 113986255.179 8                  21690853.133
 11  7 26  0 38 30.0000000  0  9G10G17G28G12G09G04G02G27G01
 118461453.586 7  92307709.57344  22542455.633                    22542466.473
 114326071.867 7  89085344.53345  21755505.500                    21755513.527
 118366497.069 7  92233712.10144  22524388.125                    22524396.945
 126076178.189 6  98241245.61843  23991504.625                    23991514.348
 116007723.700 7  90395604.55945  22075516.008                    22075524.801
 104750776.684 8  81624107.85346  19933385.570                    19933393.508
 113188112.597 8  88198664.90646  21538968.531                    21538974.980
 118033644.880 7  91974336.44345  22461058.133                    22461067.227
 113923919.041 8                  21678991.266
 11  7 26  0 39  0.0000000  0  9G10G17G28G12G09G04G02G27G01
 118375578.125 7  92240793.71244  22526114.242                    22526124.371
 114362641.190 8  89113840.10045  21762464.414                    21762472.863
 118439199.500 7  92290363.27345  22538222.672                    22538231.949
 125979610.288 6  98165998.01143  23973129.070                    23973138.141
 116018409.209 7  90403930.94245  22077548.852                    22077557.750
 104768595.470 8  81637992.62746  19936776.570                    19936784.262
 113127389.675 8  88151348.40346  21527413.508                    21527419.984
 118052062.259 7  91988687.62944  22464562.695                    22464572.281
 113861972.105 8                  21667202.859
 11  7 26  0 39 30.0000000  0  9G10G17G28G12G09G04G02G27G01
 118289940.387 7  92174063.10844  22509817.461                    22509828.148
 114399299.275 7  89142404.84045  21769440.305                    21769448.375
 118512248.805 7  92347284.73044  22552123.422                    22552133.117
 125883085.664 6  98090784.06343  23954760.961                    23954770.047
 116029714.553 7  90412740.31445  22079700.516                    22079709.480
 104786932.311 8  81652281.07546  19940265.883                    19940273.520
 113067018.650 8  88104306.10646  21515925.383                    21515931.848
 118070932.187 7  92003391.45245  22468153.250                    22468162.762
 113800415.428 8                  21655488.953
 11  7 26  0 40  0.0000000  0  9G10G17G28G12G09G04G02G27G01
 118204543.334 7  92107520.02444  22493567.000                    22493577.848
 114436046.059 7  89171038.69845  21776432.672                    21776441.168
 118585644.116 7  92404475.80344  22566090.242                    22566099.355
 125786606.246 6  98015605.37143  23936401.180                    23936410.270
 116041638.432 7  90422031.65745  22081969.477                    22081978.055
 104805785.457 8  81666971.84046  19943853.039                    19943861.430
 113006999.538 8  88057538.03346  21504503.742                    21504510.590
 118090253.293 7  92018446.83045  22471830.211                    22471839.414
 113739249.390 8                  21643849.430
 11  7 26  0 40 30.0000000  0  9G10G17G28G12G09G04G02G27G01
 118119390.810 7  92041167.48644  22477363.297                    22477373.754
 114472881.766 7  89199741.86045  21783442.820                    21783450.707
 118659384.813 7  92461936.01044  22580122.688                    22580132.105
 125690173.775 7  97940463.24643  23918050.836                    23918059.930
 116054179.727 7  90431804.10245  22084355.820                    22084364.234
 104825153.428 8  81682063.76246  19947538.797                    19947547.301
 112947333.516 8  88011045.08945  21493149.602                    21493156.594
 118110024.427 7  92033852.88945  22475592.664                    22475601.715
 113678475.045 8                  21632284.344
 11  7 26  0 41  0.0000000  0  9G10G17G28G12G09G04G02G27G01
 118034485.739 7  91975007.78244  22461206.406                    22461216.590
 114509806.205 7  89228514.19045  21790469.359                    21790477.383
 118733469.774 7  92519664.46644  22594221.320                    22594229.930
 125593790.115 7  97865359.17843  23899709.109                    23899718.539
 116067337.234 7  90442056.72045  22086859.906                    22086868.496
 104845034.441 8  81697555.45446  19951322.234                    19951330.664
 112888021.030 8  87964827.62546  21481862.859                    21481869.520
 118130244.276 7  92049608.59045  22479440.625                    22479449.875
 113618093.107 8                  21620794.414
 11  7 26  0 41 30.0000000  0  9G10G17G28G12G09G04G02G27G01
 117949831.570 7  91909043.60144  22445097.188                    22445107.359
 114546819.723 7  89257355.90445  21797512.719                    21797520.363
 118807898.188 7  92577660.55944  22608383.594                    22608392.883
 125497457.575 7  97790294.92943  23881377.594                    23881386.695
 116081109.581 7  90452788.40945  22089481.016                    22089489.188
 104865427.083 8  81713445.82646  19955202.602                    19955210.938
 112829062.512 8  87918885.96546  21470643.836                    21470650.371
 118150911.245 7  92065712.69845  22483373.195                    22483383.012
 113558104.196 8                  21609378.320
 11  7 26  0 42  0.0000000  0  9G10G17G28G12G09G04G02G27G01
 117865431.568 7  91843277.43445  22429036.563                    22429046.945
 114583922.368 8  89286267.06845  21804573.016                    21804580.832
 118882669.099 7  92635923.54244  22622612.563                    22622621.359
 125401177.953 6  97715271.87343  23863056.539                    23863065.637
 116095495.500 7  90463998.22045  22092217.414                    22092226.871
 104886329.662 8  81729733.54146  19959180.641                    19959188.668
 112770458.380 8  87873220.45246  21459491.461                    21459498.387
 118172023.903 7  92082164.10345  22487390.563                    22487400.184
 113498509.131 8                  21598038.234
 11  7 26  0 42 30.0000000  0  9G10G17G28G12G09G04G02G27G01
 117781289.494 7  91777712.27244  22413024.906                    22413034.449
 114621114.607 7  89315248.03945  21811650.188                    21811658.289
 118957781.549 7  92694452.65544  22636906.016                    22636915.375
 125304953.609 6  97640291.92543  23844745.570                    23844754.316
 116110493.899 7  90475685.27345  22095072.469                    22095081.016
 104907740.721 8  81746417.48446  19963254.984                    19963263.238
 112712210.185 8  87827832.30346  21448407.008                    21448413.969
 118193581.002 7  92098961.83445  22491493.406                    22491502.684
 113439308.822 8                  21586771.758
 11  7 26  0 43  0.0000000  0  9G10G17G28G12G09G04G02G27G01
 117697408.042 7  91712350.19544  22397061.898                    22397072.199
 114658395.816 7  89344298.34545  21818744.414                    21818753.023
 119033234.530 7  92753247.11144  22651264.922                    22651273.594
 125208786.192 7  97565356.31843  23826445.164                    23826454.184
 116126102.889 7  90487848.12545  22098043.000                    22098051.762
 104929658.260 8  81763496.08246  19967425.750                    19967433.906
 112654317.676 8  87782721.28646  21437390.711                    21437397.398
 118215580.969 7  92116104.62645  22495679.570                    22495688.145
 113380503.361 8                  21575582.086
 11  7 26  0 43 30.0000000  0  9G10G17G28G12G09G04G02G27G01
 117613791.201 7  91647194.31544  22381150.102                    22381160.445
 114695766.795 7  89373418.59445  21825856.094                    21825864.152
 119109027.417 7  92812306.43144  22665687.617                    22665696.453
 125112678.206 6  97490467.06244  23808156.500                    23808165.797
 116142321.673 7  90500486.13345  22101129.047                    22101137.531
 104952081.073 8  81780968.40446  19971692.414                    19971700.414
 112596781.768 8  87737888.15246  21426442.125                    21426448.316
 118238022.848 7  92133591.79845  22499950.078                    22499959.500
 113322093.892 8                  21564467.133
 11  7 26  0 44  0.0000000  0  9G10G17G28G12G09G04G02G27G01
 117530441.509 7  91582246.61244  22365289.758                    22365299.086
 114733226.697 7  89402608.13145  21832984.445                    21832992.379
 119185158.478 7  92871629.24444  22680174.945                    22680183.961
 125016630.919 6  97415625.08844  23789879.750                    23789888.926
 116159148.028 7  90513597.56045  22104330.820                    22104339.625
 104975006.624 8  81798832.45946  19976055.203                    19976063.105
 112539602.439 8  87693332.86346  21415561.086                    21415567.719
 118260904.266 7  92151421.44145  22504304.563                    22504313.398
 113264080.228 8                  21553427.453
 11  7 26  0 44 30.0000000  0  9G10G17G28G12G09G04G02G27G01
 117447362.678 7  91517509.95744  22349480.305                    22349489.363
 114770776.441 7  89431867.66245  21840129.969                    21840137.816
 119261627.453 7  92931215.39444  22694726.297                    22694735.473
 124920646.936 6  97340832.43044  23771614.250                    23771623.234
 116176581.111 7  90527181.75645  22107647.734                    22107657.355
 104998433.938 8  81817087.50446  19980513.125                    19980521.176
 112482780.707 8  87649056.20846  21404748.203                    21404754.551
 118284224.433 7  92169592.97145  22508741.563                    22508750.977
 113206463.658 8                  21542463.414
 11  7 26  0 45  0.0000000  0  9G10G17G28G12G09G04G02G27G01
 117364557.903 7  91452986.84144  22333722.484                    22333732.063
 114808416.164 7  89461197.31345  21847292.484                    21847300.500
 119338433.076 7  92991063.83544  22709342.094                    22709351.453
 124824728.271 6  97266090.68244  23753361.336                    23753370.598
 116194619.273 7  90541237.45645  22111080.703                    22111090.074
 105022361.357 8  81835732.23946  19985066.555                    19985074.539
 112426317.357 8  87605058.81746  21394003.563                    21394009.793
 118307981.929 7  92188105.28145  22513263.086                    22513271.707
 113149244.751 8                  21531575.164
 11  7 26  0 45 30.0000000  0  9G10G17G28G12G09G04G02G27G01
 117282031.020 7  91388680.28444  22318018.352                    22318028.152
 114846146.609 7  89490597.65145  21854472.320                    21854480.898
 119415574.714 7  93051174.10144  22724021.711                    22724030.453
 124728877.487 7  97191401.86144  23735121.742                    23735130.715
 116213261.557 7  90555763.88845  22114628.250                    22114637.484
 105046787.421 8  81854765.52846  19989714.648                    19989722.617
 112370213.340 7  87561341.43246  21383327.297                    21383333.629
 118332175.724 7  92206957.58045  22517866.352                    22517876.027
 113092424.734 8                  21520762.445
 11  7 26  0 46  0.0000000  0  9G10G17G28G12G09G04G02G27G01
 117199784.849 7  91324592.43944  22302367.539                    22302377.531
 114883967.384 7  89520068.38145  21861669.555                    21861677.801
 119493051.032 7  93111545.18244  22738764.781                    22738773.863
 124633096.277 7  97116767.19144  23716895.023                    23716903.672
 116232506.009 7  90570759.54945  22118290.680                    22118299.102
 105071710.270 8  81874185.92046  19994457.375                    19994465.438
 112314468.659 7  87517904.03646  21372719.688                    21372725.887
 118356803.809 7  92226148.25545  22522553.203                    22522562.676
 113036003.493 8                  21510026.000
 11  7 26  0 46 30.0000000  0  9G10G17G28G12G09G04G02G27G01
 117117822.511 7  91260725.77244  22286770.094                    22286780.094
 114921878.296 7  89549609.32845  21868883.828                    21868891.793
 119570860.915 7  93172176.18244  22753571.203                    22753581.176
 124537386.471 7  97042188.18544  23698682.078                    23698691.398
 116252350.968 7  90586223.11845  22122067.063                    22122075.617
 105097127.621 8  81893991.64646  19999293.883                    19999302.141
 112259083.621 7  87474746.89646  21362180.250                    21362186.352
 118381864.388 7  92245675.95845  22527322.398                    22527331.387
 112979981.511 8                  21499365.453
 11  7 26  0 47  0.0000000  0  9G10G17G28G12G09G04G02G27G01
 117036147.332 7  91197082.85345  22271228.008                    22271237.676
 114959879.403 7  89579220.55245  21876115.297                    21876123.371
 119649003.272 7  93233066.23744  22768441.656                    22768451.102
 124441750.112 6  96967666.40344  23680483.180                    23680492.039
 116272794.753 7  90602153.32345  22125957.195                    22125966.336
 105123037.747 8  81914181.35346  20004224.492                    20004232.781
 112204058.489 7  87431870.19046  21351708.461                    21351715.270
 118407355.793 7  92265539.36644  22532173.023                    22532182.637
 112924359.347 8                  21488780.727
 11  7 26  0 47 30.0000000  0  9G10G17G28G12G09G04G02G27G01
 116954762.914 7  91133666.50545  22255741.180                    22255750.961
 114997971.118 7  89608902.38145  21883363.719                    21883371.652
 119727477.066 7  93294214.53644  22783374.680                    22783384.156
 124346189.573 6  96893203.63344  23662298.938                    23662306.996
 116293835.696 7  90618548.84445  22129961.727                    22129970.023
 105149438.900 8  81934753.68446  20009248.297                    20009256.809
 112149394.089 8  87389274.57246  21341306.367                    21341313.270
 118433276.678 7  92285737.44345  22537105.906                    22537114.883
 112869137.432 8                  21478272.125
 11  7 26  0 48  0.0000000  0  9G10G17G28G12G09G04G02G27G01
 116873672.815 7  91070479.49345  22240310.289                    22240319.883
 115036153.966 7  89638655.22545  21890629.883                    21890637.844
 119806281.073 7  93355620.16344  22798370.492                    22798380.125
 124250706.968 7  96818801.62144  23644128.938                    23644137.043
 116315472.568 7  90635408.71845  22134078.430                    22134087.078
 105176329.752 8  81955707.60346  20014365.539                    20014373.746
 112095091.161 8  87346960.63746  21330973.203                    21330979.805
 118459625.919 7  92306269.30045  22542119.281                    22542128.887
 112814316.813 8                  21467840.164
 11  7 26  0 48 30.0000000  0  9G10G17G28G12G09G04G02G27G01
 116792880.301 7  91007524.36645  22224936.250                    22224946.043
 115074428.235 7  89668479.29145  21897913.367                    21897921.742
 119885414.533 7  93417282.50644  22813429.320                    22813439.164
 124155304.722 6  96744462.22244  23625974.703                    23625983.055
 116337704.027 7  90652731.92345  22138309.078                    22138318.191
 105203708.641 8  81977041.81346  20019575.953                    20019583.898
 112041150.127 8  87304928.69946  21320708.586                    21320714.781
 118486401.716 7  92327133.54444  22547214.664                    22547224.215
 112759898.141 8                  21457484.773
 11  7 26  0 49  0.0000000  0  9G10G17G28G12G09G04G02G27G01
 116712388.210 7  90944803.32445  22209618.758                    22209628.438
 115112793.555 7  89698374.32445  21905213.656                    21905222.129
 119964876.067 7  93479200.49444  22828551.117                    22828559.922
 124059984.554 7  96670186.77744  23607835.281                    23607843.715
 116360527.796 7  90670516.66245  22142652.164                    22142661.379
 105231573.111 8  81998754.40846  20024878.359                    20024886.254
 111987570.964 7  87263178.73846  21310512.242                    21310519.066
 118513601.963 7  92348328.51944  22552391.133                    22552401.102
 112705881.172 8                  21447205.617
 11  7 26  0 49 30.0000000  0  9G10G17G28G12G09G04G02G27G01
 116632199.974 7  90882319.05145  22194359.078                    22194368.574
 115151250.686 7  89728340.88545  21912532.539                    21912540.383
 120044664.762 7  93541373.41044  22843733.547                    22843743.316
 123964748.943 7  96595977.25444  23589712.672                    23589721.797
 116383942.376 7  90688761.77544  22147107.844                    22147116.973
 105259921.790 8  82020844.30846  20030272.758                    20030280.664
 111934354.584 8  87221711.48146  21300386.008                    21300392.129
 118541225.446 7  92369853.28244  22557647.563                    22557656.621
 112652266.966 8                  21437003.195
 11  7 26  0 50  0.0000000  0  9G10G17G28G12G09G04G02G27G01
 116552318.695 7  90820073.96045  22179158.414                    22179168.027
 115189799.547 7  89758378.92145  21919867.742                    21919875.957
 120124779.366 7  93603800.25044  22858979.328                    22858989.164
 123869599.752 7  96521835.05144  23571606.445                    23571615.164
 116407945.707 7  90707465.66845  22151675.281                    22151684.777
 105288752.457 8  82043309.78546  20035758.625                    20035767.355
 111881501.246 8  87180527.10746  21290328.141                    21290334.695
 118569270.077 7  92391706.22344  22562984.648                    22562993.695
 112599055.813 8                  21426877.500
 11  7 26  0 50 30.0000000  0  9G10G17G28G12G09G04G02G27G01
 116472747.725 7  90758070.67345  22164016.016                    22164025.723
 115228439.884 7  89788488.24845  21927220.813                    21927228.758
 120205218.453 7  93666479.97744  22874286.438                    22874295.824
 123774539.317 7  96447762.01844  23553517.305                    23553525.156
 116432536.318 7  90726627.17145  22156354.750                    22156364.121
 105318063.452 8  82066149.54946  20041336.484                    20041344.855
 111829011.291 8  87139625.89746  21280339.844                    21280346.281
 118597734.335 7  92413886.13144  22568400.523                    22568410.270
 112546247.799 8                  21416828.563
 11  7 26  0 51  0.0000000  0  9G10G17G28G12G09G04G02G27G01
 116393490.516 7  90696311.86844  22148933.953                    22148943.219
 115267172.859 7  89818669.73945  21934590.867                    21934599.805
 120285981.362 7  93729412.01944  22889655.297                    22889664.539
 123679569.866 7  96373759.87844  23535445.055                    23535453.500
 116457712.663 7  90746245.10245  22161145.117                    22161155.020
 105347853.008 8  82089362.21346  20047005.305                    20047013.879
 111776885.277 8  87099008.28546  21270420.477                    21270426.680
 118626616.941 7  92436392.03144  22573897.570                    22573906.160
 112493843.920 8                  21406855.844
 11  7 26  0 51 30.0000000  0  9G10G17G28G12G09G04G02G27G01
 116314550.172 7  90634799.98145  22133912.461                    22133921.852
 115305997.952 7  89848923.03445  21941979.719                    21941987.793
 120367066.473 7  93792595.15944  22905085.703                    22905094.496
 123584693.119 7  96299830.03944  23517390.180                    23517398.902
 116483472.256 7  90766317.50845  22166047.625                    22166057.023
 105378118.613 8  82112945.83046  20052764.922                    20052773.176
 111725123.008 8  87058674.10646  21260570.141                    21260576.734
 118655915.626 7  92459222.16844  22579471.969                    22579481.742
 112441843.910 8                  21396960.656
 11  7 26  0 52  0.0000000  0  9G10G17G28G12G09G04G02G27G01
 116235930.179 7  90573537.71545  22118950.922                    22118961.125
 115344915.862 7  89879248.64445  21949385.570                    21949393.152
 120448472.817 7  93856028.59244  22920576.844                    22920585.688
 123489911.868 7  96225974.58944  23499354.570                    23499363.137
 116509813.773 7  90786843.35745  22171060.289                    22171070.027
 105408859.221 8  82136899.58446  20058614.570                    20058622.789
 111673725.459 8  87018624.12246  21250789.508                    21250795.906
 118685629.274 7  92482375.62844  22585127.383                    22585136.285
 112390248.836 8                  21387142.180
 11  7 26  0 52 30.0000000  0  9G10G17G28G12G09G04G02G27G01
 116157633.801 7  90512527.62845  22104051.820                    22104061.582
 115383926.721 7  89909646.69945  21956809.055                    21956816.660
 120530199.493 7  93919711.63344  22936128.141                    22936138.074
 123395228.454 7  96152195.37344  23481336.117                    23481345.613
 116536735.361 7  90807821.21445  22176183.813                    22176192.934
 105440072.904 8  82161221.96646  20064553.766                    20064562.086
 111622693.406 8  86978858.94546  21241078.195                    21241084.430
 118715755.929 7  92505850.91244  22590860.008                    22590868.707
 112339059.164 8                  21377401.336
 11  7 26  0 53  0.0000000  0  9G10G17G28G12G09G04G02G27G01
 116079663.802 7  90451771.85044  22089214.352                    22089223.902
 115423030.460 7  89940117.11845  21964250.328                    21964258.523
 120612244.604 7  93983642.80544  22951741.289                    22951750.809
 123300644.424 6  96078493.63944  23463337.133                    23463346.680
 116564234.832 7  90829249.35845  22181416.320                    22181425.605
 105471757.012 8  82185910.90346  20070583.219                    20070591.582
 111572025.952 8  86939377.87146  21231436.477                    21231442.688
 118746293.499 7  92529646.38544  22596670.836                    22596680.145
 112288274.623 8                  21367737.328
 11  7 26  0 53 30.0000000  0  9G10G17G28G12G09G04G02G27G01
 116002024.275 7  90391273.59845  22074439.953                    22074449.832
 115462227.844 7  89970660.51445  21971709.016                    21971717.559
 120694607.532 7  94047821.62143  22967414.219                    22967423.855
 123206162.460 6  96004871.39644  23445357.633                    23445366.941
 116592310.668 7  90851126.62645  22186758.539                    22186767.895
 105503910.075 8  82210965.26446  20076701.852                    20076710.453
 111521724.486 8  86900181.97746  21221864.531                    21221871.004
 118777240.759 7  92553761.09444  22602559.844                    22602568.906
 112237895.909 8                  21358150.719
 11  7 26  0 54  0.0000000  0  9G10G17G28G12G09G04G02G27G01
 115924717.578 7  90331034.71944  22059729.242                    22059738.453
 115501518.914 7  90001276.93045  21979185.813                    21979194.148
 120777286.688 6  94112246.86343  22983147.641                    22983157.883
 123111784.590 6  95931330.27344  23427398.117                    23427407.195
 116620960.558 7  90873451.19545  22192211.180                    22192219.973
 105536530.050 8  82236383.43746  20082909.156                    20082916.820
 111471788.880 8  86861271.17446  21212361.664                    21212368.602
 118808595.514 7  92578193.34744  22608526.336                    22608535.691
 112187923.399 8                  21348641.352
 11  7 26  0 54 30.0000000  0  9G10G17G28G12G09G04G02G27G01
 115847747.866 7  90271058.40644  22045082.820                    22045091.586
 115540904.330 7  90031966.87745  21986680.938                    21986688.945
 120860281.250 6  94176917.85644  22998941.172                    22998951.109
 123017513.454 7  95857872.33944  23409459.047                    23409468.016
 116650183.144 7  90896222.02345  22197771.773                    22197780.957
 105569615.492 8  82262164.31246  20089205.398                    20089213.828
 111422220.029 8  86822646.13846  21202930.055                    21202935.902
 118840356.594 7  92602942.22044  22614570.766                    22614579.871
 112138358.158 8                  21339208.953
 11  7 26  0 55  0.0000000  0  9G10G17G28G12G09G04G02G27G01
 115771117.524 7  90211346.53045  22030499.883                    22030508.691
 115580383.616 7  90062729.95045  21994193.469                    21994201.125
 120943589.536 7  94241833.30644  23014794.258                    23014804.363
 122923350.406 7  95784498.59544  23391540.813                    23391549.844
 116679975.546 7  90919436.86245  22203441.555                    22203450.219
 105603163.735 8  82288305.80346  20095589.133                    20095597.457
 111373017.267 8  86784306.37446  21193566.297                    21193572.547
 118872521.317 7  92628005.62144  22620691.258                    22620701.348
 112089199.356 8                  21329854.461
 11  7 26  0 55 30.0000000  0  9G10G17G28G12G09G04G02G27G01
 115694829.872 7  90151901.68545  22015982.938                    22015992.109
 115619957.087 7  90093566.40645  22001723.984                    22001732.305
 121027209.874 7  94306991.91144  23030707.500                    23030717.031
 122829298.153 7  95711211.18144  23373642.766                    23373651.543
 116710335.996 7  90943094.33145  22209218.195                    22209228.137
 105637172.615 8  82314806.23446  20102060.703                    20102068.988
 111324180.625 8  86746251.88646  21184273.383                    21184279.246
 118905087.874 7  92653382.13445  22626888.789                    22626898.305
 112040447.326 8                  21320577.313
 11  7 26  0 56  0.0000000  0  9G10G17G28G12G09G04G02G27G01
 115618888.687 7  90092726.82445  22001531.438                    22001540.879
 115659625.604 7  90124476.92845  22009272.922                    22009280.883
 121111141.707 7  94372393.25444  23046679.445                    23046688.473
 122735359.606 7  95638012.35244  23355766.805                    23355775.750
 116741263.117 7  90967193.35545  22215104.234                    22215112.988
 105671641.101 8  82341664.78746  20108620.172                    20108628.480
 111275711.834 8  86708484.03346  21175049.844                    21175056.215
 118938055.278 7  92679070.97045  22633162.281                    22633171.496
 111992103.058 8                  21311377.836
 11  7 26  0 56 30.0000000  0  9G10G17G28G12G09G04G02G27G01
 115543296.331 7  90033823.76345  21987146.719                    21987156.234
 115699388.668 7  90155461.13745  22016839.367                    22016847.414
 121195383.146 7  94438035.85444  23062709.289                    23062719.438
 122641535.902 7  95564903.08244  23337913.359                    23337921.945
 116772753.787 7  90991731.52245  22221096.172                    22221105.906
 105706565.987 8  82368878.98046  20115266.047                    20115274.168
 111227610.088 8  86671002.18346  21165896.484                    21165903.105
 118971420.639 7  92705069.93745  22639511.680                    22639521.227
 111944165.982 8                  21302255.320
 11  7 26  0 57  0.0000000  0 10G10G17G28G12G05G09G04G02G27G01
 115468056.487 7  89975195.36945  21972829.148                    21972837.906
 115739247.033 7  90186519.61745  22024424.109                    22024432.043
 121279932.922 7  94503918.70944  23078798.578                    23078808.340
 122547829.759 7  95491885.38844  23320081.016                    23320089.797
 129643370.38915 101020881.70253  24670317.852                    24670332.074
 116804806.297 7  91016707.46345  22227195.594                    22227204.707
 105741945.738 8  82396447.61246  20121998.406                    20122006.906
 111179875.620 8  86633806.52346  21156812.820                    21156819.402
 119005182.519 7  92731377.86944  22645936.719                    22645945.566
 111896636.748 8                  21293211.047
 11  7 26  0 57 30.0000000  0 10G10G17G28G12G05G09G04G02G27G01
 115393172.203 7  89916844.05045  21958579.445                    21958588.273
 115779200.744 7  90217652.39745  22032027.258                    22032035.063
 121364789.767 7  94570040.85043  23094946.094                    23094956.438
 122454243.216 7  95418960.92944  23302272.008                    23302280.695
 129538385.243 5 100939075.44543  24650340.398                    24650353.500
 116837418.529 7  91042119.57044  22233401.320                    22233411.000
 105777778.327 8  82424369.09246  20128817.117                    20128825.883
 111132508.930 8  86596897.44346  21147799.070                    21147805.273
 119039338.857 7  92757993.17844  22652435.953                    22652445.629
 111849515.295 8                  21284243.891
 11  7 26  0 58  0.0000000  0 10G10G17G28G12G05G09G04G02G27G01
 115318646.992 7  89858772.52445  21944397.117                    21944406.215
 115819250.615 7  90248860.12145  22039648.148                    22039656.313
 121449952.879 7  94636401.62443  23111153.039                    23111162.254
 122360779.357 7  95346132.07644  23284486.516                    23284495.035
 129433315.944 5 100857203.63043  24630344.781                    24630358.957
 116870588.843 7  91067966.52144  22239713.586                    22239722.715
 105814062.178 8  82452642.21346  20135721.711                    20135729.813
 111085510.552 8  86560275.35546  21138855.430                    21138861.332
 119073888.334 7  92784914.82145  22659010.570                    22659019.539
 111802802.929 8                  21275354.781
 11  7 26  0 58 30.0000000  0 10G10G17G28G12G05G09G04G02G27G01
 115244483.599 7  89800982.92345  21930284.711                    21930293.801
 115859396.423 7  90280142.55945  22047287.664                    22047296.086
 121535420.125 7  94702999.41143  23127416.688                    23127425.563
 122267439.706 7  95273400.01944  23266724.383                    23266733.164
 129328164.777 6 100775267.96943  24610335.625                    24610349.609
 116904314.163 7  91094245.94244  22246131.219                    22246140.102
 105850794.501 8  82481264.78446  20142711.797                    20142720.086
 111038879.891 8  86523939.80146  21129981.859                    21129988.184
 119108828.179 7  92812140.63545  22665659.695                    22665669.207
 111756498.535 8                  21266543.180
 11  7 26  0 59  0.0000000  0 10G10G17G28G12G05G09G04G02G27G01
 115170685.526 7  89743478.00945  21916240.969                    21916250.410
 115899639.227 7  90311500.58345  22054945.586                    22054954.031
 121621190.921 6  94769833.71643  23143737.555                    23143747.164
 122174227.135 7  95200766.97944  23248986.734                    23248994.434
 129222934.867 6 100693270.91943  24590310.617                    24590324.801
 116938593.584 7  91120957.13344  22252654.633                    22252663.828
 105887974.277 8  82510236.02846  20149786.672                    20149795.621
 110992618.131 8  86487891.69746  21121178.891                    21121185.223
 119144157.251 7  92839669.73644  22672381.945                    22672391.707
 111710603.405 8                  21257809.891
 11  7 26  0 59 30.0000000  0 10G10G17G28G12G05G09G04G02G27G01
 115097255.979 7  89686260.24145  21902267.766                    21902277.230
 115939978.706 7  90342933.94845  22062622.406                    22062629.953
 121707263.457 6  94836903.16543  23160116.672                    23160126.836
 122081143.676 7  95128234.52644  23231273.289                    23231281.254
 129117628.437 7 100611214.22943  24570271.727                    24570285.484
 116973424.026 7  91148097.69944  22259282.867                    22259291.566
 105925598.818 8  82539553.83946  20156946.633                    20156954.555
 110946724.850 8  86452130.73646  21112445.719                    21112451.801
 119179873.051 7  92867500.19844  22679178.578                    22679188.160
 111665117.275 8                  21249154.133
 11  7 26  1  0  0.0000000  0 10G10G17G28G12G05G09G04G02G27G01
 115024197.982 7  89629331.98445  21888365.164                    21888374.754
 115980415.367 7  90374443.04645  22070317.156                    22070325.246
 121793636.665 6  94904206.85343  23176553.945                    23176563.426
 121988191.659 7  95055804.50544  23213585.055                    23213592.766
 129012248.052 6 100529099.90043  24550218.031                    24550231.742
 117008803.478 7  91175666.06345  22266015.250                    22266024.020
 105963665.917 8  82569216.51546  20164190.641                    20164198.777
 110901200.374 8  86416657.14246  21103782.289                    21103788.871
 119215973.849 6  92895630.64444  22686048.227                    22686058.230
 111620040.400 8                  21240576.109
 11  7 26  1  0 30.0000000  0 10G10G17G28G12G05G09G04G02G27G01
 114951515.035 7  89572695.97845  21874534.313                    21874543.621
 116020949.664 7  90406028.21845  22078030.133                    22078038.168
 121880308.924 6  94971743.59143  23193046.992                    23193056.344
 121895373.536 7  94983478.79444  23195921.734                    23195930.477
 128906796.784 6 100446930.35243  24530151.320                    24530164.859
 117044729.762 7  91203660.51545  22272852.070                    22272861.043
 106002173.865 8  82599222.70846  20171518.422                    20171526.367
 110856044.958 8  86381471.13046  21095189.523                    21095195.641
 119252457.703 7  92924059.55545  22692991.758                    22693000.621
 111575372.901 8                  21232076.797
 11  7 26  1  1  0.0000000  0 10G10G17G28G12G05G09G04G02G27G01
 114879210.281 7  89516354.66645  21860774.477                    21860784.336
 116061581.905 7  90437689.71245  22085761.828                    22085770.117
 121967278.700 7  95039512.14943  23209596.719                    23209606.289
 121802692.106 7  94911259.61644  23178285.336                    23178293.836
 128801276.470 6 100364706.98343  24510071.648                    24510084.852
 117081200.849 7  91232079.52344  22279791.977                    22279801.297
 106041120.688 8  82629570.87346  20178929.781                    20178938.203
 110811258.921 8  86346572.94946  21086667.438                    21086673.188
 119289322.620 6  92952785.40844  22700006.359                    22700016.203
 111531115.078 8                  21223654.383
 11  7 26  1  1 30.0000000  0 10G10G17G28G12G05G09G04G02G27G01
 114807286.286 7  89460310.06045  21847087.961                    21847097.648
 116102312.297 7  90469427.68145  22093512.992                    22093520.820
 122054544.569 7  95107511.40544  23226202.789                    23226212.781
 121710148.663 7  94839147.92344  23160675.039                    23160683.293
 128695689.714 6 100282431.89043  24489977.703                    24489992.637
 117118214.128 7  91260921.00445  22286835.023                    22286844.578
 106080503.515 8  82660258.78746  20186424.055                    20186431.969
 110766841.736 7  86311962.19246  21078214.836                    21078221.066
 119326566.264 7  92981806.38044  22707093.945                    22707103.293
 111487266.546 8                  21215310.164
 11  7 26  1  2  0.0000000  0 10G10G17G28G12G05G09G04G02G27G01
 114735746.590 7  89404564.90845  21833474.469                    21833483.906
 116143141.458 7  90501242.60745  22101282.352                    22101290.727
 122142105.381 7  95175740.48544  23242865.320                    23242875.648
 121617746.194 7  94767146.08044  23143091.602                    23143099.336
 128590039.540 5 100200107.33643  24469873.375                    24469886.797
 117155767.346 7  91290183.22144  22293982.313                    22293991.125
 106120320.907 8  82691285.32646  20194000.781                    20194008.816
 110722794.201 7  86277639.47346  21069832.813                    21069839.039
 119364187.124 7  93011121.27144  22714252.125                    22714262.070
 111443828.237 8                  21207044.328
 11  7 26  1  2 30.0000000  0 10G10G17G28G12G05G09G04G02G27G01
 114664594.089 7  89349121.46545  21819934.633                    21819944.004
 116184069.367 7  90533134.46445  22109071.180                    22109078.965
 122229959.391 7  95244198.05944  23259583.836                    23259593.246
 121525486.808 7  94695255.72044  23125534.742                    23125543.520
 128484328.523 6 100117735.40943  24449756.969                    24449770.559
 117193858.188 7  91319864.37044  22301229.758                    22301239.305
 106160570.525 8  82722648.66046  20201660.406                    20201668.621
 110679115.965 7  86243604.51946  21061521.367                    21061527.602
 119402182.944 7  93040728.34245  22721482.820                    22721492.871
 111400799.455 8                  21198855.742
 11  7 26  1  3  0.0000000  0 10G10G17G28G12G05G09G04G02G27G01
 114593831.998 7  89293982.24545  21806469.406                    21806478.395
 116225096.152 7  90565103.37345  22116878.031                    22116886.480
 122318105.281 7  95312883.04544  23276356.813                    23276367.199
 121433373.183 7  94623478.89744  23108005.953                    23108014.434
 128378559.162 6 100035318.01043  24429630.047                    24429643.027
 117232483.870 7  91349962.26644  22308579.719                    22308589.395
 106201250.136 8  82754347.06446  20209400.953                    20209409.281
 110635807.222 7  86209857.48946  21053279.641                    21053285.816
 119440551.388 7  93070625.78344  22728784.586                    22728794.199
 111358180.427 8                  21190745.633
 11  7 26  1  3 30.0000000  0 10G10G17G28G12G05G09G04G02G27G01
 114523463.354 7  89239149.62245  21793078.461                    21793087.832
 116266222.534 7  90597149.89145  22124704.695                    22124712.734
 122406541.376 6  95381794.16244  23293185.758                    23293196.152
 121341407.210 7  94551817.14744  23090505.664                    23090514.246
 128272733.961 6  99952857.05543  24409492.820                    24409504.707
 117271642.311 6  91380475.31945  22316031.797                    22316041.277
 106242357.595 8  82786378.84546  20217223.828                    20217231.840
 110592868.018 8  86176398.42046  21045108.664                    21045114.355
 119479290.663 6  93100812.19244  22736156.422                    22736165.492
 111315971.464 8                  21182713.758
 11  7 26  1  4  0.0000000  0 10G10G17G28G12G05G09G04G02G27G01
 114453491.592 7  89184626.25845  21779762.906                    21779772.328
 116307449.277 7  90629274.63345  22132549.609                    22132558.074
 122495266.694 6  95450930.66243  23310070.070                    23310080.188
 121249591.794 7  94480272.68344  23073033.367                    23073042.000
 128166856.117 6  99870355.08643  24389344.016                    24389356.492
 117311331.511 7  91411401.93944  22323584.672                    22323593.359
 106283891.227 8  82818742.70946  20225127.188                    20225134.863
 110550298.927 8  86143227.74146  21037007.508                    21037013.676
 119518398.936 7  93131286.14244  22743598.094                    22743607.652
 111274172.592 8                  21174759.422
 11  7 26  1  4 30.0000000  0 10G10G17G28G12G05G09G04G02G27G01
 114383919.230 7  89130414.09145  21766524.344                    21766533.133
 116348776.688 7  90661477.81345  22140413.914                    22140421.961
 122584279.346 6  95520291.04543  23327008.813                    23327018.797
 121157928.838 7  94408847.02844  23055590.758                    23055599.227
 128060927.791 6  99787813.81644  24369185.766                    24369199.168
 117351548.643 7  91442739.92344  22331237.727                    22331246.797
 106325848.457 8  82851436.64946  20233111.664                    20233119.602
 110508099.497 8  86110345.12146  21028977.516                    21028983.590
 119557873.373 7  93162045.41644  22751109.945                    22751119.512
 111232783.769 8                  21166883.789
 11  7 26  1  5  0.0000000  0 10G10G17G28G12G05G09G04G02G27G01
 114314749.309 7  89076515.52645  21753361.367                    21753370.453
 116390204.086 7  90693758.87545  22148296.992                    22148305.375
 122673577.523 6  95589873.90843  23344001.656                    23344011.871
 121066420.767 7  94337542.02844  23038177.297                    23038185.914
 127954951.647 6  99705235.24644  24349019.391                    24349032.117
 117392290.979 7  91474487.18144  22338991.063                    22339000.313
 106368226.812 8  82884458.73246  20241175.953                    20241184.441
 110466269.364 8  86077750.25446  21021017.602                    21021023.828
 119597712.089 7  93193088.55644  22758691.289                    22758701.148
 111191804.769 8                  21159085.305
 11  7 26  1  5 30.0000000  0 10G10G17G28G12G05G09G04G02G27G01
 114245985.183 7  89022933.18245  21740275.977                    21740284.945
 116431732.229 7  90726118.44445  22156200.031                    22156207.938
 122763160.289 6  95659678.59343  23361048.703                    23361058.594
 120975070.147 7  94266359.73444  23020794.172                    23020802.012
 127848930.436 6  99622621.58544  24328844.258                    24328856.398
 117433556.401 7  91506642.01345  22346843.617                    22346852.598
 106411024.450 8  82917807.53246  20249320.070                    20249327.809
 110424809.139 8  86045443.63346  21013128.086                    21013134.406
 119637913.100 7  93224413.97444  22766341.203                    22766350.586
 111151235.874 8                  21151365.172
 11  7 26  1  6  0.0000000  0 10G10G17G28G12G05G09G04G02G27G01
 114177630.060 7  88969669.54445  21727267.898                    21727277.176
 116473362.163 7  90758557.34645  22164121.258                    22164129.574
 122853026.196 7  95729703.89043  23378149.523                    23378159.980
 120883879.542 7  94195302.13544  23003440.016                    23003449.266
 127742867.385 6  99539975.27543  24308661.242                    24308672.688
 117475342.775 7  91539202.81444  22354795.320                    22354804.199
 106454239.684 8  82951481.73646  20257543.430                    20257552.008
 110383719.229 8  86013425.55546  21005308.672                    21005315.004
 119678474.632 7  93256020.32744  22774060.219                    22774069.559
 111111077.196 8                  21143723.367
 11  7 26  1  6 30.0000000  0 10G10G17G28G12G05G09G04G02G27G01
 114109686.475 7  88916726.56345  21714338.781                    21714347.590
 116515093.895 7  90791075.56345  22172062.820                    22172070.762
 122943172.735 7  95799947.88343  23395304.383                    23395313.813
 120792851.069 7  94124370.84544  22986118.547                    22986127.125
 127636764.169 6  99457297.71944  24288469.281                    24288482.449
 117517646.986 6  91572167.14544  22362844.914                    22362854.117
 106497869.400 8  82985478.92346  20265845.938                    20265854.254
 110342998.615 8  85981695.25046  20997559.953                    20997566.000
 119719393.872 7  93287905.42544  22781846.914                    22781856.059
 111071328.438 8                  21136159.578
 11  7 26  1  7  0.0000000  0 10G10G17G28G12G05G09G04G02G27G01
 114042157.097 7  88864106.34745  21701488.359                    21701497.234
 116556927.481 7  90823673.14845  22180023.609                    22180031.695
 123033598.695 6  95870409.61743  23412511.430                    23412521.805
 120701987.029 7  94053567.71444  22968827.602                    22968836.223
 127530623.785 6  99374591.17543  24268271.867                    24268284.684
 117560466.659 7  91605533.11544  22370993.336                    22371002.719
 106541911.683 8  83019797.59446  20274226.758                    20274235.168
 110302647.629 8  85950252.97246  20989881.094                    20989887.340
 119760668.805 6  93320067.67244  22789700.742                    22789710.125
 111031989.272 8                  21128673.289
 11  7 26  1  7 30.0000000  0 10G10G17G28G12G05G09G04G02G27G01
 113975045.756 7  88811811.87445  21688717.094                    21688726.086
 116598863.809 7  90856350.81545  22188004.023                    22188012.355
 123124302.948 7  95941088.20443  23429772.438                    23429782.316
 120611290.440 7  93982895.10545  22951568.445                    22951577.238
 127424449.218 6  99291858.01043  24248067.148                    24248079.574
 117603799.349 7  91639298.83044  22379239.422                    22379248.313
 106586364.590 8  83054436.22546  20282686.133                    20282694.195
 110262666.656 8  85919099.00046  20982273.148                    20982278.703
 119802297.490 7  93352505.61544  22797622.008                    22797632.184
 110993060.107 8                  21121265.633
 11  7 26  1  8  0.0000000  0 10G10G17G28G12G05G09G04G02G27G01
 113908355.075 7  88759845.16445  21676026.570                    21676035.359
 116640903.390 7  90889108.91745  22196003.844                    22196011.781
 123215283.637 6  96011982.17243  23447085.008                    23447095.332
 120520763.105 7  93912354.35644  22934342.055                    22934350.313
 127318242.860 6  99209100.03843  24227856.922                    24227868.223
 117647642.354 7  91673462.19544  22387582.609                    22387591.980
 106631225.701 8  83089392.95046  20291222.742                    20291230.699
 110223055.263 8  85888233.02846  20974734.852                    20974741.402
 119844277.499 7  93385217.29044  22805610.852                    22805620.977
 110954540.716 8                  21113935.484
 11  7 26  1  8 30.0000000  0 10G10G17G28G12G05G09G04G02G27G01
 113842087.748 7  88708208.36345  21663416.508                    21663425.566
 116683045.453 7  90921946.88845  22204023.273                    22204031.156
 123306538.858 6  96083090.09343  23464449.883                    23464461.336
 120430407.198 7  93841947.22344  22917147.844                    22917156.082
 127212007.191 6  99126319.29743  24207640.367                    24207651.723
 117691992.963 7  91708021.11445  22396022.242                    22396031.238
 106676492.315 8  83124665.64946  20299836.930                    20299845.020
 110183812.913 8  85857654.60846  20967267.969                    20967273.770
 119886606.426 6  93418200.83744  22813666.227                    22813676.387
 110916430.425 8                  21106683.438
 11  7 26  1  9  0.0000000  0 10G10G17G28G12G05G09G04G02G27G01
 113776247.460 7  88656904.31945  21650886.969                    21650896.367
 116725291.462 7  90954865.85245  22212062.438                    22212069.945
 123398067.859 6  96154411.31043  23481868.336                    23481878.863
 120340225.997 7  93771676.22844  22899986.805                    22899995.238
 127105745.679 6  99043518.40643  24187418.336                    24187430.449
 117736849.015 7  91742973.89044  22404558.250                    22404567.047
 106722163.203 8  83160253.37846  20308527.680                    20308535.617
 110144940.644 8  85827364.56046  20959870.430                    20959876.719
 119929282.867 6  93451455.18744  22821787.133                    22821797.059
 110878730.379 8                  21099509.195
 11  7 26  1  9 30.0000000  0 10G10G17G28G12G05G09G04G02G27G01
 113710836.802 7  88605935.01845  21638440.117                    21638449.094
 116767641.608 7  90987865.97045  22220120.977                    22220128.938
 123489868.387 6  96225944.06943  23499337.211                    23499348.078
 120250221.621 7  93701543.05244  22882859.289                    22882867.734
 126999460.437 6  98960699.00943  24167193.273                    24167205.609
 117782207.586 7  91778318.23644  22413189.266                    22413198.969
 106768235.606 8  83196153.96846  20317294.969                    20317302.836
 110106437.774 8  85797362.34846  20952543.539                    20952549.492
 119972304.120 7  93484978.21344  22829974.320                    22829983.785
 110841439.579 8                  21092412.625
 11  7 26  1 10  0.0000000  0 10G10G17G28G12G05G09G04G02G27G01
 113645858.453 7  88555302.61845  21626075.469                    21626084.355
 116810096.102 7  91020947.39445  22228200.258                    22228208.332
 123581939.026 6  96297687.28543  23516857.719                    23516867.988
 120160396.372 7  93631549.41844  22865766.313                    22865774.355
 126893154.494 6  98877863.45643  24146963.719                    24146975.988
 117828065.872 7  91814051.96444  22421915.648                    22421925.746
 106814707.257 8  83232365.65446  20326138.211                    20326146.227
 110068304.314 8  85767647.99446  20945287.141                    20945293.391
 120015667.731 6  93518768.02544  22838225.438                    22838235.348
 110804558.273 8                  21085394.398
 11  7 26  1 10 30.0000000  0 10G10G17G28G12G05G09G04G02G27G01
 113581316.028 7  88505009.88445  21613793.055                    21613802.008
 116852655.980 7  91054110.94145  22236299.273                    22236306.477
 123674278.509 6  96369639.99343  23534429.328                    23534439.199
 120070753.355 7  93561697.82744  22848708.305                    22848716.109
 126786831.254 6  98795014.41643  24126731.570                    24126743.500
 117874421.651 7  91850173.36044  22430737.273                    22430746.535
 106861576.451 8  83268887.10346  20335057.188                    20335065.273
 110030540.713 8  85738221.84646  20938100.844                    20938107.273
 120059372.030 7  93552823.27644  22846541.898                    22846551.816
 110768086.470 8                  21078454.023
 11  7 26  1 11  0.0000000  0 10G10G17G28G12G05G09G04G02G27G01
 113517211.442 7  88455058.32045  21601593.742                    21601603.195
 116895321.034 7  91087356.44745  22244417.102                    22244425.629
 123766883.927 6  96441799.93243  23552051.492                    23552061.773
 119981293.934 7  93491989.27445  22831683.836                    22831692.703
 126680492.238 6  98712153.11443  24106495.273                    24106507.762
 117921271.563 7  91886679.78444  22439652.008                    22439661.594
 106908839.990 8  83305715.83946  20344051.258                    20344058.902
 109993145.846 7  85709083.02846  20930984.836                    20930990.695
 120103413.845 7  93587141.55244  22854923.813                    22854932.676
 110732023.128 8                  21071591.336
 11  7 26  1 11 30.0000000  0 10G10G17G28G12G05G09G04G02G27G01
 113453548.296 7  88405450.72645  21589479.719                    21589488.199
 116938091.765 7  91120684.27145  22252556.570                    22252565.422
 123859754.761 6  96514166.68143  23569724.016                    23569735.164
 119892021.018 7  93422426.06945  22814696.086                    22814704.199
 126574140.358 7  98629281.80343  24086256.828                    24086268.477
 117968613.642 7  91923569.69444  22448660.758                    22448670.441
 106956496.244 8  83342850.57346  20353119.875                    20353127.992
 109956119.952 8  85680231.71646  20923939.188                    20923945.230
 120147791.473 6  93621721.49344  22863367.938                    22863377.871
 110696368.656 8                  21064806.711
 11  7 26  1 12  0.0000000  0 10G10G17G28G12G05G09G04G02G27G01
 113390329.858 7  88356189.66045  21577449.391                    21577457.863
 116980968.924 7  91154095.05245  22260715.578                    22260724.074
 123952889.851 6  96586739.36843  23587447.281                    23587458.176
 119802937.593 7  93353010.51745  22797744.172                    22797752.730
 126467779.092 6  98546403.11044  24066017.102                    24066028.664
 118016445.405 7  91960841.17044  22457763.859                    22457772.512
 107004543.374 8  83380289.89246  20362262.852                    20362271.020
 109919463.478 8  85651668.26046  20916963.211                    20916969.672
 120192502.849 6  93656561.50344  22871875.844                    22871886.898
 110661123.451 8                  21058099.828
 11  7 26  1 12 30.0000000  0 10G10G17G28G12G05G09G04G02G27G01
 113327557.902 7  88307276.50445  21565504.547                    21565513.109
 117023952.353 7  91187588.62545  22268895.938                    22268903.828
 124046286.121 6  96659515.57143  23605220.484                    23605231.055
 119714045.107 7  93283743.73645  22780828.164                    22780835.844
 126361410.040 6  98463518.42544  24045775.078                    24045787.145
 118064762.730 7  91998491.04744  22466957.695                    22466966.996
 107052977.786 8  83418030.99346  20371479.328                    20371487.465
 109883175.184 8  85623391.70546  20910057.781                    20910064.168
 120237544.628 6  93691658.97444  22880446.688                    22880457.605
 110626285.891 8                  21051470.195
 11  7 26  1 13  0.0000000  0 10G10G17G28G12G05G09G04G02G27G01
 113265235.943 7  88258713.97945  21553645.266                    21553653.660
 117067042.834 7  91221165.60545  22277095.398                    22277103.305
 124139942.339 6  96732494.32343  23623042.594                    23623053.043
 119625346.583 7  93214628.10345  22763949.250                    22763957.223
 126255036.788 6  98380630.43043  24025532.547                    24025545.168
 118113563.836 7  92036517.87044  22476244.430                    22476253.574
 107101798.010 8  83456072.71046  20380769.992                    20380778.102
 109847255.436 8  85595402.31146  20903222.586                    20903228.223
 120282915.121 7  93727012.56644  22889081.438                    22889091.758
 110591856.442 8                  21044918.711
 11  7 26  1 13 30.0000000  0 10G10G17G28G12G05G09G04G02G27G01
 113203367.640 7  88210504.96145  21541871.797                    21541880.566
 117110241.179 7  91254826.64345  22285315.688                    22285323.527
 124233857.496 6  96805674.84343  23640914.500                    23640924.754
 119536845.098 7  93145666.00945  22747108.242                    22747116.125
 126148662.615 6  98297741.70044  24005290.250                    24005302.430
 118162846.585 7  92074919.98945  22485622.414                    22485631.840
 107151002.418 8  83494413.80046  20390133.039                    20390141.059
 109811704.881 7  85567700.60546  20896457.547                    20896463.945
 120328612.596 7  93762620.95744  22897777.828                    22897787.293
 110557835.903 8                  21038444.609
 11  7 26  1 14  0.0000000  0 10G10G17G28G12G05G09G04G02G27G01
 113141954.584 7  88162650.67545  21530184.984                    21530194.145
 117153547.269 7  91288571.63545  22293556.352                    22293564.855
 124328029.113 6  96879055.21543  23658834.586                    23658845.203
 119448542.210 7  93076858.66545  22730304.266                    22730312.461
 126042289.268 6  98214853.65544  23985047.695                    23985060.531
 118212606.993 7  92113694.33745  22495091.984                    22495101.273
 107200587.676 8  83533051.65046  20399568.625                    20399576.910
 109776522.229 8  85540285.58046  20889762.508                    20889768.664
 120374633.975 7  93798481.72344  22906534.922                    22906544.805
 110524222.890 8                  21032048.164
 11  7 26  1 14 30.0000000  0 10G10G17G28G12G05G09G04G02G27G01
 113080999.970 7  88115153.62445  21518585.234                    21518594.145
 117196961.710 7  91322401.06845  22301818.195                    22301826.523
 124422455.966 6  96952634.46743  23676803.125                    23676814.195
 119360440.898 7  93008208.37545  22713539.102                    22713547.125
 125935920.088 6  98131968.84644  23964806.102                    23964818.582
 118262842.771 7  92152839.08245  22504651.227                    22504660.910
 107250552.061 8  83571984.91446  20409076.758                    20409084.863
 109741707.790 8  85513157.47446  20883137.289                    20883143.652
 120420977.392 7  93834593.45144  22915353.703                    22915363.551
 110491017.354 8                  21025729.617
 11  7 26  1 15  0.0000000  0 10G10G17G28G12G05G09G04G02G27G01
 113020506.116 7  88068015.59845  21507074.328                    21507082.953
 117240484.664 7  91356315.06645  22310100.383                    22310108.672
 124517135.673 6  97026410.77843  23694821.008                    23694831.820
 119272543.118 7  92939716.69045  22696812.445                    22696820.387
 125829557.385 7  98049089.02644  23944565.836                    23944578.141
 118313550.746 7  92192351.76744  22514301.273                    22514310.125
 107300892.665 8  83611211.33946  20418656.570                    20418664.391
 109707260.801 8  85486315.70246  20876582.445                    20876588.695
 120467640.243 6  93870954.06144  22924233.875                    22924243.441
 110458218.832 8                  21019488.133
 11  7 26  1 15 30.0000000  0 10G10G17G28G12G05G09G04G02G27G01
 112960476.521 7  88021239.35045  21495650.758                    21495659.676
 117284117.164 7  91390314.41745  22318403.492                    22318411.293
 124612067.116 6  97100383.25243  23712885.289                    23712896.723
 119184851.914 7  92871385.95744  22680124.797                    22680133.504
 125723204.540 6  97966216.87243  23924327.805                    23924339.395
 118364728.621 7  92232230.62044  22524039.656                    22524048.750
 107351607.882 8  83650729.67846  20428307.203                    20428315.160
 109673181.950 8  85459760.79546  20870097.313                    20870103.406
 120514620.280 7  93907561.82944  22933173.969                    22933183.457
 110425827.397 8                  21013324.133
 11  7 26  1 16  0.0000000  0 10G10G17G28G12G05G09G04G02G27G01
 112900914.399 7  87974827.36745  21484316.391                    21484324.676
 117327859.718 7  91424399.50945  22326727.625                    22326735.230
 124707249.019 6  97174550.87743  23730997.977                    23731009.660
 119097370.055 7  92803218.35545  22663478.219                    22663486.098
 125616864.408 7  97883354.64944  23904091.078                    23904103.430
 118416374.022 7  92272473.78844  22533866.977                    22533876.711
 107402695.967 8  83690538.56046  20438029.148                    20438037.105
 109639471.119 8  85433492.65046  20863682.805                    20863688.508
 120561915.499 7  93944415.21844  22942174.086                    22942183.457
 110393843.219 8                  21007237.672
 11  7 26  1 16 30.0000000  0 10G10G17G28G12G05G09G04G02G27G01
 112841821.652 7  87928781.13045  21473071.438                    21473080.117
 117371712.012 7  91458570.11545  22335072.438                    22335079.801
 124802678.723 6  97248911.59143  23749158.172                    23749168.402
 119010099.392 7  92735215.33545  22646870.711                    22646878.891
 125510539.303 7  97800504.15843  23883858.555                    23883869.578
 118468483.253 7  92313078.35044  22543783.531                    22543792.977
 107454153.413 8  83730635.27446  20447821.102                    20447828.750
 109606127.108 7  85407510.33946  20857337.188                    20857343.273
 120609522.875 7  93981511.82944  22951233.469                    22951242.320
 110362264.961 8                  21001228.719
 11  7 26  1 17  0.0000000  0 10G10G17G28G12G05G09G04G02G27G01
 112783200.782 7  87883102.59645  21461916.195                    21461924.742
 117415674.671 7  91492826.71245  22343437.664                    22343445.988
 124898354.428 6  97323463.98743  23767364.672                    23767374.910
 118923042.469 7  92667378.82645  22630304.844                    22630311.992
 125404231.919 6  97717667.43644  23863628.695                    23863639.500
 118521053.112 7  92354041.84744  22553786.891                    22553796.609
 107505977.985 8  83771018.04546  20457682.586                    20457691.082
 109573149.577 8  85381813.57446  20851061.438                    20851067.777
 120657439.674 7  94018849.55444  22960351.484                    22960361.305
 110331092.373 8                  20995296.898
 11  7 26  1 17 30.0000000  0 10G10G17G28G12G05G09G04G02G27G01
 112725055.014 7  87837794.27845  21450851.227                    21450860.094
 117459748.681 7  91527170.10145  22351824.883                    22351833.027
 124994274.655 6  97398206.93242  23785617.492                    23785628.234
 118836202.240 7  92599711.19845  22613779.117                    22613787.484
 125297945.576 7  97634847.18144  23843402.453                    23843414.426
 118574081.337 7  92395362.51344  22563878.273                    22563887.250
 107558168.112 8  83811685.66446  20467614.328                    20467622.461
 109540539.107 7  85356402.82746  20844856.172                    20844861.828
 120705664.280 7  94056427.11644  22969527.930                    22969538.012
 110300325.814 8                  20989442.289
 11  7 26  1 18  0.0000000  0 10G10G17G28G12G05G09G04G02G27G01
 112667386.892 7  87792858.14845  21439877.070                    21439886.020
 117503934.012 7  91561600.22945  22360233.227                    22360241.164
 125090437.704 6  97473139.08842  23803916.523                    23803927.695
 118749580.740 7  92532213.95745  22597296.195                    22597303.531
 125191682.851 7  97552045.29544  23823181.859                    23823192.785
 118627564.564 7  92437037.72644  22574055.781                    22574064.746
 107610720.746 8  83852635.76446  20477614.672                    20477622.664
 109508294.756 7  85331277.39246  20838720.563                    20838726.121
 120754193.731 7  94094242.25344  22978763.086                    22978772.316
 110269964.376 8                  20983664.461
 11  7 26  1 18 30.0000000  0 10G10G17G28G12G05G09G04G02G27G01
 112610199.144 7  87748296.32845  21428994.398                    21429003.418
 117548231.548 7  91596117.80745  22368662.922                    22368670.652
 125186841.613 6  97548258.92242  23822261.898                    23822272.785
 118663180.485 7  92464889.16245  22580854.297                    22580862.547
 125085446.446 7  97469263.94744  23802965.172                    23802976.813
 118681500.160 7  92479065.43244  22584319.297                    22584328.566
 107663633.775 8  83893866.67946  20487683.430                    20487692.012
 109476416.406 7  85306437.16046  20832654.133                    20832660.156
 120803025.600 7  94132293.03644  22988055.219                    22988065.098
 110240007.437 8                  20977963.852
 11  7 26  1 19  0.0000000  0 10G10G17G28G12G05G09G04G02G27G01
 112553494.724 7  87704111.14045  21418203.844                    21418212.602
 117592641.513 7  91630722.97945  22377113.461                    22377122.051
 125283484.881 6  97623565.32142  23840652.648                    23840663.449
 118577004.692 7  92397739.22145  22564455.594                    22564463.688
 124979239.545 7  97386505.59244  23782754.180                    23782765.570
 118735885.405 7  92521443.51444  22594668.734                    22594678.195
 107716905.399 8  83935377.02846  20497820.555                    20497829.336
 109444904.053 7  85281882.12946  20826657.281                    20826663.047
 120852158.127 7  94170578.08644  22997404.875                    22997414.453
 110210455.558 8                  20972340.203
 11  7 26  1 19 30.0000000  0 10G10G17G28G12G05G09G04G02G27G01
 112497275.429 7  87660303.96745  21407505.898                    21407514.766
 117637164.005 7  91665415.83545  22385586.289                    22385594.500
 125380365.049 6  97699056.25942  23859089.039                    23859099.246
 118491054.904 7  92330765.38045  22548100.672                    22548107.293
 124873064.447 6  97303772.02344  23762550.344                    23762560.828
 118790716.731 6  92564169.18144  22605103.203                    22605111.848
 107770532.588 8  83977164.43546  20508026.172                    20508034.059
 109413756.875 8  85257611.63946  20820730.359                    20820736.086
 120901588.072 7  94209094.90244  23006811.336                    23006820.695
 110181307.212 8                  20966793.344
 11  7 26  1 20  0.0000000  0 10G10G17G28G12G05G09G04G02G27G01
 112441545.133 7  87616877.82645  21396900.891                    21396909.641
 117681800.174 7  91700197.25045  22394079.586                    22394087.813
 125477481.073 5  97774731.04242  23877569.570                    23877579.988
 118405334.633 7  92263970.41245  22531788.031                    22531795.926
 124766924.596 7  97221065.92644  23742352.016                    23742363.477
 118845992.083 7  92607240.86045  22615621.586                    22615630.891
 107824513.700 8  84019227.63846  20518298.156                    20518306.438
 109382975.331 8  85233626.06546  20814872.914                    20814879.117
 120951313.699 6  94247842.09844  23016274.172                    23016283.648
 110152563.002 8                  20961323.320
 11  7 26  1 20 30.0000000  0 10G10G17G28G12G05G09G04G02G27G01
 112386306.157 7  87573834.52945  21386389.109                    21386397.543
 117726550.415 7  91735067.56445  22402595.742                    22402603.355
 125574831.263 5  97850588.22842  23896094.094                    23896105.340
 118319846.155 7  92197356.03545  22515520.063                    22515527.387
 124660822.893 6  97138389.51644  23722160.609                    23722172.609
 118901708.305 7  92650656.07344  22626223.672                    22626233.355
 107878846.442 8  84061564.82546  20528637.594                    20528645.762
 109352558.939 8  85209924.99446  20809084.750                    20809090.742
 121001332.248 7  94286817.57444  23025791.711                    23025801.977
 110124222.435 8                  20955930.313
 11  7 26  1 21  0.0000000  0 10G10G17G28G12G05G09G04G02G27G01
 112331560.144 7  87531175.36545  21375971.531                    21375980.340
 117771414.560 7  91770026.63145  22411133.078                    22411140.867
 125672412.729 5                  23914663.703
 118234591.125 7  92130923.57045  22499296.586                    22499304.617
 124554761.206 6  97055744.35244  23701978.117                    23701989.207
 118957861.447 7  92694411.71944  22636909.711                    22636918.918
 107933527.436 8  84104173.39146  20539042.313                    20539051.195
 109322506.097 7  85186507.22446  20803365.586                    20803372.074
 121051640.522 7  94326018.79644  23035364.602                    23035374.645
 110096284.078 8                  20950613.641
 11  7 26  1 21 30.0000000  0 10G10G17G28G12G05G09G04G02G27G01
 112277310.799 7  87488903.20845  21365648.008                    21365656.762
 117816393.845 7  91805075.42745  22419691.938                    22419700.551
 125770224.644 5                  23933275.219
 118149573.166 7  92064675.82945  22483117.805                    22483125.789
 124448743.312 7  96973133.25744  23681803.547                    23681814.512
 119014449.167 7  92738506.01944  22647677.594                    22647686.629
 107988555.111 8  84147052.08946  20549514.047                    20549522.148
 109292817.730 8  85163373.46046  20797716.047                    20797722.156
 121102236.924 7  94365444.55244  23044993.594                    23045003.211
 110068748.374 8                  20945374.047
 11  7 26  1 22  0.0000000  0 10G10G17G28G12G05G09G04G02G27G01
 112223560.032 7  87447019.55545  21355419.695                    21355427.754
 117861488.207 7  91840213.88645  22428273.086                    22428281.953
 125868264.59015                  23951932.359
 118064794.333 7  91998614.41845  22466985.344                    22466992.816
 124342771.756 7  96890558.26344  23661637.367                    23661648.516
 119071468.143 7  92782936.33344  22658527.305                    22658537.547
 108043927.175 8  84190199.14946  20560051.094                    20560059.523
 109263492.951 8  85140522.99746  20792135.867                    20792141.883
 121153118.607 7  94405092.58044  23054675.539                    23054686.121
 110041614.338 8                  20940210.375
 11  7 26  1 22 30.0000000  0 10G10G17G28G12G05G09G04G02G27G01
 112170310.433 7  87405526.41545  21345286.727                    21345295.094
 117906698.401 7  91875442.61745  22436876.875                    22436885.027
 125966530.895 5                  23970633.445
 117980257.380 7  91932741.49245  22450898.211                    22450906.699
 124236849.589 7  96808021.72144  23641481.461                    23641492.246
 119128915.661 6  92827700.58144  22669459.773                    22669468.922
 108099641.088 8  84233612.58446  20570653.422                    20570661.602
 109234531.734 8  85117955.83046  20786624.680                    20786630.742
 121204283.369 7  94444961.20644  23064412.570                    23064422.078
 110014881.794 8                  20935123.430
 11  7 26  1 23  0.0000000  0 10G10G17G28G12G05G09G04G02G27G01
 112117564.361 7  87364425.63945  21335249.297                    21335257.566
 117952024.710 7  91910761.81645  22445502.023                    22445510.004
 126065021.40114                  23989375.023
 117895964.528 7  91867058.77045  22434857.758                    22434865.973
 124130979.236 7  96725525.54944  23621334.961                    23621345.355
 119186788.393 7  92872796.18944  22680473.289                    22680481.977
 108155694.486 8  84277290.54646  20581320.031                    20581328.305
 109205933.397 8  85095671.44546  20781182.969                    20781188.484
 121255728.434 7  94485048.25144  23074201.484                    23074211.617
 109988550.025 8                  20930112.852
 11  7 26  1 23 30.0000000  0 10G10G17G28G12G05G09G04G02G27G01
 112065325.148 7  87323719.80545  21325308.336                    21325316.676
 117997468.264 7  91946172.36045  22454149.234                    22454157.633
 126163735.43614                  24008159.555
 117811918.808 7  91801568.60645  22418864.211                    22418872.383
 124025164.104 7  96643072.39643  23601198.352                    23601208.512
 119245083.555 7  92918220.92644  22691566.484                    22691574.863
 108212085.362 8  84321231.49346  20592050.500                    20592058.906
 109177697.662 7  85073669.60146  20775809.414                    20775815.688
 121307451.605 7  94525351.98144  23084045.070                    23084055.227
 109962619.116 8                  20925178.602
 11  7 26  1 24  0.0000000  0 10G10G17G28G12G05G09G04G02G27G01
 112013595.830 8  87283411.29845  21315464.570                    21315473.109
 118043029.514 7  91981674.63645  22462819.797                    22462828.215
 126262670.35414                  24026987.758
 117728123.285 7  91736273.40645  22402918.750                    22402926.793
 123919407.491 7  96560664.80244  23581073.039                    23581083.660
 119303798.930 7  92963973.13044  22702739.328                    22702748.504
 108268811.945 8  84365434.02546  20602845.500                    20602853.609
 109149824.829 8  85051950.53446  20770505.641                    20770511.207
 121359450.841 7  94565870.81544  23093940.055                    23093950.211
 109937088.742 8                  20920320.180
 11  7 26  1 24 30.0000000  0 10G10G17G28G12G05G09G04G02G27G01
 111962377.872 7  87243501.25345  21305717.648                    21305726.574
 118088708.570 7  92017268.69445  22471511.852                    22471520.227
 126361823.84414                  24045856.609
 117644579.742 7  91671174.54245  22387021.117                    22387028.945
 123813711.758 6  96478304.68744  23560960.156                    23560970.664
 119362930.719 7  93010049.78144  22713991.836                    22714001.207
 108325871.179 8  84409895.76646  20613703.422                    20613711.281
 109122313.877 8  85030513.44546  20765270.375                    20765276.191
 121411722.726 7  94606602.14744  23103887.078                    23103897.109
 109911957.651 8                  20915537.992
 11  7 26  1 25  0.0000000  0  9G10G17G12G05G09G04G02G27G01
 111911673.559 7  87203991.45545  21296069.398                    21296078.090
 118134505.798 7  92052954.82745  22480226.352                    22480235.250
 117561290.666 7  91606273.95845  22371171.922                    22371179.223
 123708079.562 6  96395994.09044  23540858.516                    23540868.973
 119422475.360 7  93056448.17344  22725322.469                    22725331.773
 108383260.419 8  84454614.65846  20624624.508                    20624632.277
 109095164.194 8  85009357.86346  20760104.305                    20760110.055
 121464264.519 7  94647543.79644  23113884.930                    23113895.535
 109887225.366 8                  20910831.484
 11  7 26  1 25 30.0000000  0  9G10G17G12G05G09G04G02G27G01
 111861485.384 7  87164883.83945  21286518.852                    21286527.270
 118180421.987 7  92088733.65345  22488964.570                    22488973.023
 117478258.472 7  91541573.56845  22355371.234                    22355378.586
 123602513.876 6  96313735.28644  23520769.477                    23520780.555
 119482429.979 7  93103166.02844  22736731.297                    22736740.945
 108440977.614 8  84499589.09046  20635607.445                    20635615.551
 109068375.292 8  84988483.41546  20755006.383                    20755011.938
 121517073.864 7  94688693.91144  23123934.906                    23123944.797
 109862891.322 8                  20906200.633
 11  7 26  1 26  0.0000000  0  9G10G17G12G05G09G04G02G27G01
 111811815.968 7  87126180.44945  21277066.891                    21277075.445
 118226456.900 7  92124605.00545  22497724.953                    22497733.004
 117395486.006 7  91477075.53645  22339620.211                    22339627.426
 123497017.436 7  96231530.49544  23500694.180                    23500704.992
 119542791.383 7  93150200.82044  22748217.961                    22748227.379
 108499020.226 8  84544817.09946  20646652.711                    20646660.285
 109041946.590 8  84967889.63546  20749977.133                    20749982.453
 121570148.330 7  94730050.60044  23134034.133                    23134044.191
 109838954.837 8                  20901645.930
 11  7 26  1 26 30.0000000  0  9G10G17G12G05G09G04G02G27G01
 111762667.804 7  87087883.23245  21267714.172                    21267723.047
 118272611.598 7  92160569.67145  22506507.336                    22506515.840
 117312976.103 7  91412782.10445  22323919.234                    22323926.664
 123391593.566 7  96149382.21744  23480632.992                    23480644.008
 119603556.565 7  93197550.29644  22759781.328                    22759791.055
 108557386.242 8  84590297.10146  20657759.461                    20657767.215
 109015878.000 8  84947576.45146  20745016.656                    20745022.156
 121623485.423 7  94771611.94444  23144184.039                    23144194.121
 109815415.224 8                  20897166.383
 11  7 26  1 27  0.0000000  0  9G10G17G12G05G09G04G02G27G01
 111714043.133 7  87049993.94145  21258461.320                    21258469.730
 118318886.765 7  92196628.22245  22515313.141                    22515321.469
 117230730.863 7  91348694.91945  22308267.992                    22308275.566
 123286245.138 7  96067292.72744  23460586.031                    23460596.457
 119664722.446 7  93245211.98444  22771420.922                    22771430.402
 108616073.320 8  84636027.29646  20668926.961                    20668935.328
 108990168.948 8  84927543.43346  20740124.109                    20740129.898
 121677082.758 7  94813376.05244  23154383.398                    23154393.477
 109792272.252 8                  20892762.156
 11  7 26  1 27 30.0000000  0  9G10G17G12G05G09G04G02G27G01
 111665943.463 7  87012513.71045  21249308.117                    21249316.500
 118365282.116 7  92232780.43245  22524142.055                    22524150.676
 117148752.236 7  91284815.46945  22292668.125                    22292675.266
 123180974.184 7  95985263.62844  23440552.891                    23440563.797
 119726285.379 7  93293183.05944  22783136.422                    22783145.535
 108675078.268 8  84682005.17946  20680155.086                    20680163.402
 108964818.231 8  84907789.65146  20735300.188                    20735305.656
 121730936.868 7  94855340.26744  23164631.875                    23164641.805
 109769524.870 8                  20888433.750
 11  7 26  1 28  0.0000000  0  9G10G17G12G05G09G04G02G27G01
 111618372.592 7  86975445.57045  21240255.898                    21240263.906
 118411799.074 7  92269027.40045  22532994.125                    22533002.711
 117067043.803 7  91221146.57245  22277119.938                    22277127.465
 123075784.521 7  95903297.86245  23420536.141                    23420546.598
 119788242.679 6  93341461.42944  22794926.000                    22794935.648
 108734399.778 8  84728229.72846  20691443.898                    20691452.184
 108939826.297 8  84888315.43646  20730544.047                    20730549.707
 121785046.043 7  94897503.21944  23174927.648                    23174938.262
 109747172.943 8                  20884179.906
 11  7 26  1 28 30.0000000  0  9G10G17G12G05G09G04G02G27G01
 111571331.701 7  86938790.37345  21231304.023                    21231312.070
 118458437.642 7  92305369.13045  22541869.234                    22541877.711
 116985607.613 7  91157689.82145  22261622.617                    22261630.188
 122970678.439 7  95821397.22144  23400535.234                    23400545.320
 119850590.429 7  93390044.06244  22806790.227                    22806799.633
 108794034.556 8  84774698.38246  20702791.734                    20702800.230
 108915191.632 7  84869119.60846  20725856.281                    20725861.867
 121839406.923 7  94939862.28344  23185272.391                    23185282.805
 109725214.970 8                  20880001.633
 11  7 26  1 29  0.0000000  0  9G10G17G12G05G09G04G02G27G01
 111524823.942 7  86902550.61845  21222453.844                    21222462.141
 118505198.333 7  92341806.00345  22550767.313                    22550775.883
 116904446.953 7  91094447.74845  22246178.336                    22246186.121
 122865659.490 7  95739564.48644  23380550.086                    23380560.785
 119913326.296 7  93438929.11344  22818728.695                    22818738.379
 108853981.047 8  84821409.93046  20714199.180                    20714207.586
 108890914.758 8  84850202.58546  20721236.648                    20721242.594
 121894017.593 7  94982415.99544  23195665.078                    23195674.867
 109703651.342 8                  20875897.992
 11  7 26  1 29 30.0000000  0  9G10G17G12G05G09G04G02G27G01
 111478851.687 7  86866728.13545  21213705.594                    21213714.070
 118552081.910 7  92378338.62245  22559689.453                    22559697.305
 116823564.197 7  91031422.27045  22230786.711                    22230795.043
 122760730.757 7  95657802.04844  23360582.984                    23360593.230
 119976447.286 7  93488114.27744  22830740.055                    22830749.516
 108914237.218 8  84868362.78946  20725665.742                    20725673.832
 108866995.272 8  84831564.03046  20716684.508                    20716690.434
 121948875.599 7  95025162.43344  23206104.031                    23206113.895
 109682481.370 8                  20871869.836
 11  7 26  1 30  0.0000000  0  9G10G17G12G05G09G04G02G27G01
 111433416.854 7  86831324.42545  21205059.594                    21205068.242
 118599088.893 7  92414967.41545  22568634.898                    22568642.680
 116742961.570 7  90968615.05445  22215449.063                    22215456.496
 122655894.884 7  95576111.96444  23340633.469                    23340643.336
 120039949.781 7  93537596.69344  22842824.367                    22842833.656
 108974800.274 8  84915554.79346  20737190.383                    20737198.563
 108843432.197 8  84813203.19346  20712201.055                    20712206.625
 122003978.135 6  95068099.42143  23216589.180                    23216599.816
 109661704.251 8                  20867915.586
 11  7 26  1 30 30.0000000  0  9G10G17G12G05G09G04G02G27G01
 111388521.477 7  86796341.05745  21196516.180                    21196525.238
 118646219.585 7  92451692.60745  22577602.813                    22577611.219
 116662641.657 7  90906028.16145  22200164.492                    22200172.480
 122551154.173 6  95494496.00544  23320701.281                    23320711.211
 120103830.475 7  93587373.83744  22854981.023                    22854990.480
 109035667.443 8  84962983.75146  20748772.898                    20748781.219
 108820224.575 8  84795119.34146  20707784.922                    20707790.348
 122059322.181 7  95111224.61144  23227121.055                    23227131.246
 109641318.892 8                  20864036.211
 11  7 26  1 31  0.0000000  0  9G10G17G12G05G09G04G02G27G01
 111344167.802 8  86761779.79945  21188075.984                    21188084.809
 118693474.573 7  92488514.65345  22586595.195                    22586603.586
 116582607.081 7  90843663.61345  22184934.125                    22184941.883
 122446511.991 7  95412956.85344  23300788.641                    23300798.500
 120168086.128 7  93637443.13744  22867207.781                    22867217.945
 109096836.830 8  85010648.21046  20760413.086                    20760421.617
 108797372.058 7  84777312.20746  20703436.016                    20703441.809
 122114905.265 7  95154536.02044  23237698.984                    23237708.277
 109621324.795 8                  20860231.969
 11  7 26  1 31 30.0000000  0  9G10G17G12G05G09G04G02G27G01
 111300357.526 8  86727641.97445  21179739.492                    21179747.691
 118740854.226 7  92525433.84945  22595611.461                    22595619.473
 116502859.914 7  90781523.03145  22169758.813                    22169766.438
 122341971.200 7  95331496.68544  23280894.813                    23280904.824
 120232713.318 7  93687801.99044  22879505.789                    22879515.406
 109158305.590 8  85058545.94646  20772109.875                    20772118.145
 108774873.870 8  84759781.15646  20699154.406                    20699160.207
 122170724.539 6  95198031.49643  23248320.828                    23248330.203
 109601720.777 8                  20856501.367
 11  7 26  1 32  0.0000000  0  9G10G17G12G05G09G04G02G27G01
 111257093.693 8  86693929.94545  21171506.398                    21171514.629
 118788359.673 7  92562451.07345  22604651.836                    22604659.789
 116423403.620 7  90719609.09745  22154639.039                    22154646.539
 122237535.118 7  95250118.09244  23261021.453                    23261031.273
 120297709.254 7  93738448.15944  22891874.422                    22891884.504
 109220072.125 8  85106675.71346  20783863.656                    20783872.438
 108752730.111 7  84742526.31746  20694940.742                    20694946.555
 122226777.817 6  95241709.29143  23258986.586                    23258997.289
 109582506.717 8                  20852845.086
 11  7 26  1 32 30.0000000  0  9G10G17G12G05G09G04G02G27G01
 111214378.258 8  86660645.23345  21163377.781                    21163386.219
 118835990.634 7  92599566.09145  22613715.219                    22613723.129
 116344240.605 7  90657923.68745  22139574.609                    22139582.035
 122133206.763 7  95168823.46344  23241168.078                    23241178.313
 120363070.550 7  93789379.01144  22904312.484                    22904322.102
 109282133.947 8  85155035.57846  20795674.063                    20795682.219
 108730939.994 8  84725547.03346  20690794.273                    20690800.188
 122283062.595 6  95285567.49143  23269698.070                    23269707.809
 109563681.875 8                  20849262.852
 11  7 26  1 33  0.0000000  0  9G10G17G12G05G09G04G02G27G01
 111172213.107 8  86627789.32245  21155354.266                    21155362.082
 118883747.868 7  92636779.51744  22622803.156                    22622810.891
 116265372.989 7  90596468.47645  22124566.180                    22124573.836
 122028988.773 7  95087614.82245  23221336.164                    23221345.496
 120428793.932 7  93840591.99244  22916819.492                    22916828.969
 109344488.527 8  85203623.56846  20807540.148                    20807548.234
 108709502.530 8  84708842.53746  20686714.961                    20686720.465
 122339575.665 7  95329603.58243  23280451.984                    23280462.000
 109545245.436 8                  20845754.523
 11  7 26  1 33 30.0000000  0  9G10G17G12G05G09G04G02G27G01
 111130600.631 7  86595364.06945  21147435.570                    21147443.707
 118931632.438 7  92674092.16045  22631914.703                    22631923.492
 116186803.839 7  90535245.82745  22109614.758                    22109622.813
 121924884.141 7  95006494.50345  23201525.617                    23201535.344
 120494876.251 7  93892084.69444  22929393.727                    22929403.625
 109407133.680 8  85252437.98146  20819460.477                    20819469.016
 108688417.696 8  84692412.79746  20682702.617                    20682708.535
 122396314.740 7  95373815.78944  23291249.102                    23291259.234
 109527196.689 8                  20842319.672
 11  7 26  1 34  0.0000000  0  9G10G17G12G05G09G04G02G27G01
 111089542.817 7  86563371.02146  21139622.438                    21139630.359
 118979644.298 7  92711503.97145  22641051.844                    22641060.445
 116108535.569 7  90474257.63845  22094721.133                    22094728.684
 121820895.580 7  94925464.63045  23181737.047                    23181747.164
 120561313.957 6  93943854.29644  22942036.859                    22942046.523
 109470066.858 8  85301476.81846  20831436.656                    20831444.660
 108667684.395 7  84676256.99046  20678757.117                    20678762.801
 122453277.016 7  95418201.89844  23302089.648                    23302099.359
 109509534.902 8                  20838958.938
 11  7 26  1 34 30.0000000  0  9G10G17G12G05G09G04G02G27G01
 111049041.725 8  86531811.78245  21131915.117                    21131923.113
 119027783.918 7  92749015.34445  22650211.867                    22650220.582
 116030570.458 7  90413505.67245  22079884.883                    22079892.203
 121717026.174 6  94844527.61945  23161971.102                    23161981.289
 120628103.712 7  93995898.22244  22954746.063                    22954756.691
 109533285.638 8  85350738.21446  20843466.547                    20843474.781
 108647301.861 7  84660374.51846  20674878.594                    20674884.078
 122510459.829 7  95462759.87344  23312970.391                    23312980.484
 109492258.841 8                  20835671.602
 11  7 26  1 35  0.0000000  0  9G10G17G12G05G09G04G02G27G01
 111009098.766 8  86500687.44145  21124314.406                    21124322.594
 119076051.547 7  92786626.46744  22659397.195                    22659405.160
 115952910.932 7  90352991.83345  22065106.258                    22065114.160
 121613278.668 7  94763685.58844  23142228.172                    23142238.148
 120695242.132 7  94048213.84044  22967522.602                    22967531.957
 109596787.697 8  85400220.33346  20855550.555                    20855559.063
 108627269.241 7  84644764.70146  20671066.078                    20671072.273
 122567860.230 7  95507487.38944  23323893.070                    23323903.469
 109475367.646 8                  20832457.164
 11  7 26  1 35 30.0000000  0  9G10G17G12G05G09G04G02G27G01
 110969716.724 8  86470000.19345  21116819.820                    21116828.055
 119124448.328 7  92824338.21845  22668607.328                    22668615.266
 115875560.020 7  90292718.47645  22050386.758                    22050394.664
 121509656.066 6  94682940.86144  23122509.320                    23122519.293
 120762726.287 6  94100798.84244  22980364.125                    22980373.996
 109660570.873 8  85449921.50346  20867687.938                    20867696.426
 108607586.421 7  84629427.46046  20667320.602                    20667326.699
 122625475.853 7  95552382.60944  23334858.359                    23334867.266
 109458860.753 8                  20829315.836
 11  7 26  1 36  0.0000000  0  9G10G17G12G05G09G04G02G27G01
 110930897.780 8  86439751.71145  21109432.891                    21109441.090
 119172974.986 7  92862151.18245  22677841.414                    22677849.297
 115798520.357 7  90232687.63245  22035726.797                    22035734.543
 121406162.041 6  94602296.32344  23102815.406                    23102825.184
 120830553.092 7  94153650.85044  22993271.359                    22993281.457
 109724633.197 8  85499840.18546  20879878.891                    20879887.098
 108588253.075 7  84614362.54546  20663641.906                    20663647.234
 122683304.089 7  95597443.52344  23345861.164                    23345871.914
 109442737.994 8                  20826247.945
 11  7 26  1 36 30.0000000  0  9G10G17G12G05G09G04G02G27G01
 110892643.732 8  86409943.40045  21102153.531                    21102161.758
 119221632.107 7  92900065.79745  22687100.523                    22687108.555
 115721794.569 7  90172901.36745  22021126.570                    22021134.145
 121302799.240 7  94521754.04444  23083145.922                    23083155.445
 120898719.166 7  94206767.22944  23006243.344                    23006252.445
 109788972.326 8  85549974.56146  20892122.336                    20892130.375
 108569268.478 7  84599569.36146  20660028.680                    20660034.668
 122741342.454 7  95642668.16144  23356905.953                    23356917.316
 109426998.122 8                  20823252.500
 11  7 26  1 37  0.0000000  0  9G10G17G12G05G09G04G02G27G01
 110854955.773 8  86380576.19545  21094982.125                    21094990.078
 119270419.228 7  92938081.73945  22696384.602                    22696392.426
 115645384.649 7  90113361.24845  22006585.633                    22006593.598
 121199570.135 6  94441315.91044  23063501.594                    23063511.434
 120967220.457 7  94260144.81444  23019278.555                    23019288.281
 109853585.209 8  85600322.26846  20904417.555                    20904425.973
 108550631.134 8  84585046.78746  20656482.633                    20656488.453
 122799587.690 7  95688053.98244  23367990.188                    23368000.586
 109411639.815 8                  20820329.961
 11  7 26  1 37 30.0000000  0  9G10G17G12G05G09G04G02G27G01
 110817836.714 8  86351652.29245  21087917.930                    21087925.875
 119319337.898 7  92976200.18645  22705693.117                    22705701.813
 115569293.712 7  90054069.65745  21992106.203                    21992114.137
 121096478.582 7  94360984.98244  23043884.141                    23043893.230
 121036054.485 7  94313781.66244  23032377.141                    23032386.949
 109918470.527 8  85650882.25046  20916764.883                    20916773.281
 108532341.331 7  84570795.00046  20653002.078                    20653007.668
 122858037.824 7  95733599.48444  23379112.523                    23379122.961
 109396663.171 8                  20817480.102
 11  7 26  1 38  0.0000000  0  9G10G17G12G05G09G04G02G27G01
 110781287.314 7  86323172.27045  21080962.508                    21080971.129
 119368387.326 7  93014420.51345  22715027.703                    22715035.594
 115493523.772 7  89995028.18845  21977688.039                    21977695.215
 120993526.465 7  94280762.70944  23024292.547                    23024302.215
 121105217.022 7  94367674.49244  23045538.445                    23045547.910
 109983624.833 8  85701651.82846  20929163.289                    20929171.512
 108514397.060 8  84556812.44946  20649587.313                    20649593.125
 122916689.035 7  95779301.65244  23390273.938                    23390284.129
 109382066.221 8                  20814702.367
 11  7 26  1 38 30.0000000  0  9G10G17G12G05G09G04G02G27G01
 110745310.760 7  86295138.62945  21074116.680                    21074124.973
 119417569.558 7  93052744.32245  22724385.711                    22724394.352
 115418078.062 7  89936239.37945  21963330.781                    21963338.309
 120890717.822 7  94200652.23444  23004729.570                    23004737.766
 121174705.745 7  94421821.50644  23058761.898                    23058771.262
 110049046.875 8  85752630.03246  20941612.719                    20941620.676
 108496799.138 8  84543099.81446  20646238.453                    20646244.449
 122975539.804 6  95825159.33343  23401472.320                    23401482.664
 109367849.096 8                  20811996.758
 11  7 26  1 39  0.0000000  0  9G10G17G12G05G09G04G02G27G01
 110709908.326 8  86267552.34745  21067379.734                    21067388.371
 119466884.312 7  93091171.39045  22733770.883                    22733779.277
 115342958.663 7  89877704.81945  21949036.289                    21949043.676
 120788054.816 7  94120655.23945  22985192.445                    22985202.055
 121244516.589 7  94476219.53044  23072046.070                    23072055.734
 110114733.913 8  85803814.72146  20954112.719                    20954120.359
 108479546.089 7  84529655.90746  20642955.633                    20642961.066
 123034586.741 7  95871169.84944  23412708.477                    23412719.000
 109354010.534 8                  20809363.719
 11  7 26  1 39 30.0000000  0  9G10G17G12G05G09G04G02G27G01
 110675081.539 7  86240414.62045  21060752.344                    21060761.281
 119516332.166 7  93129702.17045  22743180.031                    22743188.930
 115268168.034 7  89819426.44645  21934803.961                    21934811.824
 120685540.592 7  94040774.17545  22965684.891                    22965694.109
 121314646.253 7  94530865.97844  23085392.063                    23085401.066
 110180683.269 8  85855203.81046  20966662.484                    20966670.508
 108462636.834 8  84516479.89546  20639737.719                    20639743.645
 123093827.163 6  95917331.14244  23423982.328                    23423992.352
 109340549.339 8                  20806801.961
 11  7 26  1 40  0.0000000  0  9G10G17G12G05G09G04G02G27G01
 110640832.918 8  86213727.41145  21054235.023                    21054243.746
 119565913.907 7  93168337.29544  22752615.523                    22752623.375
 115193709.422 7  89761406.77545  21920634.797                    21920642.504
 120583178.295 7  93961011.54645  22946205.609                    22946215.297
 121385091.751 6  94585758.53544  23098797.047                    23098806.648
 110246893.164 8  85906795.91746  20979261.664                    20979269.746
 108446071.316 8  84503571.73546  20636585.336                    20636591.176
 123153258.617 6  95963641.30743  23435291.711                    23435301.973
 109327465.052 8                  20804311.781
 11  7 26  1 40 30.0000000  0  9G10G17G12G05G09G04G02G27G01
 110607163.947 8  86187491.88545  21047828.453                    21047836.352
 119615629.973 7  93207077.08045  22762075.648                    22762083.934
 115119584.847 7  89703647.37246  21906530.000                    21906537.516
 120480970.943 7  93881369.63344  22926756.102                    22926766.031
 121455849.666 6  94640894.52044  23112261.773                    23112271.289
 110313361.254 8  85958589.20945  20991909.844                    20991918.410
 108429848.664 7  84490930.73646  20633498.234                    20633504.465
 123212878.304 6  96010098.18743  23446636.891                    23446647.352
 109314756.477 8                  20801893.609
 11  7 26  1 41  0.0000000  0  9G10G17G12G05G09G04G02G27G01
 110574076.103 7  86161709.18845  21041531.820                    21041540.098
 119665480.718 7  93245921.81844  22771562.117                    22771570.605
 115045796.958 7  89646150.32645  21892488.313                    21892495.738
 120378921.320 7  93801850.62145  22907336.742                    22907345.824
 121526916.320 7  94696271.07544  23125784.742                    23125794.941
 110380084.954 8  86010581.67446  21004607.320                    21004615.910
 108413967.728 7  84478556.00246  20630475.906                    20630481.984
 123272683.267 6  96056699.39643  23458016.953                    23458027.586
 109302422.718 8                  20799546.336
 11  7 26  1 41 30.0000000  0  9G10G17G12G05G09G04G02G27G01
 110541570.900 7  86136380.49445  21035346.063                    21035354.766
 119715466.491 7  93284871.76745  22781074.063                    22781082.422
 114972347.971 7  89588917.35945  21878511.422                    21878518.848
 120277032.332 7  93722456.75345  22887946.188                    22887956.824
 121598288.290 7  94751885.57744  23139366.891                    23139376.344
 110447062.050 8  86062771.58946  21017352.625                    21017360.930
 108398427.791 7  84466446.98746  20627518.703                    20627525.000
 123332670.846 6  96103442.91543  23469432.523                    23469442.492
 109290462.851 8                  20797270.844
 11  7 26  1 42  0.0000000  0  9G10G17G12G05G09G04G02G27G01
 110509650.659 7  86111507.60745  21029272.313                    21029280.375
 119765588.319 7  93323927.72444  22790612.617                    22790620.359
 114899241.044 7  89531950.91145  21864599.102                    21864606.840
 120175307.364 6  93643190.71445  22868589.609                    22868599.012
 121669962.767 7  94807735.78844  23153006.336                    23153015.293
 110514290.688 8  86115157.51546  21030145.875                    21030154.238
 108383228.872 8  84454603.70846  20624626.539                    20624632.680
 123392838.843 6  96150327.01744  23480881.617                    23480892.160
 109278876.359 8                  20795065.602
 11  7 26  1 42 30.0000000  0  9G10G17G12G05G09G04G02G27G01
 110478316.992 7  86087091.79645  21023309.508                    21023317.578
 119815846.531 7  93363089.96245  22800175.891                    22800184.238
 114826478.523 7  89475252.85345  21850752.789                    21850760.586
 120073749.137 7  93564054.58345  22849264.094                    22849273.207
 121741936.291 7  94863819.02243  23166702.633                    23166711.965
 110581768.216 8  86167737.37746  21042986.398                    21042994.633
 108368369.666 8  84443025.11546  20621798.945                    20621804.961
 123453184.067 6  96197349.19843  23492365.773                    23492375.258
 109267662.080 8                  20792931.750
 11  7 26  1 43  0.0000000  0  9G10G17G12G05G09G04G02G27G01
 110447571.327 8  86063134.17945  21017458.430                    21017466.848
 119866241.579 7  93402358.80244  22809766.438                    22809773.953
 114754062.726 7  89418824.95545  21836973.141                    21836980.441
 119972360.581 7  93485050.67845  22829970.195                    22829979.492
 121814205.231 6  94920132.49443  23180453.836                    23180463.578
 110649492.427 8  86220509.45346  21055873.852                    21055882.465
 108353849.196 8  84431710.50246  20619035.695                    20619041.570
 123513703.660 6  96244507.29243  23503881.875                    23503892.367
 109256818.612 8                  20790868.195
 11  7 26  1 43 30.0000000  0  9G10G17G12G05G09G04G02G27G01
 110417415.112 8  86039635.87645  21011720.008                    21011728.270
 119916774.071 7  93441734.73944  22819382.266                    22819390.102
 114681996.237 7  89362669.25245  21823259.180                    21823266.656
 119871144.668 7  93406181.27345  22810709.422                    22810718.656
 121886766.276 7  94976673.53843  23194262.922                    23194271.461
 110717460.930 8  86273471.89045  21068807.852                    21068816.133
 108339667.028 8  84420659.49646  20616336.984                    20616342.797
 123574395.021 6  96291799.20144  23515431.328                    23515441.066
 109246345.462 8                  20788875.391
 11  7 26  1 44  0.0000000  0  9G10G17G12G05G09G04G02G27G01
 110387850.443 8  86016598.50945  21006094.125                    21006101.836
 119967444.586 7  93481218.23144  22829023.906                    22829032.438
 114610281.767 7  89306787.84945  21809612.414                    21809619.918
 119770104.725 7  93327448.99245  22791481.547                    22791491.012
 121959616.081 7  95033439.60044  23208125.672                    23208135.449
 110785671.666 8  86326623.07246  21081788.188                    21081796.750
 108325822.216 8  84409871.36846  20613702.289                    20613708.203
 123635255.508 6  96339222.94843  23527012.500                    23527022.871
 109236241.474 8                  20786952.648
 11  7 26  1 44 30.0000000  0  9G10G17G12G05G09G04G02G27G01
 110358878.429 8  85994022.95645  21000580.695                    21000588.703
 120018253.425 7  93520809.51744  22838692.680                    22838700.590
 114538921.842 7  89251182.70545  21796032.992                    21796040.934
 119669243.016 7  93248855.56745  22772288.781                    22772297.863
 122032751.105 7  95090427.90843  23222042.227                    23222051.727
 110854122.241 8  86379961.15645  21094813.344                    21094821.930
 108312313.849 8  84399345.39446  20611132.008                    20611137.508
 123696282.056 6  96386776.05643  23538626.250                    23538635.945
 109226505.580 8                  20785099.852
 11  7 26  1 45  0.0000000  0  9G10G17G12G05G09G04G02G27G01
 110330500.601 8  85971910.41645  20995180.523                    20995188.711
 120069201.578 7  93560509.34844  22848388.086                    22848395.793
 114467918.705 7  89195855.58745  21782521.680                    21782529.086
 119568563.038 7  93170403.75145  22753129.453                    22753138.801
 122106167.565 6  95147635.50144  23236014.008                    23236022.828
 110922810.274 8  86433484.27645  21107884.672                    21107892.984
 108299140.966 8  84389080.82646  20608625.242                    20608630.891
 123757471.983 6  96434456.45243  23550269.719                    23550280.422
 109217136.701 8                  20783316.805
 11  7 26  1 45 30.0000000  0  9G10G17G12G05G09G04G02G27G01
 110302718.464 8  85950262.04246  20989894.055                    20989901.723
 120120288.835 7  93600317.58144  22858108.813                    22858117.332
 114397274.945 7  89140808.50945  21769078.383                    21769085.699
 119468067.589 7  93092095.69345  22734005.758                    22734014.613
 122179862.415 6  95205060.01844  23250036.875                    23250046.758
 110991733.539 8  86487190.69846  21121000.539                    21121008.770
 108286302.915 8  84379077.17146  20606182.094                    20606187.703
 123818822.680 6  96482262.14243  23561944.430                    23561954.328
 109208134.016 8                  20781603.586
 11  7 26  1 46  0.0000000  0  9G10G17G12G05G09G04G02G27G01
 110275533.565 8  85929079.03745  20984720.992                    20984729.289
 120171515.945 7  93640234.79444  22867857.977                    22867865.859
 114326993.269 7  89086043.58645  21755703.797                    21755711.793
 119367759.865 7  93013933.93545  22714917.484                    22714926.492
 122253832.474 7  95262699.00144  23264112.813                    23264123.184
 111060890.078 8  86541078.89846  21134160.352                    21134168.855
 108273798.954 8  84369333.84646  20603802.930                    20603808.449
 123880331.483 6  96530191.02943  23573648.750                    23573659.637
 109199496.554 8                  20779960.023
 11  7 26  1 46 30.0000000  0  9G10G17G12G05G09G04G02G27G01
 110248947.656 8  85908362.79945  20979661.680                    20979670.039
 120222883.650 7  93680261.54744  22877632.742                    22877640.371
 114257076.119 7  89031562.69445  21742399.414                    21742406.715
 119267642.835 7  92935920.76045  22695866.180                    22695875.457
 122328074.298 7  95320549.74044  23278240.820                    23278250.543
 111130277.681 8  86595147.14845  21147364.516                    21147372.719
 108261628.338 8  84359850.27246  20601486.680                    20601492.203
 123941995.824 6  96578241.13544  23585383.313                    23585393.824
 109191223.113 8                  20778385.500
 11  7 26  1 47  0.0000000  0 10G10G17G25G12G05G09G04G02G27G01
 110222961.683 8  85888114.03345  20974716.641                    20974724.582
 120274392.494 7  93720398.29744  22887434.539                    22887443.004
 129678434.21815                  24677000.313
 114187525.948 7  88977367.77045  21729164.500                    21729171.539
 119167719.287 7  92858058.34745  22676851.359                    22676860.109
 122402584.044 7  95378609.26044  23292419.727                    23292428.883
 111199893.625 8  86649393.34345  21160612.039                    21160620.184
 108249790.034 8  84350625.64946  20599234.133                    20599239.477
 124003812.379 6  96626409.81543  23597147.680                    23597157.387
 109183312.471 8                  20776880.367
 11  7 26  1 47 30.0000000  0 10G10G17G25G12G05G09G04G02G27G01
 110197577.710 8  85868334.35945  20969885.555                    20969894.027
 120326043.223 7  93760645.58244  22897263.188                    22897271.863
 129574994.815 5                  24657315.344
 114118345.496 7  88923460.94345  21716000.039                    21716006.941
 119067992.760 7  92780349.43945  22657874.031                    22657882.777
 122477358.811 7  95436875.27144  23306648.883                    23306658.531
 111269736.196 8  86703816.11645  21173902.625                    21173910.723
 108238283.520 8  84341659.57446  20597044.430                    20597050.371
 124065779.114 6  96674695.55744  23608939.242                    23608949.109
 109175764.359 8                  20775444.000
 11  7 26  1 48  0.0000000  0 10G10G17G25G12G05G09G04G02G27G01
 110172796.692 8  85849024.52145  20965170.750                    20965178.277
 120377836.147 6  93801003.68144  22907119.375                    22907127.129
 129471661.140 6                  24637653.164
 114049537.004 7  88869843.93845  21702906.320                    21702913.082
 118968465.471 7  92702795.80945  22638934.367                    22638943.563
 122552394.959 7  95495344.94844  23320927.297                    23320937.984
 111339803.018 8  86758413.63245  21187236.039                    21187243.941
 108227107.526 8  84332951.02146  20594917.734                    20594923.375
 124127892.770 6  96723095.75544  23620759.609                    23620769.820
 109168576.967 8                  20774076.453
 11  7 26  1 48 30.0000000  0 10G10G17G25G12G05G09G04G02G27G01
 110148620.342 8  85830185.83345  20960569.961                    20960577.422
 120429771.760 7  93841472.99144  22917002.063                    22917010.277
 129368436.183 6                  24618009.695
 113981103.465 7  88816519.12445  21689883.938                    21689890.965
 118869141.086 7  92625400.27645  22620033.352                    22620042.762
 122627689.494 7  95554015.96444  23335255.703                    23335265.816
 111410092.292 8  86813184.50445  21200611.469                    21200619.543
 108216261.805 8  84324499.81646  20592853.805                    20592859.262
 124190151.127 6  96771608.73944  23632606.078                    23632617.281
 109161750.290 8                  20772776.992
 11  7 26  1 49  0.0000000  0 10G10G17G25G12G05G09G04G02G27G01
 110125049.430 8  85811818.93445  20956084.492                    20956092.164
 120481850.367 6  93882053.69944  22926912.500                    22926920.434
 129265321.932 6                  24598387.273
 113913046.980 7  88763488.09445  21676933.172                    21676940.148
 118770022.055 7  92548164.75745  22601171.633                    22601181.191
 122703238.387 7  95612885.17144  23349632.094                    23349642.379
 111480601.010 8  86868126.36845  21214028.977                    21214036.813
 108205744.859 8  84316304.82746  20590852.602                    20590858.109
 124252550.798 6  96820231.82544  23644480.922                    23644491.145
 109155282.078 8                  20771546.438
 11  7 26  1 49 30.0000000  0 10G10G17G25G12G05G09G04G02G27G01
 110102085.195 8  85793924.76045  20951714.609                    20951722.453
 120534072.549 6  93922746.29444  22936850.117                    22936858.109
 129162320.664 6                  24578787.258
 113845369.342 7  88710752.30345  21664053.875                    21664061.906
 118671111.668 7  92471091.81545  22582349.664                    22582358.551
 122779038.251 7  95671949.96444  23364056.930                    23364066.516
 111551327.013 8  86923237.54745  21227487.484                    21227495.809
 108195555.662 8  84308365.21846  20588913.594                    20588918.992
 124315088.746 6  96868962.63543  23656380.672                    23656391.313
 109149171.454 8                  20770383.633
 11  7 26  1 50  0.0000000  0 10G10G17G25G12G05G09G04G02G27G01
 110079728.681 8  85776504.14646  20947460.313                    20947467.762
 120586438.616 6  93963550.99944  22946814.719                    22946823.176
 129059434.776 6                  24559208.172
 113778073.262 7  88658313.83445  21651247.883                    21651255.621
 118572412.316 7  92394183.33345  22563567.867                    22563577.316
 122855085.481 6  95731207.49544  23378527.734                    23378537.980
 111622268.099 8  86978516.32745  21240987.055                    21240995.340
 108185693.165 8  84300680.19046  20587036.633                    20587042.371
 124377762.165 6  96917799.03243  23668307.344                    23668317.957
 109143417.013 8                  20769288.438
 11  7 26  1 50 30.0000000  0 10G10G17G25G12G05G09G04G02G27G01
 110057982.091 8  85759558.78646  20943321.805                    20943329.609
 120638949.554 7  94004468.59845  22956807.492                    22956815.836
 128956667.506 6                  24539652.461
 113711162.359 7  88606175.49745  21638514.945                    21638522.957
 118473927.514 7  92317442.02845  22544826.766                    22544835.898
 122931377.252 7  95790655.58444  23393045.875                    23393055.508
 111693422.529 8  87033961.35645  21254527.188                    21254535.539
 108176157.326 7  84293249.69346  20585221.992                    20585227.566
 124440569.102 6  96966739.45543  23680259.703                    23680269.867
 109138018.504 8                  20768261.375
 11  7 26  1 51  0.0000000  0 10G10G17G25G12G05G09G04G02G27G01
 110036846.092 8  85743089.20145  20939299.883                    20939307.656
 120691605.488 7  94045499.17645  22966827.734                    22966835.742
 128854020.780 6                  24520118.867
 113644637.903 7  88554338.28346  21625855.883                    21625863.965
 118375660.106 7  92240870.11545  22526127.180                    22526136.008
 123007909.678 7  95850291.16444  23407609.445                    23407619.332
 111764787.920 8  87089570.76845  21268107.508                    21268116.230
 108166946.728 8  84286072.61546  20583469.242                    20583474.645
 124503506.428 6  97015781.46043  23692236.211                    23692246.773
 109132974.308 8                  20767301.398
 11  7 26  1 51 30.0000000  0 10G10G17G25G12G05G09G04G02G27G01
 110016321.958 8  85727096.40445  20935393.922                    20935402.027
 120744407.001 7  94086643.21645  22976875.578                    22976883.809
 128751497.020 6                  24500610.133
 113578502.519 7  88502804.25946  21613271.477                    21613278.543
 118277613.014 7  92164469.88445  22507469.031                    22507478.012
 123084679.350 7  95910111.61944  23422218.313                    23422228.070
 111836361.805 7  87145342.64945  21281727.523                    21281736.074
 108158060.610 7  84279148.38046  20581778.500                    20581784.070
 124566571.278 6  97064922.85843  23704236.375                    23704247.785
 109128283.336 8                  20766408.453
 11  7 26  1 52  0.0000000  0 10G10G17G25G12G05G09G04G02G27G01
 109996410.998 8  85711581.40646  20931605.430                    20931613.184
 120797355.064 7  94127901.45545  22986951.219                    22986959.613
 128649099.266 6                  24481123.938
 113512759.238 7  88451575.77346  21600760.727                    21600768.523
 118179789.362 7  92088243.76345  22488853.406                    22488862.723
 123161683.302 7  95970114.63144  23436871.367                    23436882.070
 111908142.541 7  87201275.69445  21295386.906                    21295395.582
 108149498.236 8  84272476.43246  20580148.984                    20580154.324
 124629761.226 6  97114161.74843  23716261.953                    23716271.875
 109123944.895 8                  20765582.914
 11  7 26  1 52 30.0000000  0 10G10G17G25G12G05G09G04G02G27G01
 109977113.901 8  85696544.73646  20927932.922                    20927940.641
 120850449.378 6  94169273.62744  22997054.648                    22997063.422
 128546829.310 7                  24461662.586
 113447409.949 7  88400654.30146  21588325.031                    21588332.500
 118082192.002 7  92012193.96545  22470281.227                    22470290.137
 123238917.685 6  96030297.21643  23451568.531                    23451578.820
 111980127.329 8  87257367.75845  21309085.430                    21309093.996
 108141258.164 8  84266055.60546  20578580.969                    20578586.453
 124693073.138 6  97163495.63543  23728309.609                    23728319.750
 109119957.340 8                  20764824.109
 11  7 26  1 53  0.0000000  0 10G10G17G25G12G05G09G04G02G27G01
 109958431.826 8  85681987.29346  20924378.109                    20924386.043
 120903691.001 7  94210760.58745  23007186.250                    23007194.844
 128444689.884 7                  24442225.789
 113382457.254 7  88350041.85446  21575964.570                    21575972.270
 117984823.759 7  91936322.71245  22451752.617                    22451761.766
 123316379.066 7  96090656.68543  23466310.016                    23466319.613
 112052314.251 8  87313617.34145  21322822.055                    21322830.332
 108133339.659 8  84259885.36346  20577073.953                    20577079.656
 124756504.199 6  97212922.38943  23740380.094                    23740390.441
 109116319.320 8                  20764131.695
 11  7 26  1 53 30.0000000  0 10G10G17G25G12G05G09G04G02G27G01
 109940366.285 8  85667910.29746  20920940.055                    20920947.914
 120957080.424 6  94252362.73644  23017345.336                    23017354.641
 128342683.569 6                  24422814.758
 113317903.542 7  88299740.30746  21563680.305                    21563687.672
 117887687.717 7  91860632.39945  22433268.188                    22433276.938
 123394064.114 7  96151190.47644  23481092.047                    23481102.063
 112124701.081 8  87370022.68545  21336597.008                    21336605.125
 108125741.544 8  84253964.78546  20575627.992                    20575633.598
 124820051.667 6  97262439.81443  23752473.117                    23752483.191
 109113030.203 8                  20763505.898
 11  7 26  1 54  0.0000000  0 10G10G17G25G12G05G09G04G02G27G01
 109922918.553 8  85654314.67746  20917619.969                    20917627.711
 121010618.132 6  94294080.42244  23027533.602                    23027542.242
 128240813.222 6                  24403429.594
 113253751.495 7  88249751.75146  21551473.102                    21551480.004
 117790787.399 7  91785125.74645  22414828.672                    22414837.156
 123471969.825 7  96211896.12844  23495917.922                    23495927.469
 112197286.169 8  87426582.52545  21350408.922                    21350417.621
 108118463.764 8  84248293.80246  20574243.203                    20574248.512
 124883713.040 6  97312046.04343  23764586.578                    23764597.297
 109110089.167 8                  20762946.375
 11  7 26  1 54 30.0000000  0 10G10G17G25G12G05G09G04G02G27G01
 109906089.257 8  85641200.97345  20914417.648                    20914425.402
 121064304.391 7  94335913.88244  23037750.078                    23037757.777
 128139080.878 6                  24384070.930
 113190003.269 7  88200077.86445  21539341.906                    21539348.934
 117694125.121 7  91709804.59445  22396434.336                    22396442.805
 123550092.131 7  96272770.61344  23510783.633                    23510793.629
 112270067.004 8  87483294.87045  21364258.977                    21364267.273
 108111504.837 8  84242871.27646  20572919.094                    20572924.457
 124947485.348 6  97361738.70643  23776722.492                    23776733.184
 109107494.657 8                  20762452.461
 11  7 26  1 55  0.0000000  0 10G10G17G25G12G05G09G04G02G27G01
 109889878.737 8  85628569.42546  20911332.477                    20911340.242
 121118139.695 7  94377863.47144  23047994.063                    23048002.953
 128037489.126 6                  24364738.523
 113126661.271 7  88150720.52846  21527288.234                    21527295.508
 117597703.696 7  91634671.11945  22378085.891                    22378094.250
 123628427.678 7  96333811.28443  23525690.172                    23525700.402
 112343041.107 8  87540157.80745  21378145.531                    21378153.902
 108104863.556 8  84237696.28146  20571654.820                    20571660.469
 125011365.658 7  97411515.55043  23788878.055                    23788889.238
 109105245.157 8                  20762024.539
 11  7 26  1 55 30.0000000  0 10G10G17G25G12G05G09G04G02G27G01
 109874289.112 8  85616421.69746  20908366.141                    20908373.910
 121172125.293 7  94419930.18144  23058267.523                    23058275.879
 127936041.124 6                  24345433.711
 113063728.359 7  88101681.94045  21515312.648                    21515319.910
 117501527.086 7  91559728.39845  22359784.133                    22359792.547
 123706973.604 7  96395015.86444  23540637.695                    23540647.598
 112416207.260 8  87597170.40445  21392068.313                    21392076.301
 108098539.865 8  84232768.75146  20570451.883                    20570456.895
 125075351.913 6  97461374.91143  23801055.242                    23801065.711
 109103340.405 8                  20761661.938
 11  7 26  1 56  0.0000000  0 10G10G17G25G12G05G09G04G02G27G01
 109859320.297 8  85604757.72446  20905517.367                    20905524.988
 121226260.821 6  94462113.68944  23068568.109                    23068577.555
 127834738.553 6                  24326155.477
 113001206.218 7  88052963.44646  21503414.680                    21503422.227
 117405597.052 7  91484977.79845  22341529.609                    22341538.172
 123785725.818 7  96456381.17144  23555623.570                    23555632.680
 112489562.318 8  87654330.18245  21406027.805                    21406035.395
 108092532.022 8  84228087.33146  20569308.609                    20569313.797
 125139440.406 6  97511313.96443  23813250.867                    23813261.000
 109101778.205 8                  20761364.781
 11  7 26  1 56 30.0000000  0 10G10G17G25G12G05G09G04G02G27G01
 109844973.802 8  85593578.65846  20902787.445                    20902795.191
 121280547.164 6  94504414.74344  23078899.203                    23078908.141
 127733584.616 6                  24306906.781
 112939097.856 7  88004567.37246  21491596.148                    21491603.672
 117309917.271 7  91410422.23345  22323322.266                    22323330.449
 123864681.576 7  96517905.09844  23570648.391                    23570658.277
 112563104.703 7  87711635.93745  21420021.984                    21420030.301
 108086839.293 8  84223651.46346  20568225.047                    20568230.555
 125203629.148 6  97561331.12643  23825464.891                    23825475.246
 109100558.102 8                  20761132.719
 11  7 26  1 57  0.0000000  0 10G10G17G25G12G05G09G04G02G27G01
 109831249.919 8  85582884.75245  20900175.852                    20900183.813
 121334984.216 7  94546833.21744  23089258.039                    23089267.129
 127632581.041 6                  24287686.195
 112877404.583 7  87956494.73946  21479856.070                    21479863.801
 117214489.675 7  91336063.14445  22305162.703                    22305171.332
 123943836.373 7  96579584.09344  23585710.906                    23585720.820
 112636831.647 7  87769085.50345  21434052.164                    21434060.266
 108081459.689 8  84219459.58346  20567201.328                    20567206.828
 125267914.442 6  97611423.50843  23837698.156                    23837707.961
 109099678.001 8                  20760964.961
 11  7 26  1 57 30.0000000  0 10G10G17G25G12G05G09G04G02G27G01
 109818150.223 8  85572677.21145  20897682.680                    20897690.703
 121389573.257 7  94589370.13644  23099646.320                    23099655.211
 127531731.188 6                  24268494.828
 112816129.939 7  87908748.29546  21468195.781                    21468202.949
 117119318.419 7  91261903.79345  22287052.398                    22287060.453
 124023187.659 6  96641416.20444  23600811.695                    23600821.129
 112710741.819 8  87826677.83645  21448116.102                    21448124.945
 108076393.522 8  84215511.95446  20566237.078                    20566242.723
 125332294.475 6  97661589.73743  23849949.633                    23849959.719
 109099137.623 8                  20760862.172
 11  7 26  1 58  0.0000000  0 10G10G17G25G12G05G09G04G02G27G01
 109805675.005 8  85562956.29946  20895309.023                    20895316.945
 121444314.261 7  94632025.45944  23110063.250                    23110071.848
 127431037.322 6                  24249333.094
 112755275.653 7  87861329.40546  21456615.695                    21456623.098
 117024405.877 7  91187946.05445  22268991.070                    22268999.242
 124102731.512 6  96703398.37844  23615947.172                    23615957.750
 112784832.834 8  87884411.08345  21462215.430                    21462224.059
 108071639.356 8  84211807.43946  20565332.727                    20565337.957
 125396765.975 6  97711827.22143  23862217.516                    23862228.051
 109098935.188 8                  20760823.625
 11  7 26  1 58 30.0000000  0 10G10G17G25G12G05G09G04G02G27G01
 109793825.265 8  85553722.75845  20893054.227                    20893061.563
 121499207.834 7  94674799.67044  23120509.094                    23120517.676
 127330502.087 6                  24230202.148
 112694844.410 7  87814240.15046  21445116.102                    21445123.508
 116929755.278 7  91114192.43345  22250978.719                    22250987.602
 124182464.957 7  96765528.29044  23631121.344                    23631131.027
 112859102.654 8  87942283.67045  21476348.922                    21476357.152
 108067196.209 8  84208345.26146  20564487.172                    20564492.559
 125461326.352 6  97762133.93643  23874503.406                    23874514.297
 109099069.685 8                  20760848.828
 11  7 26  1 59  0.0000000  0 10G10G17G25G12G05G09G04G02G27G01
 109782601.853 8  85544977.26645  20890918.102                    20890925.883
 121554254.399 7  94717693.10044  23130984.109                    23130992.488
 127230128.058 6                  24211102.508
 112634838.307 8  87767482.16746  21433697.281                    21433704.844
 116835369.276 7  91040644.98045  22233017.906                    22233026.340
 124262384.437 6  96827803.16544  23646329.234                    23646339.047
 112933549.068 8  88000293.85445  21490515.398                    21490524.172
 108063063.105 8  84205124.68146  20563700.648                    20563706.086
 125525972.724 6  97812507.66843  23886804.695                    23886816.160
 109099539.990 8                  20760938.516
 11  7 26  1 59 30.0000000  0 10G10G17G25G12G05G09G04G02G27G01
 109772005.333 8  85536720.25745  20888901.469                    20888909.773
 121609454.466 7  94760706.14644  23141487.828                    23141496.078
 127129917.745 7                  24192032.852
 112575259.700 8  87721057.29346  21422359.719                    21422367.258
 116741250.958 7  90967306.11345  22215107.680                    22215116.133
 124342486.421 6  96890220.24444  23661571.359                    23661582.063
 113008170.117 8  88058440.12045  21504715.461                    21504723.527
 108059239.161 8  84202144.99246  20562972.945                    20562978.402
 125590702.416 6  97862946.24943  23899122.688                    23899133.809
 109100344.645 8                  20761091.836
 11  7 26  2  0  0.0000000  0 10G10G17G25G12G05G09G04G02G27G01
 109762036.325 8  85528952.22445  20887004.852                    20887012.586
 121664808.773 7  94803839.34744  23152021.609                    23152030.609
 127029873.665 7                  24172995.516
 112516111.215 8  87674967.58646  21411104.086                    21411111.484
 116647403.246 7  90894178.10545  22197249.258                    22197257.531
 124422767.351 6  96952776.75744  23676848.289                    23676859.242
 113082963.600 8  88116720.75745  21518947.875                    21518956.250
 108055723.130 8  84199405.25346  20562303.641                    20562309.477
 125655512.598 6  97913447.60543  23911456.102                    23911466.770
 109101482.551 8                  20761308.328
 11  7 26  2  0 30.0000000  0 10G10G17G25G12G05G09G04G02G27G01
 109752695.396 8  85521673.60545  20885227.109                    20885235.105
 121720317.122 7  94847092.60044  23162584.617                    23162592.762
 126929998.362 7                  24153990.055
 112457394.322 8  87629214.17746  21399930.516                    21399937.891
 116553828.783 7  90821263.02445  22179442.625                    22179450.621
 124503223.750 6  97015469.97343  23692158.844                    23692168.898
 113157927.267 8  88175134.00245  21533213.563                    21533221.285
 108052513.952 8  84196904.63046  20561692.984                    20561698.590
 125720400.173 6  97964009.21543  23923804.055                    23923815.141
 109102952.070 8                  20761587.938
 11  7 26  2  1  0.0000000  0 10G10G17G25G12G05G09G04G02G27G01
 109743983.776 8  85514885.34945  20883569.195                    20883577.309
 121775980.630 7  94890466.73944  23173177.359                    23173185.227
 126830294.778 7                  24135016.570
 112399112.038 8  87583799.42046  21388840.094                    21388846.898
 116460530.934 7  90748563.47645  22161688.547                    22161696.875
 124583852.586 6  97078297.59143  23707502.375                    23707512.027
 113233059.601 8  88233678.68845  21547510.313                    21547518.676
 108049611.115 8  84194642.68246  20561140.516                    20561146.129
 125785362.947 5  98014629.43443  23936165.195                    23936176.727
 109104752.674 8                  20761930.703
 11  7 26  2  1 30.0000000  0 10G10G17G25G12G05G09G04G02G27G01
 109735901.086 7  85508587.16245  20882030.758                    20882039.141
 121831799.308 7  94933961.79944  23183799.414                    23183806.949
 126730764.812 7                  24116076.289
 112341266.033 7  87538724.61846  21377832.195                    21377839.098
 116367512.107 7  90676081.34045  22143987.414                    22143995.270
 124664649.886 6  97141256.47743  23722877.430                    23722887.355
 113308357.783 8  88292352.59245  21561839.141                    21561847.297
 108047012.911 8  84192618.10146  20560646.320                    20560652.031
 125850397.461 6  98065305.59443  23948541.375                    23948552.484
 109106882.684 8                  20762335.719
 11  7 26  2  2  0.0000000  0 10G10G17G25G12G05G09G04G02G27G01
 109728448.615 7  85502780.05745  20880613.156                    20880621.082
 121887773.828 7  94977578.29644  23194451.117                    23194459.266
 126631411.730 6                  24097170.648
 112283859.127 8  87493991.97646  21366908.156                    21366915.512
 116274775.666 7  90603819.25845  22126340.563                    22126348.293
 124745612.789 6  97204344.40743  23738284.852                    23738294.188
 113383820.408 8  88351154.62745  21576199.359                    21576207.254
 108044718.624 8  84190830.34446  20560210.047                    20560215.094
 125915501.700 6  98116036.01343  23960931.141                    23960942.066
 109109340.748 8                  20762803.508
 11  7 26  2  2 30.0000000  0 10G10G17G25G12G05G09G04G02G27G01
 109721626.387 7  85497464.04945  20879314.984                    20879323.289
 121943904.705 6  95021316.60944  23205131.883                    23205140.352
 126532237.634 7                  24078298.492
 112226893.380 8  87449603.08146  21356068.227                    21356075.480
 116182323.819 7  90531778.95045  22108747.289                    22108755.848
 124826737.388 6  97267558.35644  23753722.547                    23753731.863
 113459445.013 7  88410082.88245  21590590.141                    21590598.402
 108042726.834 7  84189278.32346  20559830.953                    20559836.527
 125980672.442 6  98166818.29643  23973332.922                    23973343.348
 109112125.548 8                  20763333.508
 11  7 26  2  3  0.0000000  0 10G10G17G25G12G05G09G04G02G27G01
 109715435.437 7  85492639.95245  20878137.047                    20878144.754
 122000192.346 6  95065177.08644  23215843.875                    23215851.988
 126433245.576 6                  24059460.453
 112170371.487 8  87405560.06746  21345312.211                    21345319.375
 116090160.217 7  90459963.23245  22091209.063                    22091217.695
 124908020.701 7  97330895.94644  23769189.922                    23769200.250
 113535230.086 8  88469136.17345  21605011.820                    21605019.945
 108041037.185 8  84187961.73946  20559509.070                    20559514.855
 126045907.163 6  98217650.44144  23985746.820                    23985757.375
 109115236.204 8                  20763925.492
 11  7 26  2  3 30.0000000  0 10G10G17G25G12G05G09G04G02G27G01
 109709875.979 7  85488307.91445  20877078.906                    20877086.332
 122056637.352 6  95109160.20244  23226584.289                    23226593.156
 126334437.955 6                  24040657.797
 112114295.393 8  87361864.42746  21334641.414                    21334648.477
 115998287.502 7  90388374.19645  22073726.242                    22073734.273
 124989459.064 7  97394354.38844  23784687.328                    23784697.129
 113611173.090 8  88528312.52345  21619462.695                    21619470.980
 108039648.280 8  84186879.48446  20559245.102                    20559250.473
 126111202.962 6  98268530.18944  23998172.242                    23998183.277
 109118671.193 8                  20764579.094
 11  7 26  2  4  0.0000000  0 10G10G17G25G12G05G09G04G02G27G01
 109704948.907 7  85484468.65045  20876141.383                    20876149.246
 122113240.067 6  95153266.18544  23237355.242                    23237364.219
 126235817.680 6                  24021891.320
 112058667.418 8  87318517.98846  21324055.203                    21324062.398
 115906708.899 7  90317014.32245  22056299.500                    22056307.895
 125071049.675 7  97457931.44944  23800212.766                    23800223.660
 113687272.688 8  88587610.90245  21633944.125                    21633952.355
 108038559.494 8  84186031.08046  20559037.711                    20559043.301
 126176557.355 6  98319455.61343  24010608.328                    24010619.891
 109122429.495 8                  20765294.531
 11  7 26  2  4 30.0000000  0 10G10G17G25G12G05G09G04G02G27G01
 109700654.131 7  85481122.10345  20875324.008                    20875331.887
 122170000.893 6  95197495.36744  23248157.164                    23248165.320
 126137387.079 6                  24003160.453
 112003489.767 8  87275522.43846  21313555.203                    21313562.750
 115815426.915 7  90245885.57845  22038929.164                    22038937.184
 125152788.383 7  97521623.90043  23815767.609                    23815777.668
 113763526.283 8  88647029.25845  21648454.734                    21648462.805
 108037769.107 7  84185415.19546  20558887.250                    20558893.012
 126241967.356 6  98370424.34843  24023055.867                    24023066.195
 109126509.485 8                  20766070.414
 11  7 26  2  5  0.0000000  0 10G10G17G25G12G05G09G04G02G27G01
 109696992.216 7  85478268.68345  20874626.992                    20874634.770
 122226920.293 6  95241848.13144  23258988.594                    23258997.008
 126039148.756 6                  23984466.063
 111948764.213 8  87232879.18746  21303141.852                    21303148.680
 115724444.488 7  90174990.26245  22021615.547                    22021623.645
 125234671.763 7  97585429.08944  23831349.672                    23831359.953
 113839931.954 8  88706566.12745  21662994.609                    21663002.453
 108037276.347 8  84185031.25046  20558793.469                    20558798.828
 126307429.897 6  98421434.08443  24035513.047                    24035523.816
 109130910.142 8                  20766907.977
 11  7 26  2  5 30.0000000  0 10G10G17G25G12G05G09G04G02G27G01
 109693963.625 8  85475908.76045  20874050.992                    20874058.453
 122283998.696 6  95286324.78044  23269849.719                    23269858.691
 125941105.487 6                  23965809.297
 111894493.323 7  87190590.20946  21292814.219                    21292821.363
 115633764.393 7  90104330.53245  22004359.891                    22004368.117
 125316696.773 7  97649344.65343  23846958.438                    23846968.684
 113916487.932 8  88766220.10445  21677562.883                    21677570.879
 108037080.265 8  84184878.46846  20558755.953                    20558761.281
 126372942.514 6  98472482.77543  24047979.078                    24047990.242
 109135629.983 8                  20767805.977
 11  7 26  2  6  0.0000000  0 10G10G17G25G12G05G09G04G02G27G01
 109691569.093 7  85474042.92045  20873595.141                    20873602.945
 122341236.857 6  95330925.92844  23280741.977                    23280750.926
 125843260.076 7                  23947189.422
 111840679.831 7  87148657.67046  21282573.594                    21282580.926
 115543389.883 7  90033908.91445  21987161.570                    21987170.344
 125398860.154 7  97713368.02443  23862593.180                    23862602.809
 113993192.324 8  88825989.75345  21692159.094                    21692167.699
 108037179.956 8  84184956.17346  20558775.125                    20558780.621
 126438502.776 6  98523568.60343  24060455.734                    24060466.023
 109140667.919 8                  20768764.820
 11  7 26  2  6 30.0000000  0 10G10G17G25G12G05G09G04G02G27G01
 109689808.374 7  85472670.95545  20873260.320                    20873267.344
 122398635.011 6  95375651.75444  23291664.328                    23291672.980
 125745615.051 7                  23928607.906
 111787325.174 8  87107082.65346  21272420.570                    21272427.945
 115453323.663 7  89963727.52245  21970022.539                    21970031.121
 125481158.438 7  97777496.52243  23878254.961                    23878263.691
 114070043.007 7  88885873.37745  21706782.805                    21706791.406
 108037574.123 8  84185263.33146  20558850.188                    20558855.148
 126504107.822 6  98574689.36743  24072939.648                    24072950.031
 109146022.609 8                  20769783.594
 11  7 26  2  7  0.0000000  0 10G10G17G25G12G05G09G04G02G27G01
 109688681.500 7  85471792.89045  20873045.414                    20873053.270
 122456193.068 6  95420502.17644  23302616.836                    23302625.977
 125648172.647 7                  23910065.945
 111734431.339 7  87065866.72146  21262355.117                    21262362.727
 115363567.943 7  89893788.07245  21952942.742                    21952951.051
 125563588.036 6  97841727.30943  23893939.977                    23893949.180
 114147037.741 8  88945869.24845  21721434.578                    21721443.320
 108038261.573 8  84185799.00846  20558980.984                    20558986.254
 126569754.361 6  98625842.48542  24085431.250                    24085442.895
 109151692.307 8                  20770862.789
 11  7 26  2  7 30.0000000  0 10G10G17G25G12G05G09G04G02G27G01
 109688189.363 7  85471409.43645  20872951.945                    20872959.703
 122513912.147 6  95465478.07844  23313601.008                    23313609.305
 125550936.045 7                  23891562.602
 111682001.108 7  87025012.04146  21252378.031                    21252385.051
 115274126.327 7  89824093.38645  21935922.281                    21935930.426
 125646145.648 6  97906057.87743  23909650.430                    23909660.102
 114224174.828 8  89005976.05645  21736113.359                    21736121.750
 108039241.506 7  84186562.59446  20559167.727                    20559172.879
 126635440.379 6  98677026.39042  24097931.211                    24097942.480
 109157676.289 8                  20772001.320
 11  7 26  2  8  0.0000000  0 10G10G17G25G12G05G09G04G02G27G01
 109688331.625 8  85471520.31645  20872979.242                    20872986.617
 122571792.193 6  95510579.41944  23324615.633                    23324623.352
 125453907.445 7                  23873098.422
 111630036.282 7  86984520.01946  21242489.391                    21242496.613
 115185001.546 7  89754645.56045  21918962.656                    21918970.758
 125728827.706 6  97970485.41643  23925384.273                    23925394.246
 114301452.210 8  89066192.17345  21750819.203                    21750827.398
 108040512.170 8  84187552.72446  20559409.055                    20559414.598
 126701162.47615  98728238.33052  24110436.461                    24110448.938
 109163972.705 8                  20773199.688
 11  7 26  2  8 30.0000000  0 10G10G17G25G12G05G09G04G02G27G01
 109689108.826 7  85472125.94745  20873126.789                    20873134.625
 122629833.657 6  95555806.53344  23335660.047                    23335668.281
 125357089.685 7                  23854674.422
 111578539.116 7  86944392.40346  21232689.719                    21232696.820
 115096196.093 7  89685446.59345  21902063.383                    21902071.375
 125811630.947 6  98035007.37043  23941141.297                    23941151.176
 114378867.994 8  89126516.16145  21765550.922                    21765558.902
 108042073.087 8  84188769.02746  20559706.188                    20559712.160
 126766918.379 5  98779476.58242  24122950.602                    24122961.656
 109170580.504 8                  20774456.766
 11  7 26  2  9  0.0000000  0 10G10G17G25G12G05G09G04G02G27G01
 109690521.137 7  85473226.46845  20873395.539                    20873403.504
 122688037.390 6  95601160.07944  23346736.047                    23346744.348
 125260485.533 7                  23836290.891
 111527511.799 7  86904630.90046  21222979.680                    21222986.840
 115007713.204 7  89616498.94945  21885226.063                    21885233.105
 125894551.902 6  98099621.05243  23956920.305                    23956931.352
 114456420.303 8  89186946.51945  21780308.445                    21780316.574
 108043923.166 8  84190210.65646  20560058.430                    20560063.617
 126832705.31115  98830739.12852  24135469.133                    24135480.512
 109177498.402 8                  20775773.508
 11  7 26  2  9 30.0000000  0 10G10G17G25G12G05G09G04G02G27G01
 109692568.711 8  85474821.99045  20873785.250                    20873792.836
 122746403.716 6  95646640.32544  23357843.055                    23357851.621
 125164097.608 7                  23817949.125
 111476956.106 7  86865236.89646  21213359.477                    21213365.895
 114919555.526 7  89547804.72745  21868449.555                    21868457.414
 125977587.705 6  98164324.24143  23972721.844                    23972732.211
 114534107.259 8  89247481.81045  21795092.195                    21795100.012
 108046061.633 8  84191877.01046  20560465.148                    20560470.766
 126898520.529 5  98882023.64743  24147993.648                    24148004.945
 109184725.347 8                  20777148.555
 11  7 26  2 10  0.0000000  0 10G10G17G25G12G05G09G04G02G27G01
 109695251.169 8  85476912.23445  20874295.898                    20874303.453
 122804932.474 7  95692247.18144  23368980.531                    23368989.281
 125067928.198 7                  23799648.172
 111426874.262 8  86826212.11846  21203828.727                    21203836.297
 114831725.625 7  89479365.90645  21851736.461                    21851743.875
 126060734.428 6  98229113.85043  23988543.977                    23988554.410
 114611926.715 7  89308120.36045  21809900.375                    21809908.262
 108048486.570 8  84193766.58546  20560927.016                    20560932.074
 126964361.217 6  98933328.04443  24160523.719                    24160534.047
 109192259.306 8                  20778582.531
 11  7 26  2 10 30.0000000  0 10G10G17G25G12G05G09G04G02G27G01
 109698569.267 7  85479497.78345  20874926.531                    20874934.543
 122863624.630 7  95737981.34444  23380149.250                    23380157.613
 124971980.495 7                  23781390.172
 111377268.280 7  86787558.13046  21194389.102                    21194395.980
 114744226.866 7  89411185.12145  21835085.563                    21835093.281
 126143989.034 6  98293987.54543  24004386.875                    24004396.887
 114689877.412 7  89368861.17545  21824733.664                    21824741.949
 108051197.487 8  84195879.01346  20561442.641                    20561447.992
 127030224.915 6  98984650.38843  24173056.141                    24173067.953
 109200099.321 8                  20780074.406
 11  7 26  2 11  0.0000000  0 10G10G17G25G12G05G09G04G02G27G01
 109702522.005 7  85482577.85245  20875678.945                    20875686.926
 122922480.003 6  95783842.67844  23391349.656                    23391357.707
 124876256.260 7                  23763174.703
 111328139.530 7  86749276.01846  21185039.984                    21185047.648
 114657061.283 7  89343263.95045  21818498.617                    21818506.355
 126227347.601 6  98358942.24843  24020249.891                    24020260.375
 114767956.193 7  89429701.77945  21839592.180                    21839599.922
 108054192.369 8  84198212.70946  20562012.398                    20562018.078
 127096107.993 6  99035987.84143  24185593.625                    24185605.484
 109208243.622 8                  20781623.914
 11  7 26  2 11 30.0000000  0 10G10G17G25G12G05G09G04G02G27G01
 109707110.619 7  85486153.41645  20876552.703                    20876560.398
 122981500.012 6  95829832.31244  23402579.695                    23402588.363
 124780759.285 7                  23745001.250
 111279491.728 7  86711368.66846  21175782.813                    21175789.727
 114570232.672 7  89275605.35846  21801975.109                    21801983.484
 126310807.883 6  98423976.23043  24036131.648                    24036142.480
 114846162.538 7  89490641.79245  21854473.922                    21854482.516
 108057471.650 7  84200768.02446  20562636.125                    20562642.129
 127162008.910 6  99087339.16443  24198134.359                    24198145.727
 109216691.766 8                  20783231.688
 11  7 26  2 12  0.0000000  0 10G10G17G25G12G05G09G04G02G27G01
 109712334.637 8  85490224.09045  20877546.164                    20877553.574
 123040684.354 6  95875949.97544  23413842.594                    23413850.879
 124685491.761 7                  23726872.844
 111231325.834 7  86673836.81046  21166617.055                    21166624.582
 114483743.003 7  89208210.89645  21785516.656                    21785525.047
 126394365.927 6  98489086.32943  24052031.625                    24052042.938
 114924493.946 7  89551679.26945  21869379.750                    21869388.125
 108061033.481 8  84203543.49546  20563314.078                    20563319.695
 127227924.479 6  99138701.91843  24210677.367                    24210688.922
 109225441.862 8                  20784896.664
 11  7 26  2 12 30.0000000  0 10G10G17G25G12G05G09G04G02G27G01
 109718193.966 8  85494789.82145  20878661.289                    20878668.945
 123100033.330 6  95922195.89443  23425136.648                    23425144.418
 124590456.051 7                  23708787.898
 111183643.772 8  86636681.98746  21157543.648                    21157550.742
 114397594.859 7  89141082.53746  21769123.359                    21769131.438
 126478018.103 6  98554269.85443  24067950.594                    24067961.285
 115002948.546 7  89612812.73945  21884309.008                    21884317.363
 108064876.443 8  84206538.03846  20564045.391                    20564051.027
 127293851.875 6  99190073.86843  24223223.711                    24223234.586
 109234492.400 8                  20786618.953
 11  7 26  2 13  0.0000000  0 10G10G17G25G12G05G09G04G02G27G01
 109724688.463 7  85499850.49545  20879897.422                    20879905.180
 123159547.288 6  95968570.41644  23436461.586                    23436469.766
 124495655.124 7                  23690748.016
 111136448.130 8  86599906.16946  21148562.422                    21148569.551
 114311791.813 7  89074223.08045  21752795.969                    21752803.695
 126561761.404 6  98619524.32243  24083886.766                    24083897.109
 115081524.454 7  89674040.73645  21899262.242                    21899270.207
 108068999.433 7  84209750.76746  20564830.094                    20564835.250
 127359788.541 6  99241453.05243  24235770.625                    24235782.289
 109243842.018 8                  20788398.125
 11  7 26  2 13 30.0000000  0 10G10G17G25G12G05G09G04G02G27G01
 109731818.056 8  85505406.04045  20881253.789                    20881261.207
 123219226.821 6  96015073.93243  23447817.242                    23447826.156
 124401091.605 7                  23672753.102
 111089740.650 8  86563510.74546  21139674.266                    21139681.570
 114226336.432 7  89007634.52046  21736533.711                    21736542.289
 126645592.554 6  98684847.22943  24099839.109                    24099849.238
 115160219.877 7  89735361.85245  21914236.953                    21914245.371
 108073401.501 8  84213180.97946  20565667.570                    20565673.105
 127425731.734 6  99292837.34343  24248319.242                    24248330.887
 109253489.580 8                  20790233.891
 11  7 26  2 14  0.0000000  0 10G10G17G25G12G05G09G04G02G27G01
 109739582.729 7  85511456.45645  20882731.398                    20882739.156
 123279072.551 6  96061706.94943  23459206.375                    23459214.441
 124306768.219 7                  23654804.063
 111043523.263 8  86527497.20446  21130879.609                    21130886.359
 114141231.544 7  88941319.08346  21720339.680                    21720347.930
 126729507.935 6  98750235.83743  24115807.781                    24115818.340
 115239033.015 7  89796774.71845  21929234.469                    21929242.531
 108078081.907 8  84216828.07246  20566558.133                    20566563.500
 127491678.810 6  99344224.64943  24260867.984                    24260879.805
 109263433.844 8                  20792126.281
 11  7 26  2 14 30.0000000  0 10G10G17G25G12G05G09G04G02G27G01
 109747982.113 7  85518001.45645  20884329.508                    20884337.695
 123339084.632 6  96108469.62943  23470626.102                    23470634.695
 124212687.664 7                  23636900.852
 110997797.810 8  86491866.98146  21122178.352                    21122185.527
 114056479.785 7  88875278.80046  21704211.406                    21704219.191
 126813504.427 6  98815687.59544  24131791.984                    24131802.348
 115317962.191 7  89858277.97345  21944253.977                    21944262.238
 108083039.426 8  84220691.11046  20567501.891                    20567506.766
 127557626.990 6  99395612.84843  24273418.750                    24273429.684
 109273673.288 8                  20794074.641
 11  7 26  2 15  0.0000000  0 10G10G17G25G12G05G09G04G02G27G01
 109757015.980 7  85525040.85645  20886048.930                    20886056.621
 123399263.191 6  96155361.99143  23482077.984                    23482085.594
 124118852.410 7                  23619044.242
 110952566.152 8  86456621.54446  21113570.898                    21113577.582
 113972083.613 8  88809515.60646  21688151.063                    21688159.074
 126897578.879 6  98881200.15543  24147790.172                    24147801.070
 115397005.337 7  89919870.04945  21959295.617                    21959303.645
 108088272.539 8  84224768.88346  20568497.117                    20568502.980
 127623573.386 6  99446999.61143  24285966.578                    24285978.320
 109284206.366 8                  20796079.203
 11  7 26  2 15 30.0000000  0 10G10G17G25G12G05G09G04G02G27G01
 109766684.494 7  85532574.78445  20887888.602                    20887896.375
 123459609.064 6  96202384.78743  23493561.375                    23493569.328
 124025265.343 6                  23601235.172
 110907830.679 8  86421762.74246  21105057.930                    21105065.156
 113888045.830 7  88744031.67546  21672159.242                    21672167.402
 126981727.764 6  98946770.68343  24163803.375                    24163814.066
 115476160.846 7  89981549.66845  21974358.570                    21974366.914
 108093780.407 8  84229060.75346  20569545.758                    20569551.270
 127689515.634 6  99498383.10943  24298515.945                    24298526.988
 109295031.909 8                  20798138.867
 11  7 26  2 16  0.0000000  0 10G10G17G25G12G05G09G04G02G27G01
 109776986.947 7  85540602.67645  20889849.406                    20889857.086
 123520122.054 6  96249537.77043  23505076.063                    23505084.594
 123931928.851 6                  23583474.266
 110863593.023 8  86387291.85446  21096639.961                    21096647.234
 113804369.201 7  88678829.16146  21656236.086                    21656243.680
 127065947.389 7  99012396.33343  24179829.906                    24179840.758
 115555426.505 7  90043315.13945  21989442.313                    21989450.090
 108099561.427 8  84233565.45146  20570645.695                    20570651.176
 127755450.91415  99549761.16752  24311062.156                    24311073.832
 109306148.096 8                  20800254.445
 11  7 26  2 16 30.0000000  0 10G10G17G25G12G05G09G04G02G27G01
 109787923.216 8  85549124.46645  20891930.391                    20891937.895
 123580802.937 6  96296821.59143  23516623.766                    23516631.813
 123838845.993 6                  23565760.500
 110819854.985 8  86353210.28146  21088316.836                    21088324.098
 113721056.620 8  88613910.32045  21640382.508                    21640389.875
 127150235.122 6  99078075.05443  24195869.609                    24195880.602
 115634801.109 7  90105165.50245  22004546.617                    22004555.219
 108105615.170 8  84238282.67146  20571797.523                    20571803.023
 127821376.689 5  99601131.81042  24323608.516                    24323619.652
 109317554.211 8                  20802424.906
 11  7 26  2 17  0.0000000  0 10G10G17G25G12G05G09G04G02G27G01
 109799492.720 8  85558139.67845  20894131.766                    20894139.707
 123641651.657 6  96344236.18143  23528202.391                    23528211.184
 123746019.086 7                  23548096.359
 110776618.269 8  86319519.35646  21080089.164                    21080095.914
 113638110.397 7  88549276.93946  21624598.273                    21624605.934
 127234587.198 6  99143803.92943  24211921.500                    24211931.590
 115714282.340 7  90167098.96745  22019671.398                    22019679.297
 108111939.953 8  84243211.09246  20573000.984                    20573006.715
 127887290.019 5  99652492.84142  24336151.984                    24336162.902
 109329248.411 8                  20804650.273
 11  7 26  2 17 30.0000000  0 10G10G17G25G12G05G09G04G02G27G01
 109811695.417 8  85567648.28245  20896453.789                    20896461.512
 123702668.881 6  96391782.08144  23539814.039                    23539822.602
 123653450.902 7                  23530481.383
 110733884.733 8  86286220.51146  21071957.516                    21071964.121
 113555533.495 7  88484931.36846  21608883.773                    21608891.840
 127319000.512 6  99209580.53043  24227984.492                    24227994.750
 115793868.574 7  90229114.25545  22034816.383                    22034823.988
 108118534.905 8  84248350.04146  20574256.156                    20574261.449
 127953188.363 6  99703842.28852  24348690.828                    24348702.133
 109341229.279 8                  20806929.992
 11  7 26  2 18  0.0000000  0 10G10G17G25G12G05G09G04G02G27G01
 109824530.896 7  85577649.95345  20898896.695                    20898904.484
 123763854.647 7  96439459.31644  23551457.516                    23551465.953
 123561144.055 7                  23512916.102
 110691656.544 8  86253315.45446  21063921.117                    21063928.293
 113473328.399 7  88420875.49145  21593240.695                    21593248.449
 127403471.841 6  99275402.37743  24244059.133                    24244069.141
 115873557.959 7  90291209.90745  22049980.500                    22049988.547
 108125398.857 8  84253698.58746  20575562.336                    20575568.188
 128019068.783 6  99755177.63242  24361227.328                    24361238.813
 109353495.400 8                  20809264.180
 11  7 26  2 18 30.0000000  0 10G10G17G25G12G05G09G04G02G27G01
 109837998.723 7  85588144.36645  20901459.320                    20901466.973
 123825209.727 7  96487268.49244  23563132.625                    23563141.031
 123469101.484 7                  23495401.414
 110649935.566 8  86220805.61946  21055981.922                    21055989.000
 113391497.983 7  88357111.57846  21577669.164                    21577677.023
 127487998.197 6  99341267.06243  24260144.492                    24260153.969
 115953349.121 7  90353384.84944  22065164.203                    22065172.477
 108132531.048 8  84259256.16346  20576919.320                    20576925.063
 128084929.046 6  99806497.31942  24373760.922                    24373771.848
 109366046.012 8                  20811652.336
 11  7 26  2 19  0.0000000  0 10G10G17G25G12G05G09G04G02G27G01
 109852098.182 8  85599130.97845  20904142.047                    20904150.137
 123886733.983 7  96535209.50244  23574840.195                    23574849.188
 123377325.390 7                  23477936.523
 110608723.240 8  86188692.15446  21048139.813                    21048146.609
 113310044.717 7  88293641.56846  21562169.063                    21562176.938
 127572575.621 6  99407171.51043  24276238.016                    24276248.305
 116033239.590 7  90415637.18545  22080366.727                    22080374.816
 108139929.365 8  84265021.10746  20578327.109                    20578333.000
 128150766.232 6  99857798.93043  24386289.383                    24386299.961
 109378878.873 8                  20814094.656
 11  7 26  2 19 30.0000000  0 10G10G17G25G12G05G09G04G02G27G01
 109866829.003 8  85610609.54545  20906945.477                    20906953.234
 123948427.814 7  96583282.62944  23586581.063                    23586589.492
 123285818.698 7                  23460522.867
 110568021.636 8  86156976.65446  21040394.086                    21040401.121
 113228971.284 7  88230467.51246  21546740.898                    21546748.930
 127657201.192 6  99473113.53143  24292341.766                    24292352.125
 116113228.272 7  90477966.05345  22095588.531                    22095596.371
 108147593.041 8  84270992.81446  20579785.117                    20579791.035
 128216577.842 6  99909080.68242  24398812.578                    24398823.582
 109391992.987 8                  20816589.859
 11  7 26  2 20  0.0000000  0 10G10G17G25G12G05G09G04G02G27G01
 109882190.925 7  85622579.90145  20909868.773                    20909876.426
 124010291.700 7  96631488.23144  23598352.992                    23598361.387
 123194584.345 7                  23443160.992
 110527832.707 8  86125660.64646  21032746.414                    21032753.449
 113148280.622 7  88167591.73046  21531386.508                    21531394.070
 127741871.865 5  99539090.69542  24308454.531                    24308464.527
 116193313.286 7  90540369.98145  22110827.555                    22110835.859
 108155521.319 8  84277170.71646  20581294.031                    20581299.496
 128282361.353 6  99960340.52343  24411330.758                    24411342.063
 109405387.242 8                  20819138.695
 11  7 26  2 20 30.0000000  0 10G10G17G25G12G05G09G04G02G27G01
 109898183.850 8  85635041.93945  20912912.203                    20912919.766
 124072326.168 6  96679826.78744  23610157.477                    23610166.008
 123103625.147 6                  23425853.086
 110488158.260 8  86094745.51346  21025196.844                    21025203.793
 113067975.420 7  88105016.29146  21516104.641                    21516112.566
 127826584.471 6  99605100.49243  24324574.906                    24324584.648
 116273493.250 7  90602847.90345  22126085.500                    22126093.895
 108163713.552 8  84283554.29246  20582853.141                    20582858.488
 128348114.253 6 100011576.54143  24423842.836                    24423854.355
 109419060.138 8                  20821740.852
 11  7 26  2 21  0.0000000  0 10G10G17G25G12G05G09G04G02G27G01
 109914806.534 7  85647994.70945  20916075.203                    20916083.059
 124134531.148 6  96728298.21844  23621994.398                    23622003.289
 123012943.226 7                  23408596.922
 110448999.566 8  86064232.27946  21017744.906                    21017752.148
 112988057.938 7  88042742.98746  21500896.641                    21500905.047
 127911335.400 6  99671140.16243  24340702.445                    24340712.211
 116353766.027 7  90665398.13144  22141361.039                    22141369.438
 108172167.612 8  84290141.90246  20584461.672                    20584467.340
 128413833.410 6 100062786.19543  24436349.367                    24436360.328
 109433010.084 8                  20824395.320
 11  7 26  2 21 30.0000000  0 10G10G17G25G12G05G09G04G02G27G01
 109932058.369 8  85661437.73145  20919357.953                    20919365.762
 124196907.250 6  96776902.96744  23633864.328                    23633872.875
 122922541.328 6                  23391393.242
 110410358.533 8  86034122.41746  21010391.844                    21010399.023
 112908530.805 7  87980773.85346  21485763.375                    21485771.242
 127996121.392 6  99737207.16642  24356836.430                    24356846.707
 116434129.649 7  90728019.16145  22156653.742                    22156661.535
 108180882.600 8  84296932.82646  20586120.305                    20586125.535
 128479516.149 6 100113967.47143  24448848.352                    24448859.445
 109447235.202 8                  20827102.469
 11  7 26  2 22  0.0000000  0 10G10G17G25G12G05G09G04G02G27G01
 109949939.328 7  85675370.96345  20922761.031                    20922768.563
 124259454.740 6  96825641.24543  23645766.688                    23645775.453
 122832422.638 7                  23374244.836
 110372237.225 8  86004417.52946  21003137.523                    21003144.809
 112829396.892 7  87919111.11246  21470704.813                    21470712.270
 128080939.565 6  99803299.26743  24372976.703                    24372987.457
 116514583.145 7  90790710.20744  22171963.859                    22171971.695
 108189857.700 8  84303926.42246  20587828.289                    20587833.625
 128545160.309 6 100165118.67943  24461339.859                    24461351.563
 109461735.028 8                  20829861.281
 11  7 26  2 22 30.0000000  0 10G10G17G25G12G05G09G04G02G27G01
 109968448.185 8  85689793.48745  20926282.773                    20926290.770
 124322173.796 6  96874513.23343  23657701.570                    23657710.324
 122742589.464 7                  23357149.828
 110334636.939 8  85975118.63746  20995982.344                    20995989.344
 112750658.675 7  87857756.70646  21455721.352                    21455729.215
 128165786.231 6  99869413.55043  24389122.039                    24389133.102
 116595124.233 7  90853469.50544  22187290.320                    22187298.211
 108199091.514 8  84311121.61846  20589585.578                    20589590.750
 128610762.874 6 100216237.50443  24473823.367                    24473834.695
 109476507.805 8                  20832672.703
 11  7 26  2 23  0.0000000  0 10G10G17G25G12G05G09G04G02G27G01
 109987584.170 7  85704704.67345  20929924.117                    20929931.891
 124385064.265 6  96923518.79144  23669669.625                    23669678.215
 122653044.028 7                  23340110.164
 110297558.959 8  85946226.73346  20988926.898                    20988933.891
 112672318.087 7  87796712.14846  21440813.633                    21440820.934
 128250657.942 6  99935547.35343  24405273.250                    24405284.152
 116675751.145 7  90916295.66245  22202632.922                    22202640.637
 108208582.404 8  84318517.12946  20591391.195                    20591396.727
 128676320.933 6 100267321.67143  24486298.477                    24486310.465
 109491551.511 8                  20835535.117
 11  7 26  2 23 30.0000000  0  9G10G17G25G12G05G09G04G02G01
 110007347.444 7  85720104.66245  20933685.078                    20933693.012
 124448127.520 6  96972658.98343  23681670.000                    23681678.207
 122563790.200 7                  23323125.688
 110261006.113 8  85917744.01546  20981971.219                    20981977.914
 112594378.797 7  87735980.28646  21425981.813                    21425989.992
 128335552.760 6 100001699.15643  24421427.875                    24421438.957
 116756463.202 7  90979188.18045  22217991.203                    22217999.367
 108218330.390 8  84326112.97546  20593245.711                    20593251.422
 109506866.006 8                  20838449.266
 11  7 26  2 24  0.0000000  0  9G10G17G25G12G05G09G04G02G01
 110027736.371 7  85735992.16545  20937565.109                    20937572.699
 124511362.770 6  97021933.20643  23693703.531                    23693711.867
 122474829.700 7                  23306196.492
 110224978.896 8  85889670.88046  20975115.273                    20975122.055
 112516842.756 7  87675562.63846  21411227.305                    21411235.398
 128420466.685 6 100067865.84943  24437586.180                    24437597.430
 116837257.896 7  91042145.08644  22233366.469                    22233374.469
 108228333.407 8  84333907.54246  20595150.250                    20595155.340
 109522448.830 8                  20841415.297
 11  7 26  2 24 30.0000000  0  9G10G17G25G12G05G09G04G02G01
 110048750.503 8  85752366.83745  20941564.148                    20941571.566
 124574770.713 6  97071341.99643  23705769.086                    23705777.891
 122386165.457 7                  23289325.172
 110189479.223 8  85862008.80646  20968360.000                    20968366.848
 112439712.570 7  87615461.25646  21396550.000                    21396557.617
 128505396.686 6 100134044.99744  24453748.836                    24453758.527
 116918133.724 7  91105165.21445  22248756.813                    22248764.598
 108238590.647 8  84341900.20146  20597101.563                    20597106.969
 109538299.141 8                  20844431.133
 11  7 26  2 25  0.0000000  0  9G10G17G25G12G05G09G04G02G01
 110070388.938 8  85769227.98145  20945681.664                    20945689.055
 124638351.234 6  97120885.30943  23717868.758                    23717876.668
 122297799.828 7                  23272508.672
 110154508.843 8  85834759.16846  20961705.531                    20961712.406
 112362990.497 7  87555677.88046  21381950.352                    21381957.988
 128590339.035 6 100200233.84643  24469912.133                    24469922.969
 116999088.789 7  91168247.07945  22264161.930                    22264169.816
 108249100.696 8  84350089.86346  20599101.617                    20599106.879
 109554414.830 8                  20847497.773
 11  7 26  2 25 30.0000000  0  9G10G17G25G12G05G09G04G02G01
 110092651.302 7  85786575.29545  20949917.836                    20949925.688
 124702105.088 6  97170563.65343  23729999.883                    23730008.898
 122209735.883 7                  23255751.227
 110120069.283 8  85807923.16146  20955151.555                    20955158.637
 112286679.518 7  87496214.81146  21367428.461                    21367436.285
 128675290.999 6 100266430.13544  24486078.773                    24486088.629
 117080121.929 7  91231389.79745  22279581.680                    22279590.422
 108259862.637 8  84358475.80746  20601149.578                    20601155.086
 109570794.816 8                  20850615.117
 11  7 26  2 26  0.0000000  0  9G10G17G25G12G05G09G04G02G01
 110115536.468 8  85804407.90145  20954272.891                    20954280.430
 124766032.570 6  97220377.26943  23742164.969                    23742173.699
 122121976.229 7                  23239050.586
 110086162.150 8  85781502.03246  20948699.594                    20948706.219
 112210781.891 7  87437073.85946  21352985.484                    21352993.617
 128760249.297 6 100332631.42143  24502245.375                    24502255.703
 117161231.560 7  91294592.10945  22295017.008                    22295024.746
 108270875.425 8  84367057.21746  20603245.172                    20603250.766
 109587438.113 8                  20853781.883
 11  7 26  2 26 30.0000000  0  9G10G17G25G12G05G09G04G02G01
 110139043.662 7  85822725.21945  20958745.836                    20958753.293
 124830133.642 6  97270326.16343  23754363.367                    23754371.695
 122034523.447 7                  23222409.000
 110052788.950 8  85755496.96546  20942348.680                    20942355.668
 112135300.098 7  87378256.91646  21338622.195                    21338629.578
 128845210.878 6 100398835.18443  24518413.539                    24518423.344
 117242415.881 7  91357852.62344  22310465.195                    22310473.758
 108282137.659 8  84375832.98646  20605388.484                    20605393.500
 109604342.919 8                  20856998.523
 11  7 26  2 27  0.0000000  0  9G10G17G25G12G05G09G04G02G01
 110163171.675 8  85841526.29045  20963337.000                    20963344.836
 124894408.223 6  97320410.30243  23766594.867                    23766602.125
 121947379.889 7                  23205825.852
 110019950.998 8  85729908.96846  20936099.797                    20936107.082
 112060236.423 7  87319765.79646  21324337.617                    21324345.613
 128930172.153 6 100465038.74344  24534580.695                    24534591.367
 117323673.093 7  91421169.92844  22325928.109                    22325936.246
 108293647.877 8  84384801.98946  20607578.672                    20607584.207
 109621507.533 8                  20860265.023
 11  7 26  2 27 30.0000000  0  9G10G17G25G12G05G09G04G02G01
 110187919.962 7  85860810.69845  20968046.680                    20968054.094
 124958857.125 6  97370630.30843  23778858.625                    23778867.027
 121860548.551 7                  23189302.773
 109987650.114 7  85704739.45946  20929953.211                    20929959.977
 111985593.571 7  87261602.58346  21310134.258                    21310141.637
 129015130.585 6 100531240.07343  24550747.313                    24550757.844
 117405001.896 7  91484543.02444  22341404.398                    22341412.617
 108305405.533 8  84393963.80846  20609816.406                    20609821.371
 109638930.978 8                  20863580.945
 11  7 26  2 28  0.0000000  0  9G10G17G25G12G05G09G04G02G01
 110213287.698 7  85880577.79645  20972874.063                    20972881.523
 125023480.526 6  97420986.17343  23791155.336                    23791164.270
 121774032.207 7                  23172838.508
 109955888.183 7  85679989.92246  20923908.898                    20923916.027
 111911374.150 7  87203769.32746  21296009.969                    21296017.813
 129100083.116 6 100597436.77943  24566913.094                    24566924.172
 117486400.768 7  91547970.73344  22356894.086                    22356902.277
 108317409.635 8  84403317.65546  20612100.711                    20612105.684
 109656612.073 8                  20866945.211
 11  7 26  2 28 30.0000000  0  9G10G17G25G12G05G09G04G02G01
 110239273.682 7  85900826.64745  20977819.102                    20977826.770
 125088278.497 6  97471478.08644  23803486.297                    23803495.090
 121687833.288 7                  23156435.469
 109924665.449 8  85655660.54546  20917967.500                    20917974.379
 111837580.418 7  87146267.75746  21281968.266                    21281975.473
 129185026.233 6 100663626.17043  24583078.180                    24583088.082
 117567868.066 7  91611451.76144  22372396.695                    22372404.996
 108329658.566 8  84412862.29546  20614431.328                    20614436.273
 109674549.136 8                  20870358.492
 11  7 26  2 29  0.0000000  0  9G10G17G25G12G05G09G04G02G01
 110265876.971 7  85921556.50845  20982881.750                    20982888.934
 125153250.959 7  97522106.00543  23815850.633                    23815859.090
 121601954.441 7                  23140093.547
 109893984.145 8  85631753.04246  20912128.898                    20912135.805
 111764214.740 8  87089099.74046  21268006.789                    21268014.305
 129269956.726 6 100729805.70743  24599239.383                    24599250.555
 117649402.027 7  91674984.74244  22387911.383                    22387920.246
 108342150.886 8  84422596.58946  20616808.438                    20616813.703
 109692740.401 8                  20873820.102
 11  7 26  2 29 30.0000000  0  9G10G17G25G12G05G09G04G02G01
 110293096.701 7  85942766.72545  20988061.219                    20988068.707
 125218399.045 7  97572870.77943  23828248.094                    23828256.176
 121516398.594 7                  23123812.664
 109863845.998 8  85608268.80146  20906393.633                    20906400.773
 111691279.685 8  87032267.28146  21254127.477                    21254135.258
 129354871.975 5 100795973.49442  24615397.742                    24615409.406
 117731001.649 7  91738568.87244  22403440.242                    22403447.973
 108354886.346 8  84432520.34746  20619232.039                    20619236.969
 109711185.361 8                  20877330.328
 11  7 26  2 30  0.0000000  0  9G10G17G25G12G05G09G04G02G01
 110320930.935 7  85964455.78045  20993357.523                    20993365.543
 125283722.014 6  97623771.79743  23840678.234                    23840686.918
 121431167.723 7                  23107593.898
 109834251.628 8  85585208.26546  20900762.023                    20900769.539
 111618777.178 8  86975771.87446  21240330.672                    21240338.254
 129439768.247 5 100862126.20442  24631553.914                    24631564.586
 117812664.815 7  91802202.53544  22418980.516                    22418988.227
 108367862.737 8  84442631.84646  20621701.719                    20621706.375
 109729881.504 8                  20880887.930
 11  7 26  2 30 30.0000000  0  9G10G17G25G12G05G09G04G02G01
 110349379.721 7  85986623.69145  20998771.367                    20998779.383
 125349220.651 6  97674809.69043  23853142.039                    23853150.676
 121346265.233 7                  23091436.641
 109805203.025 8  85562573.00946  20895234.492                    20895241.559
 111546710.189 8  86919615.82746  21226616.453                    21226624.602
 129524642.974 5 100928262.36742  24647705.367                    24647715.508
 117894390.256 7  91865884.71444  22434531.828                    22434540.559
 108381079.868 8  84452930.95446  20624216.297                    20624221.035
 109748828.222 8                  20884493.359
 11  7 26  2 31  0.0000000  0  9G10G17G25G12G05G09G04G02G01
 110378441.301 7  86009269.10745  21004301.539                    21004309.309
 125414894.679 6  97725984.26044  23865639.938                    23865648.328
 121261693.202 7                  23075343.664
 109776701.066 8  85540363.71446  20889810.477                    20889818.098
 111475080.644 8  86863800.65546  21212985.930                    21212993.645
 129609492.598 6                  24663850.922
 117976176.426 7  91929614.22944  22450095.484                    22450103.910
 108394536.102 8  84463416.35746  20626776.773                    20626782.230
 109768023.529 8                  20888146.133
 11  7 26  2 31 30.0000000  0  9G10G17G25G12G05G09G04G02G01
 110408115.005 7  86032391.50445  21009948.289                    21009955.938
 125480744.778 6  97777296.01743  23878171.094                    23878179.332
 121177454.778 7                  23059313.570
 109748747.601 8  85518581.81946  20884491.258                    20884498.383
 111403891.634 8  86808328.74646  21199439.359                    21199447.313
 129694314.452 6 101060482.79752  24679992.109                    24680002.367
 118058021.996 7  91993390.02444  22465669.836                    22465678.250
 108408231.371 8  84474088.02346  20629383.273                    20629388.352
 109787466.790 8                  20891846.172
 11  7 26  2 32  0.0000000  0  9G10G17G25G12G05G09G04G02G01
 110438399.313 7  86055989.69045  21015711.336                    21015718.770
 125546770.756 6  97828744.84443  23890734.203                    23890743.477
 121093552.190 7                  23043347.375
 109721343.714 7  85497228.16146  20879276.102                    20879283.137
 111333144.689 8  86753201.30546  21185976.625                    21185984.188
 129779105.038 6 101126553.37442  24696127.539                    24696137.426
 118139925.326 7  92057210.82544  22481255.719                    22481263.977
 108422162.846 8  84484943.74646  20632034.109                    20632039.156
 109807156.111 8                  20895592.813
 11  7 26  2 32 30.0000000  0  9G10G17G25G12G05G09G04G02G01
 110469293.170 7  86080062.85445  21021590.188                    21021598.109
 125612972.720 6  97880330.76043  23903332.555                    23903341.023
 121009988.161 7                  23027446.094
 109694490.644 8  85476303.72246  20874166.758                    20874173.652
 111262842.368 8  86698420.32246  21172598.070                    21172605.512
 129863861.674 6 101192597.49043  24712256.797                    24712266.734
 118221884.940 7  92121075.48644  22496851.898                    22496860.066
 108436329.940 8  84495983.05846  20634729.938                    20634735.125
 109827090.030 8                  20899385.945
 11  7 26  2 33  0.0000000  0  9G10G17G25G12G05G09G04G02G01
 110500794.589 7  86104609.43445  21027585.148                    21027592.531
 125679350.736 5  97932053.85343  23915963.750                    23915972.746
 120926764.879 7                  23011609.133
 109668189.434 8  85455809.29846  20869161.445                    20869168.340
 111192986.647 8  86643987.33146  21159305.352                    21159312.391
 129948580.745 6 101258612.31443  24728377.727                    24728388.438
 118303898.880 7  92184982.46244  22512458.992                    22512467.250
 108450731.334 8  84507204.94346  20637470.664                    20637476.176
 109847266.744 8                  20903225.547
 11  7 26  2 33 30.0000000  0  9G10G17G25G12G05G09G04G02G01
 110532903.047 7  86129629.02145  21033694.961                    21033702.508
 125745905.388 6  97983914.60043  23928628.406                    23928637.457
 120843885.583 7                  22995837.672
 109642441.694 7  85435746.15246  20864261.945                    20864268.500
 111123580.238 8  86589904.45546  21146097.555                    21146104.160
 130033259.724 6 101324595.86643  24744491.484                    24744502.594
 118385966.414 7  92248931.21344  22528075.445                    22528083.695
 108465366.151 8  84518608.72746  20640255.422                    20640260.785
 109867685.383 8                  20907110.992
 11  7 26  2 34  0.0000000  0  9G10G17G25G12G05G09G04G02G01
 110565617.552 7  86155120.86146  21039919.953                    21039927.699
 125812636.924 6  98035913.24843  23941327.328                    23941335.625
 120761352.717 7                  22980131.633
 109617248.445 7  85416115.07246  20859467.586                    20859474.516
 111054625.611 8  86536173.62146  21132976.102                    21132983.199
 130117895.475 6 101390545.73043  24760597.305                    24760607.684
 118468085.894 7  92312920.42744  22543702.305                    22543710.797
 108480233.570 8  84530193.75046  20643084.602                    20643089.711
 109888344.594 8                  20911042.164
 11  7 26  2 34 30.0000000  0  9G10G17G25G12G05G09G04G02G01
 110598936.786 8  86181083.91845  21046260.672                    21046268.000
 125879545.167 6  98088049.56443  23954059.602                    23954067.699
 120679168.904 7                  22964492.984
 109592611.220 8  85396917.26146  20854779.211                    20854786.156
 110986124.704 8  86482796.33746  21119940.469                    21119947.691
 130202484.907 6 101456459.53043  24776693.469                    24776705.320
 118550255.954 7  92376949.05244  22559338.992                    22559347.098
 108495332.145 8  84541958.89546  20645958.094                    20645962.617
 109909242.800 8                  20915019.086
 11  7 26  2 35  0.0000000  0  9G10G17G25G12G05G09G04G02G01
 110632859.217 7  86207516.98945  21052716.023                    21052723.352
 125946630.321 6  98140323.73243  23966826.180                    23966833.859
 120597336.507 7                  22948920.586
 109568530.770 7  85378153.30146  20850197.219                    20850204.016
 110918079.856 8  86429774.41146  21106992.352                    21106999.141
 130287025.104 6 101522334.93443  24792781.781                    24792791.836
 118632474.717 7  92441015.64744  22574984.492                    22574992.891
 108510660.563 8  84553903.14146  20648875.047                    20648880.121
 109930378.492 8                  20919041.000
 11  7 26  2 35 30.0000000  0  9G10G17G25G12G05G09G04G02G01
 110667383.632 7  86234419.14445  21059285.570                    21059293.148
 126013892.362 6  98192735.72943  23979624.750                    23979634.141
 120515858.439 7                  22933415.477
 109545008.411 8  85359824.21946  20845720.758                    20845727.480
 110850493.284 7  86377109.59446  21094131.133                    21094137.766
 130371512.973 6 101588169.59644  24808859.383                    24808870.145
 118714741.088 7  92505119.30044  22590639.516                    22590647.605
 108526217.867 8  84566025.73946  20651835.148                    20651840.262
 109951750.581 8                  20923107.789
 11  7 26  2 36  0.0000000  0  9G10G17G25G12G05G09G04G02G01
 110702508.924 7  86261789.50945  21065969.438                    21065976.996
 126081331.916 6  98245286.06243  23992458.500                    23992466.406
 120434737.346 7                  22917978.789
 109522045.574 8  85341931.11846  20841351.195                    20841358.273
 110783367.394 7  86324803.75046  21081356.898                    21081364.078
 130455945.797 6 101653961.34244  24824926.898                    24824937.340
 118797053.873 7  92569259.13344  22606303.242                    22606311.441
 108542003.266 8  84578326.06746  20654838.961                    20654843.852
 109973357.672 8                  20927219.703
 11  7 26  2 36 30.0000000  0  9G10G17G25G12G05G09G04G02G01
 110738232.716 7  86289626.23845  21072767.797                    21072775.102
 126148948.348 6  98297974.26143  24005325.539                    24005332.813
 120353975.143 7                  22902609.742
 109499642.589 8  85324474.27946  20837088.117                    20837094.984
 110716703.710 7  86272858.06046  21068670.883                    21068678.387
 130540320.014 6 101719707.38144  24840982.391                    24840993.703
 118879411.052 7  92633433.56244  22621974.789                    22621983.379
 108558014.889 8  84590802.68246  20657886.320                    20657890.938
 109995197.670 8                  20931375.875
 11  7 26  2 37  0.0000000  0  8G10G17G25G12G05G04G02G01
 110774555.439 7  86317929.68145  21079679.828                    21079687.020
 126216743.465 7  98350801.67543  24018226.484                    24018233.594
 120273576.072 7                  22887310.977
 109477802.335 8  85307455.93346  20832931.797                    20832938.758
 110650506.084 7  86221275.53046  21056073.977                    21056081.523
 118961812.803 7  92697642.69544  22637655.063                    22637663.238
 108574253.250 8  84603455.97046  20660975.750                    20660981.043
 110017270.917 8                  20935576.055
 11  7 26  2 37 30.0000000  0  8G10G17G25G12G05G04G02G01
 110811474.946 7  86346698.14945  21086705.203                    21086712.676
 126284716.586 7  98403767.87143  24031161.016                    24031168.152
 120193541.933 7                  22872080.234
 109456525.106 8  85290876.30446  20828883.016                    20828889.773
 110584776.050 7  86170057.36246  21043566.656                    21043574.117
 119044256.962 7  92761884.91844  22653343.836                    22653352.250
 108590716.394 8  84616284.41646  20664108.820                    20664113.734
 110039575.311 8                  20939820.266
 11  7 26  2 38  0.0000000  0  8G10G17G25G12G05G04G02G01
 110848989.008 7  86375929.90145  21093843.938                    21093851.145
 126352866.991 6  98456872.12843  24044129.594                    24044136.500
 120113874.679 7                  22856919.750
 109435811.325 8  85274735.73046  20824940.883                    20824948.406
 110519515.029 8  86119204.66646  21031147.477                    21031154.996
 119126741.511 7  92826158.57744  22669040.289                    22669048.609
 108607402.374 8  84629286.50546  20667284.047                    20667289.395
 110062108.770 8                  20944108.586
 11  7 26  2 38 30.0000000  0  8G10G17G25G12G05G04G02G01
 110887096.097 7  86405623.75345  21101095.211                    21101102.699
 126421195.031 6  98510114.79843  24057131.844                    24057140.066
 120034576.848 7                  22841830.945
 109415662.394 8  85259035.29146  20821106.938                    20821113.590
 110454724.928 7  86068718.92646  21018818.336                    21018825.836
 119209265.244 7  92890462.79044  22684744.289                    22684752.480
 108624310.409 8  84642461.61746  20670501.344                    20670506.434
 110084869.761 8                  20948439.680
 11  7 26  2 39  0.0000000  0  8G10G17G25G12G05G04G02G01
 110925794.519 7  86435778.38445  21108459.742                    21108467.227
 126489700.457 6  98563495.65744  24070167.016                    24070176.078
 119955650.829 7                  22826811.656
 109396078.460 8  85243775.11546  20817380.281                    20817387.258
 110390408.010 7  86018601.89246  21006579.438                    21006586.758
 119291826.534 7  92954796.24544  22700455.172                    22700463.012
 108641438.904 8  84655808.52546  20673761.063                    20673766.211
 110107856.819 8                  20952813.891
 11  7 26  2 39 30.0000000  0  8G10G17G25G12G05G04G02G01
 110965083.361 7  86466393.09345  21115935.656                    21115943.254
 126558383.924 6  98617015.24543  24083237.750                    24083246.434
 119877099.537 7                  22811863.633
 109377060.941 8  85228956.29346  20813761.445                    20813768.230
 110326566.283 7  85968855.13546  20994430.734                    20994437.754
 119374424.344 7  93019158.17144  22716172.938                    22716180.938
 108658787.166 8  84669326.67346  20677062.141                    20677067.301
 110131069.004 8                  20957231.211
 11  7 26  2 40  0.0000000  0  8G10G17G25G12G05G04G02G01
 111004961.196 7  86497466.74245  21123524.781                    21123531.777
 126627245.144 6  98670673.40543  24096341.820                    24096350.051
 119798925.679 7                  22796988.008
 109358611.306 8  85214579.98946  20810250.539                    20810256.918
 110263202.363 7  85919480.69146  20982372.719                    20982380.016
 119457057.468 7  93083547.60844  22731897.531                    22731905.621
 108676354.447 8  84683015.49846  20680405.086                    20680410.590
 110154504.789 8                  20961690.547
 11  7 26  2 40 30.0000000  0  8G10G17G25G12G05G04G02G01
 111045425.737 7  86528997.59045  21131224.313                    21131231.941
 126696284.321 6  98724470.21043  24109479.094                    24109487.289
 119721131.359 7                  22782184.117
 109340729.895 8  85200646.43946  20806847.836                    20806854.395
 110200318.004 7  85870479.93246  20970405.992                    20970413.527
 119539724.348 7  93147963.35744  22747628.453                    22747636.438
 108694139.161 8  84696873.74946  20683789.250                    20683794.629
 110178162.546 8                  20966192.703
 11  7 26  2 41  0.0000000  0  8G10G17G25G12G05G04G02G01
 111086475.824 7  86560984.69945  21139035.820                    21139043.371
 126765501.602 5  98778405.78843  24122651.047                    24122659.016
 119643719.408 7                  22767452.969
 109323417.853 8  85187156.56746  20803553.531                    20803560.012
 110137915.257 7  85821854.45546  20958531.148                    20958538.426
 119622423.757 7  93212404.43944  22763365.273                    22763373.574
 108712140.237 8  84710900.58846  20687214.617                    20687220.008
 110202041.393 8                  20970736.563
 11  7 26  2 41 30.0000000  0  8G10G17G25G12G05G04G02G01
 111128109.573 7  86593426.60545  21146958.805                    21146965.980
 126834896.864 6  98832479.98743  24135856.250                    24135864.918
 119566692.238 7                  22752795.406
 109306676.259 8  85174111.18746  20800367.570                    20800374.688
 110075996.066 8  85773605.78346  20946748.219                    20946755.652
 119705154.377 7  93276869.86344  22779108.750                    22779116.539
 108730356.380 8  84725095.01846  20690680.898                    20690685.895
 110226139.608 8                  20975322.594
 11  7 26  2 42  0.0000000  0  8G10G17G25G12G05G04G02G01
 111170325.695 7  86626322.31345  21154992.094                    21154999.598
 126904470.488 6  98886693.19344  24149096.055                    24149104.938
 119490052.692 7                  22738210.977
 109290505.997 8  85161511.00546  20797290.344                    20797297.117
 110014562.839 8  85725735.77446  20935058.094                    20935065.543
 119787915.186 7  93341358.79944  22794857.445                    22794865.695
 108748787.136 8  84739456.67146  20694188.578                    20694193.473
 110250456.161 8                  20979949.133
 11  7 26  2 42 30.0000000  0  8G10G17G25G12G05G04G02G01
 111213122.471 7  86659670.47345  21163136.055                    21163143.059
 126974222.678 6  98941045.56944  24162370.070                    24162377.984
 119413803.183 7                  22723700.953
 109274907.681 8  85149356.48346  20794322.398                    20794328.949
 109953617.434 8  85678245.89746  20923460.414                    20923467.547
 119870704.948 7  93405870.31144  22810611.852                    22810620.094
 108767431.257 8  84753984.58146  20697736.602                    20697741.254
 110274989.662 8                  20984618.000
 11  7 26  2 43  0.0000000  0  8G10G17G25G12G05G04G02G01
 111256497.782 7  86693469.42945  21171390.125                    21171397.063
 127044152.388 7  98995536.26944  24175677.195                    24175684.957
 119337945.504 7                  22709265.805
 109259881.668 8  85137647.91846  20791462.898                    20791469.277
 109893161.243 8  85631137.22546  20911955.820                    20911963.281
 119953521.613 7  93470402.78044  22826371.164                    22826379.480
 108786286.646 8  84768677.10446  20701324.234                    20701329.656
 110299737.732 8                  20989327.336
 11  7 26  2 43 30.0000000  0  8G10G17G25G12G05G04G02G01
 111300450.155 7  86727718.05545  21179753.828                    21179760.813
 127114260.611 6  99050166.06743  24189017.719                    24189026.043
 119262482.745 7                  22694905.336
 109245429.327 7  85126386.35846  20788712.680                    20788719.828
 109833196.748 8  85584411.68546  20900545.063                    20900552.313
 120036364.474 7  93534955.64344  22842135.563                    22842143.961
 108805352.983 8  84783534.02346  20704952.609                    20704957.758
 110324699.798 8                  20994077.523
 11  7 26  2 44  0.0000000  0  8G10G17G25G12G05G04G02G01
 111344977.985 7  86762415.08345  21188227.250                    21188234.684
 127184547.238 6  99104934.89443  24202392.133                    24202400.898
 119187417.509 7                  22680620.766
 109231551.463 8  85115572.44746  20786071.563                    20786078.289
 109773726.039 8  85538070.91246  20889228.172                    20889235.215
 120119232.649 7  93599528.25544  22857904.734                    22857913.359
 108824629.537 8  84798554.74046  20708620.609                    20708625.660
 110349874.890 8                  20998868.180
 11  7 26  2 44 30.0000000  0  8G10G17G25G12G05G04G02G01
 111390078.950 7  86797558.73045  21196809.477                    21196816.914
 127255012.067 6  99159842.56843  24215801.695                    24215810.086
 119112751.876 7                  22666412.750
 109218248.798 7  85105206.74446  20783540.031                    20783546.965
 109714750.592 8  85492116.05846  20878005.344                    20878012.348
 120202124.372 6  93664119.23044  22873678.977                    22873687.137
 108844114.354 8  84813737.74646  20712328.227                    20712333.824
 110375261.129 8                  21003698.922
 11  7 26  2 45  0.0000000  0  8G10G17G25G12G05G04G02G01
 111435751.906 7  86833148.06045  21205501.094                    21205507.867
 127325655.174 7  99214889.14543  24229244.609                    24229252.711
 119038488.684 7                  22652280.398
 109205522.058 8  85095289.80046  20781118.813                    20781125.066
 109656272.734 8  85446548.93846  20866877.594                    20866884.672
 120285038.784 6  93728727.87944  22889457.172                    22889465.504
 108863806.987 7  84829082.67346  20716075.750                    20716081.082
 110400857.581 8                  21008569.555
 11  7 26  2 45 30.0000000  0  8G10G17G25G12G05G04G02G01
 111481994.912 7  86869181.58645  21214301.000                    21214307.762
 127396476.646 6  99270074.71643  24242721.992                    24242729.609
 118964630.057 7                  22638225.641
 109193371.732 7  85085822.01846  20778806.414                    20778813.063
 109598293.917 8  85401370.67346  20855844.664                    20855852.066
 120367974.363 6  93793353.02544  22905238.750                    22905247.590
 108883705.754 7  84844588.22846  20719862.438                    20719867.309
 110426662.246 8                  21013480.375
 11  7 26  2 46  0.0000000  0  9G10G17G25G12G05G29G04G02G01
 111528806.599 7  86905658.22745  21223208.672                    21223215.809
 127467476.582 7  99325399.37743  24256232.766                    24256239.910
 118891178.728 7                  22624248.398
 109181798.705 8  85076804.08046  20776604.195                    20776610.609
 109540816.441 8  85356583.07446  20844907.047                    20844913.945
 129564849.21316                  24655374.438
 120450930.237 6  93857993.98444  22921025.008                    22921033.328
 108903810.220 8  84860254.06246  20723688.188                    20723693.547
 110452674.519 8                  21018430.180
 11  7 26  2 46 30.0000000  0  9G10G17G25G12G05G29G04G02G01
 111576184.940 7  86942576.43545  21232224.602                    21232231.762
 127538655.114 6  99380863.16243  24269777.258                    24269784.703
 118818137.290 7                  22610348.664
 109170804.101 8  85068236.87146  20774512.102                    20774518.207
 109483842.190 8  85312187.59846  20834065.000                    20834071.598
 129484641.418 5 100897165.22752  24640111.164                    24640119.691
 120533905.328 7  93922649.93444  22936814.656                    22936822.766
 108924119.276 8  84876079.32146  20727552.664                    20727557.832
 110478892.737 8                  21023418.875
 11  7 26  2 47  0.0000000  0  9G10G17G25G12G05G29G04G02G01
 111624127.632 7  86979934.38045  21241347.859                    21241354.805
 127610011.631 6  99436465.67143  24283355.734                    24283364.320
 118745507.789 7                  22596527.820
 109160387.631 7  85060120.15146  20772529.594                    20772536.340
 109427372.975 8  85268185.65746  20823319.109                    20823326.418
 129404365.649 5 100834612.79342  24624833.820                    24624843.863
 120616898.078 7  93987319.62544  22952607.813                    22952616.043
 108944631.693 8  84892063.03446  20731456.242                    20731461.188
 110505315.561 8                  21028447.336
 11  7 26  2 47 30.0000000  0  9G10G17G25G12G05G29G04G02G01
 111672633.093 7  87017730.85645  21250577.930                    21250585.098
 127681546.651 6  99492207.24543  24296968.219                    24296976.664
 118673292.848 7                  22582786.359
 109150550.373 8  85052454.76946  20770657.594                    20770664.480
 109371410.321 8  85224578.43946  20812670.172                    20812677.352
 129324022.493 5 100772007.76852  24609545.125                    24609555.242
 120699907.318 6  94052002.17244  22968404.656                    22968412.250
 108965346.181 8  84908204.21146  20735397.992                    20735403.035
 110531941.432 8                  21033513.969
 11  7 26  2 48  0.0000000  0  9G10G17G25G12G05G29G04G02G01
 111721699.197 7  87055964.19145  21259915.305                    21259921.906
 127753259.915 6  99548087.74643  24310616.289                    24310622.688
 118601494.850 7                  22569123.555
 109141292.921 8  85045241.19046  20768896.047                    20768902.996
 109315956.119 8  85181367.41446  20802116.898                    20802124.305
 129243612.55815 100709350.83852  24594244.141                    24594254.180
 120782931.954 6  94116696.72244  22984203.438                    22984210.980
 108986261.745 8  84924502.06046  20739378.023                    20739382.988
 110558769.087 8                  21038619.328
 11  7 26  2 48 30.0000000  0  9G10G17G25G12G05G29G04G02G01
 111771324.205 7  87094633.05045  21269358.016                    21269365.199
 127825151.347 6  99604107.04243  24324295.719                    24324303.301
 118530116.146 7                  22555540.180
 109132615.574 8  85038479.64946  20767244.984                    20767251.180
 109261012.189 8  85138554.01346  20791661.695                    20791668.477
 129163136.506 6 100646642.25442  24578931.234                    24578940.168
 120865971.018 7  94181402.49244  23000004.891                    23000012.879
 109007377.114 8  84940955.62146  20743396.195                    20743401.305
 110585797.552 8                  21043762.578
 11  7 26  2 49  0.0000000  0  9G10G17G25G12G05G29G04G02G01
 111821505.702 7  87133735.51845  21278907.547                    21278914.934
 127897220.413 6  99660264.79443  24338010.734                    24338018.379
 118459158.918 7                  22542037.336
 109124519.283 8  85032170.86346  20765703.578                    20765710.785
 109206579.683 8  85096139.10746  20781303.563                    20781310.492
 129082594.371 5 100583882.20942  24563602.836                    24563613.902
 120949022.844 6  94246118.22444  23015808.906                    23015816.930
 109028691.354 8  84957564.13646  20747452.016                    20747457.500
 110613024.985 8                  21048943.781
 11  7 26  2 49 30.0000000  0  9G10G17G25G12G05G29G04G02G01
 111872242.129 7  87173270.40945  21288562.125                    21288569.961
 127969468.056 6  99716561.65743  24351757.922                    24351766.156
 118388625.816 7                  22528615.984
 109117004.154 8  85026314.94046  20764274.055                    20764280.730
 109152660.949 8  85054124.55246  20771043.406                    20771050.316
 129001986.859 5 100521071.38942  24548263.375                    24548274.941
 121032086.703 7  94310843.32844  23031615.859                    23031622.902
 109050203.706 8  84974327.02846  20751545.766                    20751551.000
 110640450.381 8                  21054162.539
 11  7 26  2 50  0.0000000  0  9G10G17G25G12G05G29G04G02G01
 111923531.244 7  87213235.96345  21298322.266                    21298329.754
 128041893.523 6  99772997.07143  24365540.242                    24365548.406
 118318519.056 7                  22515274.617
 109110070.589 7  85020912.19546  20762954.258                    20762961.223
 109099257.251 8  85012511.32646  20760880.555                    20760888.035
 128921314.546 6 100458209.90343  24532912.883                    24532923.047
 121115161.328 7  94375576.79944  23047424.313                    23047431.789
 109071912.635 7  84991243.09346  20755677.102                    20755681.848
 110668072.152 8                  21059418.836
 11  7 26  2 50 30.0000000  0  9G10G17G25G12G05G29G04G02G01
 111975371.354 7  87253630.87445  21308187.000                    21308194.270
 128114496.907 6  99829571.13443  24379356.258                    24379364.887
 118248841.139 7                  22502015.305
 109103719.491 7  85015963.31246  20761745.703                    20761752.566
 109046370.926 8  84971301.23946  20750816.484                    20750823.695
 128840578.280 5 100395298.66042  24517549.055                    24517558.410
 121198245.593 6  94440317.77444  23063234.375                    23063241.879
 109093817.440 8  85008311.77846  20759845.078                    20759850.465
 110695889.206 8                  21064712.539
 11  7 26  2 51  0.0000000  0  9G10G17G25G12G05G29G04G02G01
 112027760.465 7  87294453.56945  21318155.953                    21318163.773
 128187278.228 6  99886283.85843  24393206.328                    24393214.320
 118179594.562 7                  22488837.977
 109097951.260 7  85011468.60646  20760648.578                    20760654.879
 108994003.594 8  84930495.57546  20740851.500                    20740858.484
 128759778.501 6 100332337.85042  24502173.063                    24502182.094
 121281338.549 7  94505065.52644  23079046.656                    23079053.828
 109115916.953 8  85025532.19046  20764050.445                    20764055.910
 110723900.249 8                  21070042.547
 11  7 26  2 51 30.0000000  0  9G10G17G25G12G05G29G04G02G01
 112080695.906 7  87335701.97245  21328229.383                    21328236.875
 128260236.902 6  99943134.81543  24407090.398                    24407097.848
 118110781.164 7                  22475743.336
 109092765.426 7  85007427.71546  20759661.641                    20759668.203
 108942156.202 8  84890095.03646  20730985.703                    20730992.391
 128678915.418 6 100269327.73543  24486785.648                    24486794.762
 121364438.871 7  94569819.02944  23094860.500                    23094867.656
 109138209.844 7  85042903.29046  20768292.609                    20768297.781
 110752103.570 8                  21075409.617
 11  7 26  2 52  0.0000000  0  9G10G17G25G12G05G29G04G02G01
 112134176.190 7  87377374.93845  21338406.484                    21338413.957
 128333373.492 6 100000124.39643  24421007.906                    24421015.234
 118042403.911 7                  22462731.797
 109088163.203 7  85003841.59246  20758785.922                    20758792.277
 108890830.968 8  84850101.39546  20721218.258                    20721225.371
 128597990.116 5 100206269.18743  24471384.492                    24471395.348
 121447546.022 7  94634577.83544  23110674.969                    23110682.508
 109160695.473 8  85060424.58446  20772571.609                    20772576.656
 110780498.576 8                  21080812.664
 11  7 26  2 52 30.0000000  0  9G10G17G25G12G05G29G04G02G01
 112188199.046 7  87419470.68545  21348686.875                    21348694.262
 128406687.624 6 100057252.35443  24434958.672                    24434966.191
 117974464.718 7                  22449803.141
 109084144.843 7  85000710.42346  20758020.516                    20758027.973
 108840029.412 8  84810515.80946  20711551.016                    20711558.574
 128517002.854 6 100143162.31443  24455974.406                    24455984.074
 121530658.406 7  94699340.76243  23126490.633                    23126498.625
 109183372.699 7  85078095.17946  20776886.766                    20776892.012
 110809083.481 8                  21086252.430
 11  7 26  2 53  0.0000000  0  9G10G17G25G12G05G29G04G02G01
 112242762.002 7  87461987.30345  21359069.602                    21359076.691
 128480178.795 6 100114518.22143  24448943.492                    24448951.273
 117906965.538 7                  22436958.500
 109080710.226 7  84998034.11446  20757366.609                    20757373.590
 108789752.628 8  84771339.13446  20701983.922                    20701990.875
 128435953.993 6 100080007.41443  24440551.680                    24440560.328
 121613774.874 7  94764106.86943  23142307.320                    23142314.441
 109206239.940 8  85095913.81346  20781238.266                    20781243.555
 110837856.736 8                  21091727.563
 11  7 26  2 53 30.0000000  0  9G10G17G25G12G05G29G04G02G01
 112297863.705 7  87504923.72345  21369555.367                    21369562.563
 128553847.785 6 100171922.70843  24462961.563                    24462969.656
 117839909.487 7                  22424197.953
 109077860.093 7  84995813.24946  20756824.766                    20756831.969
 108740002.714 8  84732572.99946  20692516.453                    20692523.352
 128354844.838 6 100016805.55243  24425116.070                    24425125.414
 121696894.844 7  94828875.68743  23158124.164                    23158132.387
 109229297.024 7  85113880.39646  20785626.195                    20785631.273
 110866817.838 8                  21097238.742
 11  7 26  2 54  0.0000000  0  9G10G17G25G12G05G29G04G02G01
 112353501.446 7  87548277.83945  21380142.461                    21380149.805
 128627693.971 6 100229465.19242  24477013.969                    24477023.246
 117773298.161 7                  22411522.453
 109075594.170 8  84994047.61346  20756393.547                    20756400.355
 108690780.856 8  84694218.34546  20683149.727                    20683157.039
 128273675.527 6  99953556.81443  24409670.297                    24409679.328
 121780016.700 6  94893645.96443  23173940.992                    23173949.563
 109252542.057 8  85131993.43446  20790049.367                    20790054.582
 110895964.487 8                  21102785.109
 11  7 26  2 54 30.0000000  0  9G10G17G25G12G05G29G04G02G01
 112409673.244 7  87592048.09345  21390831.852                    21390838.547
 128701717.011 5 100287145.49742  24491100.422                    24491109.316
 117707134.130 7                  22398931.719
 109073913.297 8  84992737.85746  20756073.758                    20756081.109
 108642088.621 8  84656276.37746  20673884.273                    20673891.289
 128192446.753 6  99890261.73542  24394213.469                    24394223.203
 121863139.860 6  94958417.23243  23189758.906                    23189767.320
 109275974.734 8  85150252.67446  20794508.367                    20794513.762
 110925296.059 8                  21108367.039
 11  7 26  2 55  0.0000000  0  9G10G17G25G12G05G29G04G02G01
 112466377.206 7  87636233.02145  21401622.328                    21401629.215
 128775916.952 5 100344963.73842  24505219.555                    24505229.094
 117641419.882 7                  22386426.344
 109072817.726 8  84991884.17946  20755865.086                    20755872.078
 108593927.919 8  84618748.58746  20664719.359                    20664726.426
 128111159.445 6  99826921.09342  24378744.883                    24378754.563
 121946263.418 6  95023188.83943  23205577.273                    23205585.227
 109299593.822 8  85168657.18346  20799002.977                    20799007.684
 110954811.435 8                  21113983.586
 11  7 26  2 55 30.0000000  0  8G10G25G12G05G29G04G02G01
 112523611.436 7  87680831.15045  21412513.789                    21412520.602
 117576157.994 7                  22374007.523
 109072308.072 8  84991487.05846  20755768.086                    20755774.961
 108546300.825 8  84581636.59346  20655656.133                    20655663.449
 128029814.570 6  99763535.53343  24363265.453                    24363275.043
 122029386.646 6  95087960.17643  23221395.414                    23221403.387
 109323398.895 8  85187206.62246  20803532.914                    20803537.984
 110984509.786 8                  21119634.969
 11  7 26  2 56  0.0000000  0  8G10G25G12G05G29G04G02G01
 112581373.551 7  87725840.61045  21423505.594                    21423512.672
 117511350.434 7                  22361675.563
 109072384.060 8  84991546.28346  20755783.078                    20755789.453
 108499208.128 8  84544941.03246  20646694.914                    20646701.863
 127948412.648 6  99700105.47243  24347775.164                    24347783.977
 122112508.198 7  95152730.17743  23237213.070                    23237220.730
 109347388.537 8  85205899.86946  20808097.820                    20808102.914
 111014389.361 8                  21125321.078
 11  7 26  2 56 30.0000000  0  8G10G25G12G05G29G04G02G01
 112639660.864 7  87771259.31145  21434596.711                    21434603.941
 117446998.931 7                  22349429.633
 109073045.448 8  84992061.66746  20755908.516                    20755915.363
 108452650.709 8  84508662.56646  20637834.852                    20637841.707
 127866953.802 6  99636631.10243  24332274.148                    24332282.320
 122195626.843 6  95217497.95143  23253029.672                    23253037.582
 109371561.357 8  85224735.86546  20812698.164                    20812702.797
 111044448.419 8                  21131040.891
 11  7 26  2 57  0.0000000  0  8G10G25G12G05G29G04G02G01
 112698470.925 7  87817085.36345  21445787.969                    21445795.129
 117383105.705 7                  22337270.914
 109074292.642 8  84993033.51846  20756145.820                    20756152.523
 108406630.156 8  84472802.43646  20629077.750                    20629084.660
 127785438.558 6  99573112.81443  24316761.148                    24316770.773
 122278741.414 6  95282262.52944  23268846.352                    23268853.953
 109395916.065 8  85243713.58546  20817332.781                    20817337.371
 111074685.705 8                  21136794.922
 11  7 26  2 57 30.0000000  0  8G10G25G12G05G29G04G02G01
 112757801.874 7  87863317.29545  21457078.203                    21457085.793
 117319673.341 7                  22325200.328
 109076125.551 8  84994461.77246  20756494.789                    20756501.523
 108361148.177 8  84437361.97146  20620422.844                    20620429.844
 127703868.156 6  99509551.50443  24301239.078                    24301248.402
 122361851.313 6  95347023.48044  23284661.820                    23284669.746
 109420452.315 8  85262832.75846  20822001.422                    20822006.281
 111105100.360 8                  21142582.523
 11  7 26  2 58  0.0000000  0  8G10G25G12G05G29G04G02G01
 112817650.545 7  87909952.65345  21468467.445                    21468474.289
 117256703.160 7                  22313217.211
 109078544.200 7  84996346.44146  20756955.055                    20756961.832
 108316205.225 8  84402341.52546  20611870.180                    20611877.250
 127622242.464 6  99445947.04143  24285706.680                    24285715.555
 122444954.962 6  95411779.57744  23300475.734                    23300483.918
 109445168.084 8  85282091.82846  20826704.766                    20826709.820
 111135690.153 8                  21148403.805
 11  7 26  2 58 30.0000000  0  8G10G25G12G05G29G04G02G01
 112878015.468 7  87956990.26945  21479953.984                    21479961.047
 117194198.055 7                  22301323.125
 109081548.477 8  84998687.45946  20757526.555                    20757533.336
 108271803.487 8  84367742.80546  20603420.906                    20603427.617
 127540562.676 6  99382300.50343  24270163.750                    24270172.566
 122528052.049 7  95476530.54844  23316288.453                    23316296.715
 109470063.180 8  85301490.61446  20831441.688                    20831446.820
 111166454.875 8                  21154257.789
 11  7 26  2 59  0.0000000  0  8G10G25G12G05G29G04G02G01
 112938894.568 7  88004428.54545  21491539.289                    21491546.289
 117132160.455 7                  22289517.641
 109085138.702 8  85001485.05046  20758209.969                    20758216.531
 108227944.217 8  84333566.78946  20595074.906                    20595081.895
 127458829.906 6  99318612.67243  24254609.305                    24254619.613
 122611141.729 7  95541275.76444  23332099.656                    23332108.063
 109495136.770 8  85321028.49446  20836213.195                    20836218.508
 111197393.333 8                  21160145.008
 11  7 26  2 59 30.0000000  0  8G10G25G12G05G29G04G02G01
 113000284.613 7  88052264.95145  21503221.602                    21503228.516
 117070591.603 7                  22277801.195
 109089314.379 8  85004738.83446  20759004.641                    20759011.531
 108184628.304 8  84299814.16946  20586832.398                    20586839.395
 127377044.174 6  99254883.59143  24239046.625                    24239055.840
 122694222.428 7  95606013.99143  23347908.984                    23347917.254
 109520387.366 8  85340704.30146  20841018.555                    20841023.406
 111228503.322 8                  21166064.836
 11  7 26  3  0  0.0000000  0  8G10G25G12G05G29G04G02G01
 113062183.501 7  88100497.87145  21515000.180                    21515007.047
 117009493.890 7                  22266174.773
 109094075.710 8  85008448.98646  20759910.922                    20759917.313
 108141857.372 8  84266486.20746  20578693.203                    20578700.418
 127295206.456 6  99191114.01243  24223473.164                    24223482.598
 122777293.266 7  95670744.51643  23363717.852                    23363725.254
 109545813.876 8  85360517.18846  20845857.008                    20845861.941
 111259784.294 8                  21172018.016
 11  7 26  3  0 30.0000000  0  8G10G25G12G05G29G04G02G01
 113124589.149 7  88149125.66145  21526875.828                    21526882.598
 116948869.803 7                  22254638.219
 109099422.873 8  85012615.63246  20760928.063                    20760934.355
 108099632.748 8  84233583.94046  20570658.242                    20570665.160
 127213317.710 6  99127304.57143  24207890.938                    24207898.996
 122860353.822 7  95735467.04944  23379523.773                    23379530.590
 109571415.855 8  85380466.79746  20850728.984                    20850733.762
 111291234.989 8                  21178002.617
 11  7 26  3  1  0.0000000  0  8G10G25G12G05G29G04G02G01
 113187499.211 7  88198146.51245  21538847.383                    21538854.031
 116888721.169 7                  22243192.430
 109105355.615 8  85017238.56246  20762056.969                    20762063.672
 108057955.473 8  84201108.17546  20562726.883                    20562733.965
 127131378.441 6  99063455.77143  24192297.539                    24192307.219
 122943402.852 6  95800180.61443  23395326.859                    23395334.813
 109597192.149 8  85400552.24046  20855634.125                    20855638.914
 111322854.225 8                  21184019.438
 11  7 26  3  1 30.0000000  0  8G10G25G12G05G29G04G02G01
 113250911.457 7  88247558.67345  21550913.938                    21550921.180
 116829050.113 7                  22231837.258
 109111874.200 8  85022318.00646  20763297.602                    20763304.375
 108016826.559 8  84169059.71246  20554900.422                    20554907.559
 127049389.663 6  98999568.45243  24176695.992                    24176705.133
 123026439.629 6  95864884.64343  23411128.016                    23411135.836
 109623141.447 8  85420772.49546  20860571.633                    20860576.941
 111354640.489 8                  21190068.453
 11  7 26  3  2  0.0000000  0  8G10G25G12G05G29G04G02G01
 113314823.814 7  88297360.52845  21563075.648                    21563083.008
 116769859.266 7                  22220573.430
 109118978.684 8  85027853.98446  20764649.398                    20764655.949
 107976247.841 8  84137439.96346  20547178.813                    20547185.566
 126967352.313 6  98935643.30443  24161085.188                    24161094.125
 123109463.687 6  95929578.74443  23426927.352                    23426935.008
 109649263.799 8  85441127.60546  20865542.758                    20865548.047
 111386593.371 8                  21196148.602
 11  7 26  3  2 30.0000000  0  8G10G25G12G05G29G04G02G01
 113379233.122 7  88347549.61345  21575332.406                    21575339.590
 116711149.967 8                  22209401.555
 109126668.275 8  85033845.89046  20766112.703                    20766119.469
 107936219.898 8  84106249.39546  20539561.352                    20539567.988
 126885266.744 6  98871680.61943  24145464.078                    24145473.656
 123192473.374 6  95994261.66043  23442723.320                    23442731.129
 109675557.335 8  85461616.10046  20870546.141                    20870550.953
 111418710.799 8                  21202260.563
 11  7 26  3  3  0.0000000  0  8G10G25G12G05G29G04G02G01
 113444137.588 7  88398124.53045  21587683.523                    21587690.781
 116652924.713 7                  22198321.414
 109134942.594 8  85040293.43646  20767687.172                    20767694.340
 107896744.318 8  84075489.24046  20532049.102                    20532056.102
 126803134.235 6  98807681.33743  24129835.008                    24129843.789
 123275468.530 6  96058933.28443  23458516.766                    23458524.473
 109702021.680 8  85482237.69846  20875581.992                    20875586.957
 111450992.211 8                  21208403.000
 11  7 26  3  3 30.0000000  0  8G10G25G12G05G29G04G02G01
 113509534.150 7  88449082.89445  21600128.023                    21600135.512
 116595185.181 7                  22187334.078
 109143801.926 8  85047196.84146  20769373.070                    20769379.320
 107857821.736 8  84045159.99246  20524642.586                    20524649.668
 126720955.213 6  98743645.87343  24114197.281                    24114205.715
 123358448.014 6  96123592.67343  23474306.695                    23474314.660
 109728655.466 8  85502991.33246  20880650.570                    20880655.277
 111483436.014 8                  21214577.211
 11  7 26  3  4  0.0000000  0  8G10G25G12G05G29G04G02G01
 113575420.404 7  88500422.84145  21612666.047                    21612673.402
 116537933.286 7                  22176439.336
 109153245.795 8  85054555.73346  20771170.016                    20771177.039
 107819453.220 8  84015262.48646  20517341.102                    20517348.137
 126638730.507 6  98679574.81943  24098550.352                    24098558.859
 123441410.713 6  96188238.99143  23490094.609                    23490102.293
 109755457.496 8  85523876.05246  20885750.836                    20885755.516
 111516040.947 8                  21220781.695
 11  7 26  3  4 30.0000000  0  8G10G25G12G05G29G04G02G01
 113641793.859 7  88552142.42045  21625296.164                    21625303.527
 116481171.142 7                  22165638.063
 109163273.917 8  85062369.87946  20773078.227                    20773085.242
 107781640.072 8  83985797.73446  20510145.734                    20510152.660
 126556460.880 6  98615468.76943  24082894.438                    24082903.465
 123524355.721 6  96252871.48443  23505878.086                    23505885.988
 109782426.931 8  85544891.22546  20890882.867                    20890887.902
 111548805.841 8                  21227016.391
 11  7 26  3  5  0.0000000  0  8G10G25G12G05G29G04G02G01
 113708652.021 7  88604239.70745  21638019.023                    21638026.230
 116424900.806 7                  22154930.477
 109173885.749 8  85070638.86346  20775097.805                    20775104.516
 107744383.439 8  83956766.63046  20503055.883                    20503062.855
 126474147.371 6  98551328.57943  24067231.219                    24067239.418
 123607282.650 7  96317489.93543  23521658.945                    23521666.559
 109809563.137 8  85566036.33746  20896046.680                    20896051.707
 111581729.483 8                  21233281.609
 11  7 26  3  5 30.0000000  0  8G10G25G12G05G29G04G02G01
 113775992.539 7  88656712.85445  21650833.492                    21650840.727
 116369124.113 7                  22144316.016
 109185081.013 8  85079362.47646  20777227.992                    20777234.922
 107707684.140 8  83928169.81046  20496072.234                    20496078.934
 126391790.548 6  98487154.61743  24051558.031                    24051566.910
 123690190.364 6  96382093.41143  23537435.375                    23537442.973
 109836864.929 8  85587310.49046  20901242.039                    20901246.461
 111614810.811 8                  21239576.672
 11  7 26  3  6  0.0000000  0  8G10G25G12G05G29G04G02G01
 113843812.990 7  88709559.98445  21663739.313                    21663745.922
 116313843.057 7                  22133796.523
 109196859.720 8  85088540.71546  20779469.547                    20779476.141
 107671543.017 8  83900007.93746  20489194.633                    20489201.629
 126309391.509 6  98422947.74843  24035877.805                    24035886.973
 123773078.170 7  96446681.36343  23553208.672                    23553216.480
 109864331.469 8  85608713.02146  20906468.344                    20906473.387
 111648048.740 8                  21245901.773
 11  7 26  3  6 30.0000000  0  8G10G25G12G05G29G04G02G01
 113912110.930 7  88762779.16545  21676735.523                    21676742.871
 116259059.605 7                  22123371.727
 109209221.400 8  85098173.21346  20781821.531                    20781828.199
 107635961.318 8  83872281.97546  20482423.781                    20482430.320
 126226951.031 6  98358708.65743  24020189.898                    24020198.969
 123855945.316 6  96511253.22843  23568977.938                    23568985.621
 109891961.963 8  85630243.29646  20911726.438                    20911731.516
 111681442.203 8                  21252256.289
 11  7 26  3  7  0.0000000  0  8G10G25G12G05G29G04G02G01
 113980883.701 7  88816368.34845  21689822.945                    21689829.680
 116204775.669 7                  22113041.570
 109222165.547 8  85108259.58046  20784284.617                    20784291.555
 107600939.846 8  83844992.55846  20475759.336                    20475766.078
 126144469.967 6  98294437.88043  24004495.133                    24004502.980
 123938790.910 6  96575808.29243  23584742.250                    23584750.613
 109919755.372 8  85651900.50946  20917015.508                    20917020.160
 111714989.899 8                  21258640.297
 11  7 26  3  7 30.0000000  0  8G10G25G12G05G29G04G02G01
 114050129.048 7  88870325.78345  21703000.148                    21703007.043
 116150993.461 7                  22102807.188
 109235691.874 8  85118799.58546  20786858.656                    20786865.648
 107566479.740 8  83818140.56746  20469201.758                    20469208.359
 126061949.631 6  98230136.55243  23988790.672                    23988799.898
 124021614.634 6  96640346.30343  23600503.453                    23600510.941
 109947711.212 8  85673684.30146  20922335.242                    20922339.941
 111748690.959 8                  21265053.250
 11  7 26  3  8  0.0000000  0  8G10G25G12G05G29G04G02G01
 114119844.396 7  88924649.45345  21716266.141                    21716273.047
 116097714.803 7                  22092668.711
 109249800.291 8  85129793.16646  20789543.336                    20789550.348
 107532581.941 8  83791726.74046  20462751.281                    20462757.656
 125979390.658 6  98165805.08243  23973079.945                    23973089.297
 124104415.586 6  96704866.54644  23616260.016                    23616267.488
 109975828.591 8  85695593.95546  20927685.906                    20927690.883
 111782544.118 8                  21271495.352
 11  7 26  3  8 30.0000000  0  8G10G25G12G05G29G04G02G01
 114190026.613 7  88979336.91545  21729621.711                    21729628.684
 116044940.911 7                  22082625.789
 109264489.644 8  85141239.41746  20792338.773                    20792345.250
 107499246.862 8  83765751.38846  20456407.844                    20456414.504
 125896793.259 6  98101443.66443  23957361.578                    23957371.023
 124187192.379 7  96769367.95444  23632012.039                    23632019.297
 110004105.673 7  85717628.06746  20933066.969                    20933071.535
 111816547.832 8                  21277965.750
 11  7 26  3  9  0.0000000  0  8G10G25G12G05G29G04G02G01
 114260674.386 7  89034387.15045  21743065.008                    21743071.953
 115992674.999 8                  22072680.297
 109279760.280 8  85153138.62246  20795244.742                    20795251.527
 107466476.565 8  83740216.12246  20450171.695                    20450178.613
 125814159.456 6  98037053.83043  23941637.523                    23941646.047
 124269945.497 7  96833850.93843  23647759.453                    23647766.637
 110032543.470 8  85739787.40146  20938478.461                    20938483.832
 111850702.127 8                  21284464.945
 11  7 26  3  9 30.0000000  0  8G10G25G12G05G29G04G02G01
 114331783.389 7  89089796.78945  21756597.156                    21756603.316
 115940917.361 8                  22062831.023
 109295610.493 8  85165489.44246  20798260.734                    20798268.027
 107434270.466 8  83715120.49346  20444043.086                    20444049.813
 125731489.228 6  97972635.66043  23925906.320                    23925914.109
 124352672.894 6  96898313.87943  23663501.031                    23663509.320
 110061139.062 8  85762069.69846  20943919.570                    20943924.848
 111885004.593 8                  21290992.688
 11  7 26  3 10  0.0000000  0  8G10G25G12G05G29G04G02G01
 114403351.762 7  89145564.38445  21770215.734                    21770222.625
 115889670.271 8                  22053078.766
 109312040.429 8  85178291.98446  20801387.469                    20801393.766
 107402629.524 8  83690465.24646  20438022.016                    20438028.848
 125648783.795 6  97908190.02743  23910167.211                    23910175.699
 124435374.307 6  96962756.55143  23679238.828                    23679246.840
 110089892.078 8  85784474.65546  20949390.547                    20949395.898
 111919454.430 8                  21297548.391
 11  7 26  3 10 30.0000000  0  8G10G25G12G05G29G04G02G01
 114475376.888 7  89201687.87645  21783921.727                    21783928.629
 115838935.583 7                  22043424.039
 109329049.164 8  85191545.54346  20804624.219                    20804630.664
 107371554.912 8  83666251.29346  20432108.469                    20432115.223
 125566044.032 6  97843717.62444  23894422.102                    23894430.488
 124518049.047 6  97027178.44643  23694971.508                    23694979.344
 110118801.952 8  85807001.82746  20954892.633                    20954897.496
 111954050.697 8                  21304131.703
 11  7 26  3 11  0.0000000  0  8G10G25G12G05G29G04G02G01
 114547855.720 7  89258164.91545  21797713.859                    21797721.117
 115788714.788 8                  22033867.703
 109346635.893 8  85205249.47746  20807970.992                    20807977.383
 107341047.094 8  83642478.99146  20426303.172                    20426309.574
 125483270.785 6  97779219.12644  23878671.375                    23878679.566
 124600696.194 6  97091578.82543  23710698.617                    23710706.785
 110147867.522 8  85829650.32646  20960423.352                    20960428.293
 111988791.868 8                  21310743.086
 11  7 26  3 11 30.0000000  0  8G10G25G12G05G29G04G02G01
 114620786.129 7  89314993.82645  21811591.836                    21811599.074
 115739010.140 8                  22024408.820
 109364800.843 8  85219403.98246  20811427.633                    20811434.441
 107311107.083 8  83619149.13246  20420606.109                    20420612.879
 125400465.526 6  97714695.71043  23862913.594                    23862922.563
 124683315.373 6  97155957.42043  23726419.609                    23726428.508
 110177088.266 8  85852419.73746  20965984.297                    20965989.023
 112023677.390 8                  21317381.383
 11  7 26  3 12  0.0000000  0  8G10G25G12G05G29G04G02G01
 114694165.580 7  89372172.62245  21825555.344                    21825562.820
 115689823.295 8                  22015049.172
 109383543.041 8  85234008.28646  20814994.188                    20815000.859
 107281735.759 8  83596262.41846  20415016.664                    20415023.484
 125317629.225 6  97650148.07543  23847150.492                    23847158.457
 124765905.816 6  97220313.60143  23742136.453                    23742144.520
 110206463.498 8  85875309.53446  20971574.250                    20971578.766
 112058706.134 8                  21324047.188
 11  7 26  3 12 30.0000000  0  8G10G25G12G05G29G04G02G01
 114767990.358 7  89429698.43745  21839604.063                    21839611.281
 115641155.059 8                  22005787.641
 109402860.766 8  85249061.05446  20818670.250                    20818676.941
 107252932.758 7  83573818.55246  20409535.758                    20409542.465
 125234761.658 6  97585576.04144  23831381.555                    23831389.609
 124848466.179 6  97284646.35443  23757847.523                    23757855.430
 110235991.084 7  85898318.05046  20977193.031                    20977197.875
 112093876.191 8                  21330739.781
 11  7 26  3 13  0.0000000  0  8G10G25G12G05G29G04G02G01
 114842259.729 7  89487570.66645  21853736.930                    21853744.016
 115593008.874 8                  21996625.664
 109422755.169 8  85264563.18246  20822456.016                    20822462.285
 107224700.200 7  83551819.18246  20404163.328                    20404169.961
 125151865.605 6  97520981.84044  23815606.141                    23815614.875
 124930997.200 6  97348956.26843  23773552.680                    23773560.625
 110265672.278 7  85921446.26246  20982840.805                    20982845.926
 112129187.984 8                  21337459.336
 11  7 26  3 13 30.0000000  0  8G10G25G12G05G29G04G02G01
 114916969.051 7  89545785.74345  21867953.523                    21867960.668
 115545384.703 8                  21987563.203
 109443223.763 8  85280512.74746  20826350.883                    20826357.641
 107197037.452 7  83530263.82046  20398899.469                    20398905.609
 125068940.593 6  97456365.04544  23799826.422                    23799834.496
 125013496.792 6  97413241.72343  23789252.375                    23789259.652
 110295504.498 7  85944692.15646  20988517.906                    20988522.797
 112164638.870 8                  21344205.672
 11  7 26  3 14  0.0000000  0  8G10G25G12G05G29G04G02G01
 114992116.169 7  89604341.94445  21882253.477                    21882261.090
 115498284.616 8                  21978600.305
 109464266.566 8  85296909.73846  20830355.164                    20830361.949
 107169945.256 8  83509153.04246  20393743.531                    20393750.340
 124985987.932 6  97391726.69043  23784040.813                    23784049.035
 125095964.697 6  97477502.43443  23804944.570                    23804952.879
 110325487.156 8  85968055.28346  20994223.219                    20994228.262
 112200228.406 8                  21350978.211
 11  7 26  3 14 30.0000000  0  8G10G25G12G05G29G04G02G01
 115067699.434 7  89663238.00445  21896636.516                    21896643.660
 115451711.045 8                  21969737.789
 109485883.001 8  85313753.72046  20834468.867                    20834475.363
 107143425.068 8  83488487.99346  20388696.727                    20388703.449
 124903009.431 6  97327068.14744  23768251.195                    23768258.789
 125178400.879 6  97541738.41543  23820631.594                    23820640.102
 110355620.331 8  85991535.70446  20999957.445                    20999962.742
 112235956.143 8                  21357776.727
 11  7 26  3 15  0.0000000  0  8G10G25G12G05G29G04G02G01
 115143715.030 7  89722470.94045  21911101.781                    21911108.590
 115405664.861 8                  21960975.414
 109508071.496 8  85331043.46446  20838690.641                    20838697.344
 107117476.695 8  83468268.51346  20383759.008                    20383765.570
 124820005.285 6  97262389.64744  23752455.141                    23752463.457
 125260803.996 6  97605948.68243  23836313.195                    23836320.527
 110385902.281 8  86015132.05746  21005719.938                    21005724.918
 112271820.290 8                  21364601.297
 11  7 26  3 15 30.0000000  0  8G10G25G12G05G29G04G02G01
 115220160.904 7  89782039.16545  21925649.313                    21925656.258
 115360148.051 8                  21952313.875
 109530831.888 8  85348778.84146  20843022.219                    20843028.707
 107092101.047 8  83448495.31046  20378930.078                    20378936.891
 124736976.847 6  97197692.23144  23736655.820                    23736663.945
 125343173.907 7  97670133.02643  23851987.617                    23851995.391
 110416332.794 8  86038844.17646  21011510.867                    21011515.816
 112307820.059 8                  21371451.992
 11  7 26  3 16  0.0000000  0  8G10G25G12G05G29G04G02G01
 115297033.665 7  89841940.03244  21940277.781                    21940284.375
 115315161.807 8                  21943753.508
 109554162.880 8  85366958.84646  20847461.844                    20847468.324
 107067298.256 8  83429168.49046  20374210.281                    20374217.074
 124653924.933 7  97132976.49144  23720851.273                    23720859.883
 125425509.445 6  97734290.59743  23867655.328                    23867662.996
 110446910.655 8  86062671.10846  21017329.445                    21017334.016
 112343954.294 8                  21378327.883
 11  7 26  3 16 30.0000000  0  8G10G25G12G05G29G04G02G01
 115374331.282 7  89902171.94645  21954987.063                    21954993.820
 115270708.117 8                  21935293.688
 109578064.116 8  85385583.19246  20852010.211                    20852016.684
 107043068.982 8  83410288.56246  20369599.984                    20369606.426
 124570851.115 7  97068243.71144  23705042.719                    23705051.320
 125507810.425 6  97798421.25743  23883316.289                    23883323.766
 110477635.401 8  86086612.50646  21023176.117                    21023180.961
 112380222.267 8                  21385229.664
 11  7 26  3 17  0.0000000  0  8G10G25G12G05G29G04G02G01
 115452050.131 7  89962732.11045  21969776.703                    21969783.332
 115226787.981 8                  21926935.961
 109602533.986 8  85404650.63446  20856666.430                    20856673.109
 107019413.719 8  83391855.92346  20365097.977                    20365104.871
 124487755.699 7  97003494.10244  23689230.266                    23689238.004
 125590075.958 6  97862524.27743  23898970.648                    23898978.691
 110508505.621 8  86110667.24946  21029050.813                    21029055.352
 112416622.498 8                  21392156.297
 11  7 26  3 17 30.0000000  0  8G10G25G12G05G29G04G02G01
 115530188.590 7  90023619.24344  21984645.266                    21984652.188
 115183403.660 8                  21918680.633
 109627572.159 8  85424160.90446  20861431.242                    20861437.988
 106996333.261 8  83373871.17346  20360706.211                    20360712.219
 124404640.689 6  96938729.23644  23673414.336                    23673422.234
 125672306.006 6  97926599.62443  23914618.883                    23914627.004
 110539521.570 8  86134835.56946  21034952.211                    21034957.465
 112453154.408 8                  21399107.648
 11  7 26  3 18  0.0000000  0  8G10G25G12G05G29G04G02G01
 115608743.299 7  90084830.71444  21999593.742                    21999601.082
 115140556.009 8                  21910526.734
 109653177.190 8  85444112.89346  20866303.828                    20866310.188
 106973827.295 8  83356334.08946  20356422.875                    20356430.414
 124321506.517 6  96873949.42644  23657593.977                    23657601.746
 125754499.420 6  97990646.41843  23930260.266                    23930267.813
 110570681.546 8  86159116.11146  21040882.242                    21040886.734
 112489816.587 8                  21406084.555
 11  7 26  3 18 30.0000000  0  8G10G25G12G05G29G04G02G01
 115687711.781 7  90146364.61444  22014621.430                    22014628.426
 115098246.809 8                  21902475.445
 109679348.589 8  85464506.19846  20871284.102                    20871290.875
 106951896.498 8  83339245.18346  20352250.266                    20352256.863
 124238354.436 6  96809155.68043  23641771.016                    23641778.508
 125836655.972 6  98054664.51343  23945893.961                    23945902.156
 110601985.297 8  86183508.67546  21046839.313                    21046844.129
 112526608.448 8                  21413085.867
 11  7 26  3 19  0.0000000  0  8G10G25G12G05G29G04G02G01
 115767090.729 7  90208218.34944  22029726.781                    22029733.723
 115056477.118 8                  21894527.000
 109706084.773 8  85485339.60446  20876371.688                    20876378.539
 106930540.863 8  83322604.45346  20348186.000                    20348192.805
 124155185.357 6  96744348.71944  23625943.625                    23625951.781
 125918774.561 6  98118653.04743  23961520.211                    23961528.402
 110633431.409 8  86208012.17346  21052823.148                    21052827.684
 112563528.358 8                  21420111.008
 11  7 26  3 19 30.0000000  0  8G10G25G12G05G29G04G02G01
 115846878.477 7  90270390.64544  22044909.305                    22044917.125
 115015249.312 8                  21886681.758
 109733385.356 8  85506612.79246  20881566.906                    20881573.512
 106909761.782 8  83306412.99946  20344231.813                    20344238.699
 124072001.273 6  96679530.07144  23610114.305                    23610123.160
 126000855.568 6  98182612.26743  23977139.781                    23977148.227
 110665020.208 8  86232626.85246  21058834.555                    21058839.211
 112600576.476 8                  21427161.289
 11  7 26  3 20  0.0000000  0  8G10G25G12G05G29G04G02G01
 115927070.897 7  90332878.26844  22060169.305                    22060176.598
 114974563.527 8                  21878939.109
 109761248.283 8  85528324.17346  20886869.148                    20886875.805
 106889558.127 8  83290669.92246  20340387.156                    20340394.082
 123988801.976 6  96614699.56244  23594282.422                    23594289.840
 126082897.322 6  98246540.88843  23992751.289                    23992760.348
 110696749.612 8  86257351.08646  21064872.555                    21064876.520
 112637750.472 8                  21434235.344
 11  7 26  3 20 30.0000000  0  8G10G25G12G05G29G04G02G01
 116007666.120 7  90395679.74744  22075506.328                    22075513.684
 114934422.401 8                  21871300.570
 109789673.689 8  85550473.85246  20892277.875                    20892284.637
 106869931.303 8  83275376.31246  20336652.156                    20336659.086
 123905589.904 6  96549859.08044  23578447.391                    23578454.918
 126164900.353 6  98310439.39943  24008356.953                    24008364.379
 110728620.164 8  86282185.30846  21070936.945                    21070941.379
 112675050.714 8                  21441333.266
 11  7 26  3 21  0.0000000  0  8G10G25G12G05G29G04G02G01
 116088660.075 7  90458791.94244  22090918.453                    22090926.156
 114894825.881 8                  21863765.375
 109818659.056 7  85573059.86946  20897793.859                    20897801.090
 106850880.690 8  83260531.70946  20333027.406                    20333034.148
 123822364.778 7  96485008.41444  23562609.883                    23562617.477
 126246862.992 6  98374306.40143  24023953.164                    24023961.641
 110760629.518 7  86307127.67746  21077028.078                    21077032.707
 112712474.600 8                  21448454.680
 11  7 26  3 21 30.0000000  0  8G10G25G12G05G29G04G02G01
 116170050.638 7  90522213.17744  22106407.133                    22106414.066
 114855776.136 8                  21856334.898
 109848204.362 8  85596082.20346  20903416.188                    20903422.766
 106832407.034 8  83246136.67546  20329511.688                    20329518.516
 123739128.691 7  96420149.20044  23546771.109                    23546778.566
 126328785.249 6  98438141.88043  24039542.492                    24039550.832
 110792777.829 8  86332178.32146  21083145.641                    21083150.430
 112750022.158 8                  21455599.633
